ftp/pub/palmer/observations_modified/2019/October/original_files/AR191031_BASE.txt
Download
Sample DateTime Unit Id WS Avg 2min WD Avg 2min WGS 10min WGD 10min Air Temp Rel Humidity Dew Point Pyranometer Quantum Air Pressure Snow Level Rainfall PW Current Visibility CBase 1 CBase 2 CBase 3 Vert Vis
2019/10/31 00:00:00 BASE 23.44 32 32.62 35 2.3 100 2.3 1 0 982.8 NA 0.0000 -SN BR 3800 330 0 0 0
2019/10/31 00:01:00 BASE 23.28 29 32.62 35 2.3 100 2.3 1 0 982.9 NA 0.0000 -SN BR 3800 330 0 0 0
2019/10/31 00:02:01 BASE 23.45 29 32.10 41 2.3 100 2.3 1 0 982.8 NA 0.2540 -SN BR 3700 330 0 0 0
2019/10/31 00:03:01 BASE 24.31 30 32.10 41 2.3 100 2.3 1 0 982.9 NA 0.0000 -SN BR 3800 330 0 0 0
2019/10/31 00:04:01 BASE 24.34 33 32.10 41 2.3 100 2.3 1 0 982.8 NA 0.0000 -SN BR 3100 330 0 0 0
2019/10/31 00:05:01 BASE 24.49 31 32.10 41 2.3 100 2.3 1 0 982.8 NA 0.0000 -SN BR 3300 330 0 0 0
2019/10/31 00:06:01 BASE 25.58 31 32.10 41 2.3 100 2.3 0 0 982.7 NA 0.0000 -SN BR 3700 330 0 0 0
2019/10/31 00:07:01 BASE 26.69 34 32.10 41 2.3 100 2.3 0 0 982.7 NA 0.2540 -SN BR 3300 360 0 0 0
2019/10/31 00:08:01 BASE 24.65 29 32.10 41 2.3 100 2.3 0 0 982.8 NA 0.0000 -SN BR 3200 360 0 0 0
2019/10/31 00:09:01 BASE 21.59 25 32.10 41 2.3 100 2.3 0 0 983.0 NA 0.0000 -SN BR 3900 390 0 0 0
2019/10/31 00:10:01 BASE 20.21 26 32.00 30 2.3 100 2.3 0 0 983.0 NA 0.0000 -SN BR 4300 330 0 0 0
2019/10/31 00:11:01 BASE 21.89 27 32.00 30 2.3 100 2.3 0 0 982.8 NA 0.2540 -SN BR 3700 330 0 0 0
2019/10/31 00:12:01 BASE 24.20 29 32.00 30 2.2 100 2.2 0 0 982.8 NA 0.0000 -SN BR 3700 330 0 0 0
2019/10/31 00:13:00 BASE 25.49 33 32.00 30 2.2 100 2.2 0 0 982.7 NA 0.0000 -SN BR 3500 360 0 0 0
2019/10/31 00:14:01 BASE 26.79 34 32.26 28 2.2 100 2.2 0 0 982.6 NA 0.2540 -SN BR 3300 330 0 0 0
2019/10/31 00:15:00 BASE 27.11 31 32.26 28 2.2 100 2.2 0 0 982.6 NA 0.0000 -SN BR 3000 360 0 0 0
2019/10/31 00:16:00 BASE 27.07 31 32.92 31 2.2 100 2.2 0 0 982.6 NA 0.0000 -SN BR 3700 360 0 0 0
2019/10/31 00:17:00 BASE 26.32 31 32.92 31 2.2 100 2.2 0 0 982.6 NA 0.0000 -SN BR 3500 360 0 0 0
2019/10/31 00:18:00 BASE 27.06 33 32.92 31 2.2 100 2.2 0 0 982.5 NA 0.2540 -SN BR 3600 300 0 0 0
2019/10/31 00:19:00 BASE 28.88 35 33.75 41 2.2 100 2.2 0 0 982.5 NA 0.0000 -SN BR 3100 330 0 0 0
2019/10/31 00:20:00 BASE 28.77 35 33.75 41 2.2 100 2.2 0 0 982.6 NA 0.0000 -SN BR 2800 360 0 0 0
2019/10/31 00:21:00 BASE 27.84 34 33.75 41 2.2 100 2.2 0 0 982.6 NA 0.2540 -SN BR 3200 330 0 0 0
2019/10/31 00:22:00 BASE 27.30 33 33.75 41 2.3 100 2.3 0 0 982.6 NA 0.0000 -SN BR 3100 330 0 0 0
2019/10/31 00:23:00 BASE 27.43 32 33.75 41 2.3 100 2.3 0 0 982.6 NA 0.0000 -SN BR 2900 330 0 0 0
2019/10/31 00:24:00 BASE 28.57 33 34.52 23 2.3 100 2.3 0 0 982.5 NA 0.0000 -SN BR 2400 330 0 0 0
2019/10/31 00:25:00 BASE 28.93 34 34.52 23 2.2 100 2.2 0 0 982.5 NA 0.2540 -SN BR 2400 330 0 0 0
2019/10/31 00:26:00 BASE 29.63 34 35.50 34 2.2 100 2.2 0 0 982.4 NA 0.0000 -SN BR 2500 300 0 0 0
2019/10/31 00:27:01 BASE 29.43 33 35.50 34 2.2 100 2.2 0 0 982.6 NA 0.2540 -SN BR 2500 360 0 0 0
2019/10/31 00:28:01 BASE 26.22 31 35.50 34 2.2 100 2.2 0 0 982.7 NA 0.0000 -SN BR 2700 360 0 0 0
2019/10/31 00:29:01 BASE 26.17 30 35.50 34 2.2 100 2.2 0 0 982.6 NA 0.0000 -SN BR 3000 360 0 0 0
2019/10/31 00:30:01 BASE 27.09 30 35.50 34 2.2 100 2.2 0 0 982.7 NA 0.0000 -SN BR 3100 360 0 0 0
2019/10/31 00:31:01 BASE 26.11 31 35.50 34 2.2 100 2.2 0 0 982.7 NA 0.2540 -SN BR 2500 360 0 0 0
2019/10/31 00:32:00 BASE 26.20 30 35.50 34 2.2 100 2.2 0 0 982.7 NA 0.0000 -SN BR 2200 360 0 0 0
2019/10/31 00:33:00 BASE 26.33 27 35.50 34 2.2 100 2.2 0 0 982.7 NA 0.0000 -SN BR 3500 390 0 0 0
2019/10/31 00:34:00 BASE 26.44 26 35.50 34 2.2 100 2.2 0 0 982.5 NA 0.2540 -SN BR 3500 390 0 0 0
2019/10/31 00:35:00 BASE 26.69 27 35.50 34 2.2 100 2.2 0 0 982.6 NA 0.0000 -SN BR 3500 360 0 0 0
2019/10/31 00:36:00 BASE 26.70 29 32.98 28 2.2 100 2.2 0 0 982.6 NA 0.0000 -SN BR 3800 390 0 0 0
2019/10/31 00:37:00 BASE 26.08 26 32.98 28 2.1 100 2.1 0 0 982.7 NA 0.0000 -SN BR 3700 360 0 0 0
2019/10/31 00:38:00 BASE 25.99 28 32.98 28 2.1 100 2.1 0 0 982.7 NA 0.2540 -SN BR 3700 360 0 0 0
2019/10/31 00:39:00 BASE 26.24 29 32.98 28 2.1 100 2.1 0 0 982.7 NA 0.0000 -SN BR 3400 330 0 0 0
2019/10/31 00:40:00 BASE 25.37 27 32.98 28 2.1 100 2.1 0 0 982.7 NA 0.0000 -SN BR 3300 360 0 0 0
2019/10/31 00:41:00 BASE 24.74 26 32.98 28 2.1 100 2.1 0 0 982.8 NA 0.0000 -SN BR 3200 360 0 0 0
2019/10/31 00:42:00 BASE 24.71 27 32.98 28 2.1 100 2.1 0 0 982.7 NA 0.2540 -SN BR 3200 330 0 0 0
2019/10/31 00:43:00 BASE 24.53 27 32.98 28 2.1 100 2.1 0 0 982.7 NA 0.0000 -SN BR 3000 360 0 0 0
2019/10/31 00:44:00 BASE 24.63 29 31.69 30 2.0 100 2.0 0 0 982.7 NA 0.0000 -SN BR 3200 360 0 0 0
2019/10/31 00:45:00 BASE 25.34 31 31.69 30 2.0 100 2.0 0 0 982.7 NA 0.0000 -SN BR 4000 330 0 0 0
2019/10/31 00:46:00 BASE 26.44 32 33.95 26 2.0 100 2.0 0 0 982.6 NA 0.2540 -SN BR 2900 360 0 0 0
2019/10/31 00:47:00 BASE 27.41 32 33.95 26 2.0 100 2.0 0 0 982.6 NA 0.0000 -SN BR 2100 360 0 0 0
2019/10/31 00:48:00 BASE 28.02 30 33.95 26 2.1 100 2.1 0 0 982.6 NA 0.0000 -SN BR 3700 360 0 0 0
2019/10/31 00:49:00 BASE 28.03 27 33.95 26 2.1 100 2.1 0 0 982.6 NA 0.0000 -SN BR 3500 360 0 0 0
2019/10/31 00:50:00 BASE 26.59 26 33.95 26 2.1 100 2.1 0 0 982.7 NA 0.2540 -SN BR 3400 360 0 0 0
2019/10/31 00:51:00 BASE 25.80 26 33.95 26 2.1 100 2.1 0 0 982.7 NA 0.0000 -SN BR 3400 360 0 0 0
2019/10/31 00:52:00 BASE 26.30 23 33.95 26 2.1 100 2.1 0 0 982.7 NA 0.0000 -SN BR 3700 390 0 0 0
2019/10/31 00:53:00 BASE 27.14 20 33.95 26 2.1 100 2.1 0 0 982.6 NA 0.0000 -SN BR 3500 390 0 0 0
2019/10/31 00:54:00 BASE 25.87 21 33.95 26 2.1 100 2.1 0 0 982.8 NA 0.0000 -SN BR 3500 390 0 0 0
2019/10/31 00:55:00 BASE 25.55 24 33.95 26 2.1 100 2.1 0 0 982.6 NA 0.2540 -SN BR 4700 390 0 0 0
2019/10/31 00:56:00 BASE 26.16 27 32.51 36 2.1 100 2.1 0 0 982.7 NA 0.0000 -SN BR 3800 390 0 0 0
2019/10/31 00:57:00 BASE 26.23 28 32.51 36 2.1 100 2.1 0 0 982.5 NA 0.0000 -SN BR 3700 360 0 0 0
2019/10/31 00:58:00 BASE 28.16 31 33.54 32 2.1 100 2.1 0 0 982.5 NA 0.2540 -SN BR 2900 360 0 0 0
2019/10/31 00:59:00 BASE 29.52 29 33.54 32 2.1 100 2.1 0 0 982.5 NA 0.2540 -SN BR 2800 330 1050 0 0
2019/10/31 01:00:00 BASE 27.72 24 33.54 32 2.0 100 2.0 0 0 982.8 NA 0.0000 -SN BR 2800 360 0 0 0
2019/10/31 01:01:00 BASE 24.50 26 33.54 32 2.0 100 2.0 0 0 982.8 NA 0.0000 -SN BR 3800 0 0 0 2400
2019/10/31 01:02:00 BASE 24.62 27 33.54 32 2.0 100 2.0 0 0 982.8 NA 0.0000 -SN BR 3600 390 0 0 0
2019/10/31 01:03:00 BASE 25.49 28 33.54 32 2.0 100 2.0 0 0 982.8 NA 0.2540 -SN BR 2700 390 0 0 0
2019/10/31 01:04:00 BASE 24.99 30 33.54 32 2.1 100 2.1 0 0 982.7 NA 0.0000 -SN BR 2100 330 0 0 0
2019/10/31 01:05:00 BASE 26.07 30 33.54 32 2.1 100 2.1 0 0 982.7 NA 0.0000 -SN BR 3100 360 0 0 0
2019/10/31 01:06:00 BASE 28.55 31 33.54 32 2.1 100 2.1 0 0 982.6 NA 0.0000 -SN BR 3300 360 1120 0 0
2019/10/31 01:07:00 BASE 28.72 28 33.54 32 2.1 100 2.1 0 0 982.7 NA 0.2540 -SN BR 3300 360 0 0 0
2019/10/31 01:08:00 BASE 26.96 20 32.56 20 2.1 100 2.1 0 0 982.8 NA 0.0000 -SN BR 3800 360 0 0 0
2019/10/31 01:09:00 BASE 25.08 14 32.56 20 2.1 100 2.1 0 0 982.9 NA 0.0000 -SN BR 4000 430 0 0 0
2019/10/31 01:10:00 BASE 22.29 16 32.56 20 2.1 100 2.1 0 0 983.1 NA 0.0000 -SN BR 4900 430 0 0 0
2019/10/31 01:11:00 BASE 21.36 21 32.56 20 2.1 100 2.1 0 0 983.0 NA 0.0000 -SN BR 5000 430 0 0 0
2019/10/31 01:12:00 BASE 22.20 25 32.56 20 2.0 100 2.0 0 0 983.0 NA 0.0000 -SN BR 3900 390 0 0 0
2019/10/31 01:13:00 BASE 23.43 31 32.56 20 2.1 100 2.1 0 0 982.9 NA 0.0000 -SN BR 4700 390 0 0 0
2019/10/31 01:14:00 BASE 24.20 29 32.56 20 2.1 100 2.1 0 0 982.9 NA 0.2540 -SN BR 3400 560 0 0 0
2019/10/31 01:15:00 BASE 24.42 26 32.56 20 2.1 100 2.1 0 0 982.8 NA 0.0000 -SN BR 3400 430 0 0 0
2019/10/31 01:16:00 BASE 25.40 26 29.58 21 2.1 100 2.1 0 0 982.7 NA 0.0000 -SN BR 3300 520 0 0 0
2019/10/31 01:17:00 BASE 26.48 26 32.00 37 2.2 100 2.2 0 0 982.7 NA 0.0000 -SN BR 3100 390 0 0 0
2019/10/31 01:18:00 BASE 26.43 27 32.00 37 2.2 100 2.2 0 0 982.7 NA 0.0000 -SN BR 3800 560 0 0 0
2019/10/31 01:19:00 BASE 27.03 29 35.96 37 2.2 100 2.2 0 0 982.6 NA 0.0000 -SN BR 4100 430 0 0 0
2019/10/31 01:20:00 BASE 27.96 29 35.96 37 2.2 100 2.2 0 0 982.6 NA 0.0000 -SN BR 3400 390 0 0 0
2019/10/31 01:21:00 BASE 27.52 28 35.96 37 2.2 100 2.2 0 0 982.6 NA 0.2540 -SN BR 3200 430 0 0 0
2019/10/31 01:22:00 BASE 26.43 26 35.96 37 2.2 100 2.2 0 0 982.7 NA 0.0000 -SN BR 3500 560 0 0 0
2019/10/31 01:23:00 BASE 25.94 22 35.96 37 2.2 100 2.2 0 0 982.7 NA 0.0000 -SN BR 3800 430 0 0 0
2019/10/31 01:24:00 BASE 26.49 20 35.96 37 2.2 100 2.2 0 0 982.7 NA 0.0000 -SN BR 4000 460 0 0 0
2019/10/31 01:25:00 BASE 27.27 23 35.96 37 2.2 100 2.2 0 0 982.7 NA 0.0000 -SN BR 4500 520 0 0 0
2019/10/31 01:26:00 BASE 26.76 27 35.96 37 2.2 100 2.2 0 0 982.7 NA 0.0000 -SN BR 3400 590 0 0 0
2019/10/31 01:27:00 BASE 26.31 30 35.96 37 2.2 100 2.2 0 0 982.6 NA 0.0000 -SN BR 3400 0 0 0 3080
2019/10/31 01:28:00 BASE 29.71 33 35.96 37 2.2 100 2.2 0 0 982.4 NA 0.0000 -SN BR 3300 0 0 0 2990
2019/10/31 01:29:00 BASE 31.56 32 35.03 41 2.2 100 2.2 0 0 982.5 NA 0.0000 -SN BR 3100 0 0 0 2590
2019/10/31 01:30:00 BASE 29.08 30 35.03 41 2.2 100 2.2 0 0 982.7 NA 0.2540 -SN BR 3400 0 0 0 2400
2019/10/31 01:31:00 BASE 27.99 30 35.03 41 2.2 100 2.2 0 0 982.7 NA 0.0000 -SN BR 3700 430 0 0 0
2019/10/31 01:32:00 BASE 27.43 29 35.03 41 2.2 100 2.2 0 0 982.8 NA 0.0000 -SN BR 3400 460 0 0 0
2019/10/31 01:33:00 BASE 25.24 27 35.03 41 2.2 100 2.2 0 0 982.9 NA 0.0000 -SN BR 3500 490 0 0 0
2019/10/31 01:34:00 BASE 24.97 27 35.03 41 2.2 100 2.2 0 0 982.8 NA 0.0000 -SN BR 3600 560 0 0 0
2019/10/31 01:35:00 BASE 24.79 27 35.03 41 2.2 100 2.2 0 0 982.9 NA 0.0000 -SN BR 3600 520 0 0 0
2019/10/31 01:36:00 BASE 24.99 28 35.03 41 2.2 100 2.2 0 0 982.8 NA 0.0000 -SN BR 3800 620 0 0 0
2019/10/31 01:37:00 BASE 26.15 30 35.03 41 2.1 100 2.1 0 0 982.8 NA 0.0000 -SN BR 3700 560 0 0 0
2019/10/31 01:38:00 BASE 26.62 32 33.54 40 2.1 100 2.1 0 0 982.8 NA 0.2540 -SN BR 3700 560 0 0 0
2019/10/31 01:39:00 BASE 27.47 34 31.90 29 2.1 100 2.1 0 0 982.8 NA 0.0000 -SN BR 3300 0 0 0 2200
2019/10/31 01:40:00 BASE 27.63 33 35.19 30 2.1 100 2.1 0 0 982.8 NA 0.0000 -SN BR 3100 0 0 0 2400
2019/10/31 01:41:00 BASE 27.36 32 35.19 30 2.1 100 2.1 0 0 982.8 NA 0.0000 -SN BR 3200 0 0 0 2590
2019/10/31 01:42:00 BASE 26.16 30 35.19 30 2.0 100 2.0 0 0 982.9 NA 0.0000 -SN BR 3200 690 0 0 0
2019/10/31 01:43:00 BASE 25.26 28 35.19 30 2.0 100 2.0 0 0 982.8 NA 0.0000 -SN BR 4300 0 0 0 2430
2019/10/31 01:44:00 BASE 26.84 29 35.19 30 2.0 100 2.0 0 0 982.8 NA 0.0000 -SN BR 5000 0 0 0 2660
2019/10/31 01:45:00 BASE 27.26 31 35.19 30 2.0 100 2.0 0 0 982.8 NA 0.0000 -SN BR 3700 950 0 0 0
2019/10/31 01:46:00 BASE 26.45 30 35.19 30 2.0 100 2.0 0 0 982.8 NA 0.2540 -SN BR 3900 0 0 0 2260
2019/10/31 01:47:00 BASE 26.08 29 35.19 30 2.0 100 2.0 0 0 982.9 NA 0.0000 -SN BR 4700 560 0 0 0
2019/10/31 01:48:00 BASE 24.94 31 35.19 30 2.0 100 2.0 0 0 983.0 NA 0.0000 -SN BR 4300 560 0 0 0
2019/10/31 01:49:00 BASE 25.42 33 35.19 30 2.0 100 2.0 0 0 982.9 NA 0.0000 -SN BR 3900 590 0 0 0
2019/10/31 01:50:00 BASE 25.27 30 32.98 38 2.0 100 2.0 0 0 983.0 NA 0.0000 -SN BR 4200 520 0 0 0
2019/10/31 01:51:00 BASE 24.05 27 31.95 30 2.0 100 2.0 0 0 983.1 NA 0.0000 -SN BR 3600 460 0 0 0
2019/10/31 01:52:00 BASE 24.12 27 31.95 30 2.0 100 2.0 0 0 983.1 NA 0.0000 -SN BR 3600 460 0 0 0
2019/10/31 01:53:00 BASE 23.23 32 31.95 30 2.0 100 2.0 0 0 983.2 NA 0.0000 -SN BR 3600 430 0 0 0
2019/10/31 01:54:00 BASE 24.86 33 31.84 28 2.0 100 2.0 0 0 983.0 NA 0.2540 -SN BR 3900 390 0 0 0
2019/10/31 01:55:00 BASE 26.55 30 30.09 32 2.0 100 2.0 0 0 983.0 NA 0.0000 -SN BR 3000 360 0 0 0
2019/10/31 01:56:00 BASE 26.59 28 31.54 24 2.0 100 2.0 0 0 983.0 NA 0.0000 -SN BR 2500 360 0 0 0
2019/10/31 01:57:00 BASE 26.84 29 31.59 31 2.0 100 2.0 0 0 983.0 NA 0.0000 -SN BR 2900 330 0 0 0
2019/10/31 01:58:00 BASE 27.19 29 32.77 39 2.0 100 2.0 0 0 983.0 NA 0.0000 -SN BR 2700 360 0 0 0
2019/10/31 01:59:00 BASE 28.00 30 32.77 39 2.0 100 2.0 0 0 983.0 NA 0.2540 -SN BR 2200 360 0 0 0
2019/10/31 02:00:00 BASE 26.78 29 32.77 39 1.9 100 1.9 0 0 983.0 NA 0.0000 -SN BR 2000 360 0 0 0
2019/10/31 02:01:00 BASE 25.88 28 32.77 39 1.9 100 1.9 0 0 983.0 NA 0.0000 -SN BR 1900 430 0 0 0
2019/10/31 02:02:00 BASE 26.69 29 32.77 39 1.9 100 1.9 0 0 983.0 NA 0.0000 -SN BR 2300 390 0 0 0
2019/10/31 02:03:00 BASE 26.12 30 32.77 39 1.9 100 1.9 0 0 983.0 NA 0.2540 -SN BR 2600 430 0 0 0
2019/10/31 02:04:00 BASE 26.55 28 33.08 36 1.9 100 1.9 0 0 982.9 NA 0.0000 -SN BR 2900 360 0 0 0
2019/10/31 02:05:00 BASE 27.64 28 33.08 36 1.9 100 1.9 0 0 982.9 NA 0.0000 -SN BR 2900 430 0 0 0
2019/10/31 02:06:00 BASE 28.38 31 33.08 36 1.9 100 1.9 0 0 982.8 NA 0.0000 -SN BR 3000 0 0 0 2660
2019/10/31 02:07:00 BASE 29.50 32 33.54 31 1.9 100 1.9 0 0 982.9 NA 0.0000 -SN BR 2800 0 0 0 2660
2019/10/31 02:08:00 BASE 28.92 31 33.54 31 1.9 100 1.9 0 0 982.8 NA 0.0000 -SN BR 3000 0 0 0 2920
2019/10/31 02:09:00 BASE 28.91 32 33.54 31 1.9 100 1.9 0 0 982.9 NA 0.0000 -SN BR 2700 0 0 0 2790
2019/10/31 02:10:00 BASE 28.16 32 33.54 31 2.0 100 2.0 0 0 983.0 NA 0.2540 -SN BR 2800 0 0 0 2760
2019/10/31 02:11:00 BASE 26.98 31 33.54 31 2.0 100 2.0 0 0 982.9 NA 0.0000 -SN BR 3400 430 0 0 0
2019/10/31 02:12:00 BASE 27.39 32 33.54 31 2.0 100 2.0 0 0 982.9 NA 0.0000 -SN BR 3400 0 0 0 2330
2019/10/31 02:13:00 BASE 28.61 34 33.54 31 2.0 100 2.0 0 0 982.9 NA 0.0000 -SN BR 3200 430 0 0 0
2019/10/31 02:14:00 BASE 28.58 34 33.54 31 2.0 100 2.0 0 0 983.0 NA 0.0000 -SN BR 2800 0 0 0 2330
2019/10/31 02:15:00 BASE 27.02 32 33.54 31 2.0 100 2.0 0 0 982.9 NA 0.0000 -SN BR 3100 0 0 0 2070
2019/10/31 02:16:00 BASE 26.29 31 33.54 31 2.0 100 2.0 0 0 983.0 NA 0.0000 -SN BR 3200 0 0 0 2300
2019/10/31 02:17:00 BASE 26.86 30 32.05 33 2.0 100 2.0 0 0 982.9 NA 0.0000 -SN BR 3400 0 0 0 2590
2019/10/31 02:18:00 BASE 26.53 30 32.05 33 2.0 100 2.0 0 0 983.0 NA 0.2540 -SN BR 3400 690 0 0 0
2019/10/31 02:19:00 BASE 25.78 31 32.05 33 2.0 100 2.0 0 0 983.0 NA 0.0000 -SN BR 4000 690 0 0 0
2019/10/31 02:20:00 BASE 27.01 32 32.10 36 2.0 100 2.0 0 0 982.9 NA 0.0000 -SN BR 3500 0 0 0 3020
2019/10/31 02:21:00 BASE 27.52 32 32.10 36 2.0 100 2.0 0 0 982.9 NA 0.0000 -SN BR 3800 0 0 0 2690
2019/10/31 02:22:00 BASE 26.39 31 32.10 36 2.0 100 2.0 0 0 983.0 NA 0.0000 -SN BR 3500 0 0 0 2560
2019/10/31 02:23:00 BASE 25.56 31 32.10 36 2.0 100 2.0 0 0 983.0 NA 0.0000 -SN BR 4200 0 0 0 2660
2019/10/31 02:24:00 BASE 25.41 30 32.10 36 2.0 100 2.0 0 0 983.0 NA 0.0000 -SN BR 4400 0 0 0 2760
2019/10/31 02:25:00 BASE 25.51 32 32.10 36 2.0 100 2.0 0 0 983.0 NA 0.0000 -SN BR 5000 0 0 0 2850
2019/10/31 02:26:00 BASE 26.50 34 32.10 36 2.0 100 2.0 0 0 983.0 NA 0.0000 -SN BR 4200 660 0 0 0
2019/10/31 02:27:00 BASE 26.91 33 32.10 36 2.0 100 2.0 0 0 982.9 NA 0.0000 -SN BR 6000 560 0 0 0
2019/10/31 02:28:00 BASE 27.63 32 32.10 36 2.1 100 2.1 0 0 982.9 NA 0.0000 -SN BR 4500 520 0 0 0
2019/10/31 02:29:00 BASE 27.68 33 32.10 36 2.1 100 2.1 0 0 983.0 NA 0.2540 -SN BR 3500 0 0 0 2590
2019/10/31 02:30:00 BASE 26.95 33 31.02 31 2.0 100 2.0 0 0 983.0 NA 0.0000 -SN BR 3400 0 0 0 2790
2019/10/31 02:31:00 BASE 27.12 33 31.18 43 2.0 100 2.0 0 0 982.9 NA 0.0000 -SN BR 3400 620 0 0 0
2019/10/31 02:32:00 BASE 26.58 32 31.18 43 2.0 100 2.0 0 0 983.0 NA 0.0000 -SN BR 3300 0 0 0 3640
2019/10/31 02:33:00 BASE 25.98 31 31.18 43 1.9 100 1.9 0 0 983.0 NA 0.0000 -SN BR 3300 0 0 0 2850
2019/10/31 02:34:00 BASE 26.12 33 31.18 43 1.9 100 1.9 0 0 983.0 NA 0.0000 -SN BR 3600 620 0 0 0
2019/10/31 02:35:00 BASE 27.39 33 31.18 43 1.9 100 1.9 0 0 983.0 NA 0.0000 -SN BR 3400 590 0 0 0
2019/10/31 02:36:00 BASE 26.75 32 31.18 43 1.9 100 1.9 0 0 983.0 NA 0.2540 -SN BR 3500 720 0 0 0
2019/10/31 02:37:00 BASE 25.78 33 31.18 43 1.9 100 1.9 0 0 983.0 NA 0.0000 -SN BR 3400 720 0 0 0
2019/10/31 02:38:00 BASE 26.30 31 31.18 43 1.9 100 1.9 0 0 983.0 NA 0.0000 -SN BR 3500 850 0 0 0
2019/10/31 02:39:00 BASE 27.15 32 31.64 35 1.9 100 1.9 0 0 982.9 NA 0.0000 -SN BR 3400 0 0 0 2790
2019/10/31 02:40:00 BASE 27.65 34 31.64 35 1.9 100 1.9 0 0 982.9 NA 0.0000 -SN BR 3200 0 0 0 2760
2019/10/31 02:41:00 BASE 27.40 35 31.64 35 1.9 100 1.9 0 0 982.9 NA 0.2540 -SN BR 3100 360 3120 0 0
2019/10/31 02:42:00 BASE 26.97 35 31.64 35 1.9 100 1.9 0 0 983.0 NA 0.0000 -SN BR 3300 0 0 0 3900
2019/10/31 02:43:00 BASE 25.02 36 31.64 35 1.9 100 1.9 0 0 983.1 NA 0.0000 -SN BR 2800 0 0 0 3640
2019/10/31 02:44:00 BASE 23.63 34 31.64 35 1.9 100 1.9 0 0 983.0 NA 0.0000 -SN BR 3400 0 0 0 3740
2019/10/31 02:45:00 BASE 24.11 33 31.64 35 1.9 100 1.9 0 0 983.1 NA 0.0000 -SN BR 3200 0 0 0 3610
2019/10/31 02:46:00 BASE 25.80 35 31.64 35 1.9 100 1.9 0 0 983.0 NA 0.0000 -SN BR 3300 0 0 0 3580
2019/10/31 02:47:00 BASE 25.85 39 31.64 35 1.9 100 1.9 0 0 983.1 NA 0.0000 -SN BR 4100 0 0 0 3480
2019/10/31 02:48:00 BASE 24.51 39 31.64 35 2.0 100 2.0 0 0 983.1 NA 0.2540 -SN BR 6000 0 0 0 3580
2019/10/31 02:49:00 BASE 24.06 39 31.38 36 2.0 100 2.0 0 0 983.1 NA 0.0000 -SN BR 3400 820 0 0 0
2019/10/31 02:50:01 BASE 24.12 38 31.02 39 2.0 100 2.0 0 0 983.1 NA 0.0000 -SN BR 3600 0 0 0 3450
2019/10/31 02:51:01 BASE 23.70 40 31.02 39 2.1 100 2.1 0 0 983.2 NA 0.0000 -SN BR 3900 390 0 0 0
2019/10/31 02:52:01 BASE 24.00 40 31.02 39 2.1 100 2.1 0 0 983.1 NA 0.0000 -SN BR 7000 0 0 0 3610
2019/10/31 02:53:01 BASE 23.91 37 31.02 39 2.2 100 2.2 0 0 983.3 NA 0.0000 -SN BR 7000 2560 0 0 0
2019/10/31 02:54:00 BASE 22.54 35 31.02 39 2.2 100 2.2 0 0 983.3 NA 0.0000 -SN BR 9999 2530 3150 0 0
2019/10/31 02:55:00 BASE 22.07 35 31.02 39 2.3 100 2.3 0 0 983.3 NA 0.0000 -SN BR 6000 2400 0 0 0
2019/10/31 02:56:00 BASE 22.01 35 28.50 37 2.3 100 2.3 0 0 983.3 NA 0.0000 -SN BR 3300 2400 0 0 0
2019/10/31 02:57:00 BASE 22.39 35 28.50 37 2.3 100 2.3 0 0 983.3 NA 0.0000 -SN BR 3500 460 0 0 0
2019/10/31 02:58:01 BASE 21.00 35 28.50 37 2.3 100 2.3 0 0 983.4 NA 0.0000 -SN BR 4200 2490 0 0 0
2019/10/31 02:59:01 BASE 20.20 35 28.50 37 2.3 100 2.3 0 0 983.3 NA 0.0000 -SN BR 5000 2430 0 0 0
2019/10/31 03:00:01 BASE 21.31 36 28.14 35 2.3 100 2.3 0 0 983.3 NA 0.2540 -SN BR 4000 0 0 0 3410
2019/10/31 03:01:01 BASE 23.05 35 28.14 35 2.3 100 2.3 0 0 983.2 NA 0.0000 -SN BR 2200 2490 0 0 0
2019/10/31 03:02:01 BASE 23.76 35 27.11 43 2.4 100 2.4 0 0 983.3 NA 0.0000 -SN BR 3400 3280 0 0 0
2019/10/31 03:03:01 BASE 22.33 36 27.11 43 2.4 100 2.4 0 0 983.3 NA 0.0000 -SN BR 4200 3120 0 0 0
2019/10/31 03:04:01 BASE 21.20 36 27.11 43 2.4 100 2.4 0 0 983.3 NA 0.0000 -SN BR 5000 2330 0 0 0
2019/10/31 03:05:01 BASE 21.69 36 27.11 43 2.4 100 2.4 0 0 983.3 NA 0.0000 -SN BR 7000 2000 0 0 0
2019/10/31 03:06:01 BASE 21.75 37 27.11 43 2.5 100 2.5 0 0 983.3 NA 0.0000 -SN BR 7000 2130 0 0 0
2019/10/31 03:07:01 BASE 21.45 37 27.11 43 2.5 100 2.5 0 0 983.3 NA 0.0000 -SN BR 5000 0 0 0 3450
2019/10/31 03:08:01 BASE 21.66 38 27.11 43 2.5 100 2.5 0 0 983.3 NA 0.2540 -SN BR 4000 430 0 0 0
2019/10/31 03:09:01 BASE 21.17 39 27.11 43 2.5 100 2.5 0 0 983.3 NA 0.0000 -SN BR 3400 390 0 0 0
2019/10/31 03:10:01 BASE 20.53 38 27.11 43 2.5 100 2.5 0 0 983.3 NA 0.0000 -SN BR 1900 360 0 0 0
2019/10/31 03:11:01 BASE 19.82 38 27.11 43 2.5 100 2.5 0 0 983.3 NA 0.0000 -SN BR 2400 1710 0 0 0
2019/10/31 03:12:01 BASE 19.67 38 24.95 29 2.5 100 2.5 0 0 983.3 NA 0.0000 -SN BR 9000 0 0 0 3510
2019/10/31 03:13:01 BASE 19.61 37 24.95 29 2.5 100 2.5 0 0 983.3 NA 0.0000 -SN BR 9000 0 0 0 3900
2019/10/31 03:14:01 BASE 19.02 34 24.95 29 2.5 100 2.5 0 0 983.3 NA 0.0000 -SN BR 9999 3120 0 0 0
2019/10/31 03:15:01 BASE 19.11 32 24.54 34 2.5 100 2.5 0 0 983.4 NA 0.0000 -SN BR 9999 3120 0 0 0
2019/10/31 03:16:01 BASE 20.14 32 25.10 32 2.5 100 2.5 0 0 983.3 NA 0.2540 -SN BR 8000 1870 0 0 0
2019/10/31 03:17:01 BASE 20.35 33 25.10 32 2.5 100 2.5 0 0 983.3 NA 0.0000 -SN BR 5000 1970 0 0 0
2019/10/31 03:18:01 BASE 21.38 31 25.83 23 2.5 100 2.5 0 0 983.1 NA 0.0000 -SN BR 9999 1840 0 0 0
2019/10/31 03:19:01 BASE 22.58 32 25.83 23 2.5 100 2.5 0 0 983.2 NA 0.0000 -SN BR 9999 2890 0 0 0
2019/10/31 03:20:01 BASE 22.28 35 25.83 23 2.5 100 2.5 0 0 983.3 NA 0.0000 -SN BR 7000 390 0 0 0
2019/10/31 03:21:01 BASE 22.67 36 26.44 35 2.5 100 2.5 0 0 983.2 NA 0.0000 -SN BR 3700 360 0 0 0
2019/10/31 03:22:01 BASE 22.76 36 27.37 35 2.5 100 2.5 0 0 983.2 NA 0.0000 -SN BR 3500 360 0 0 0
2019/10/31 03:23:01 BASE 21.68 34 27.37 35 2.6 100 2.6 0 0 983.2 NA 0.2540 -SN BR 3100 330 0 0 0
2019/10/31 03:24:01 BASE 21.46 29 27.37 35 2.6 100 2.6 0 0 983.2 NA 0.0000 -SN BR 3700 330 0 0 0
2019/10/31 03:25:01 BASE 21.47 30 27.37 35 2.7 100 2.7 0 0 983.2 NA 0.0000 -SN BR 4200 390 0 0 0
2019/10/31 03:26:01 BASE 21.27 31 27.37 35 2.7 100 2.7 0 0 983.2 NA 0.0000 -SN BR 7000 430 0 0 0
2019/10/31 03:27:01 BASE 21.63 30 27.37 35 2.7 100 2.7 0 0 983.2 NA 0.0000 -SN BR 3700 360 0 0 0
2019/10/31 03:28:01 BASE 21.84 30 27.37 35 2.7 100 2.7 0 0 983.2 NA 0.2540 -SN BR 3300 360 0 0 0
2019/10/31 03:29:01 BASE 21.87 30 27.37 35 2.7 100 2.7 0 0 983.2 NA 0.0000 -SN BR 3200 0 0 0 3510
2019/10/31 03:30:01 BASE 22.60 31 28.04 37 2.6 100 2.6 0 0 983.1 NA 0.0000 -SN BR 3200 0 0 0 3840
2019/10/31 03:31:01 BASE 23.00 29 28.04 37 2.6 100 2.6 0 0 983.1 NA 0.0000 -SN BR 2900 0 0 0 3640
2019/10/31 03:32:01 BASE 22.06 29 28.04 37 2.6 100 2.6 0 0 983.2 NA 0.0000 -SN BR 2900 390 0 0 0
2019/10/31 03:33:01 BASE 22.10 29 28.04 37 2.5 100 2.5 0 0 983.1 NA 0.2540 -SN BR 3400 0 0 0 3580
2019/10/31 03:34:01 BASE 23.62 32 28.04 37 2.5 100 2.5 0 0 983.0 NA 0.0000 -SN BR 3100 0 0 0 3810
2019/10/31 03:35:01 BASE 24.05 31 29.63 22 2.5 100 2.5 0 0 983.0 NA 0.0000 -SN BR 2400 330 0 0 0
2019/10/31 03:36:01 BASE 24.28 30 29.63 22 2.5 100 2.5 0 0 983.0 NA 0.2540 -SN BR 2500 360 0 0 0
2019/10/31 03:37:01 BASE 24.69 32 29.63 22 2.5 100 2.5 0 0 982.9 NA 0.0000 -SN BR 2600 330 0 0 0
2019/10/31 03:38:01 BASE 24.26 35 29.63 22 2.5 100 2.5 0 0 982.9 NA 0.0000 -SN BR 2700 0 0 0 3640
2019/10/31 03:39:01 BASE 25.11 35 29.63 22 2.4 100 2.4 0 0 982.9 NA 0.0000 -SN BR 2900 0 0 0 3810
2019/10/31 03:40:01 BASE 24.60 31 29.63 22 2.4 100 2.4 0 0 983.0 NA 0.2540 -SN BR 2700 0 0 0 3510
2019/10/31 03:41:01 BASE 23.28 30 29.63 22 2.4 100 2.4 0 0 983.0 NA 0.0000 -SN BR 2400 330 3020 0 0
2019/10/31 03:42:01 BASE 23.05 29 29.63 22 2.4 100 2.4 0 0 983.0 NA 0.2540 -SN BR 2400 330 0 0 0
2019/10/31 03:43:01 BASE 23.72 29 29.63 22 2.4 100 2.4 0 0 982.9 NA 0.0000 -SN BR 2200 0 0 0 3250
2019/10/31 03:44:01 BASE 25.24 32 29.94 23 2.4 100 2.4 0 0 982.8 NA 0.0000 -SN BR 2600 390 0 0 0
2019/10/31 03:45:01 BASE 26.87 34 31.28 37 2.4 100 2.4 0 0 982.8 NA 0.2540 -SN BR 2900 360 0 0 0
2019/10/31 03:46:01 BASE 26.33 32 31.28 37 2.4 100 2.4 0 0 982.9 NA 0.0000 -SN BR 2400 0 0 0 3250
2019/10/31 03:47:01 BASE 24.56 32 31.28 37 2.4 100 2.4 0 0 982.9 NA 0.2540 -SN BR 1700 300 0 0 0
2019/10/31 03:48:01 BASE 25.05 32 31.28 37 2.4 100 2.4 0 0 982.9 NA 0.0000 -SN BR 1900 330 0 0 0
2019/10/31 03:49:01 BASE 25.08 32 31.28 37 2.4 100 2.4 0 0 982.9 NA 0.2540 -SN BR 1600 330 0 0 0
2019/10/31 03:50:01 BASE 24.92 31 31.28 37 2.4 100 2.4 0 0 982.8 NA 0.0000 -SN BR 2000 300 0 0 0
2019/10/31 03:51:01 BASE 25.42 34 31.28 37 2.3 100 2.3 0 0 982.8 NA 0.2540 -SN BR 1800 0 0 0 3710
2019/10/31 03:52:01 BASE 26.49 34 31.28 37 2.3 100 2.3 0 0 982.7 NA 0.2540 -SN BR 1800 0 0 0 3740
2019/10/31 03:53:01 BASE 27.30 35 31.28 37 2.3 100 2.3 0 0 982.6 NA 0.0000 -SN BR 2100 0 0 0 3810
2019/10/31 03:54:01 BASE 26.16 35 31.28 37 2.3 100 2.3 0 0 982.7 NA 0.0000 -SN BR 2500 0 0 0 3840
2019/10/31 03:55:01 BASE 25.35 34 30.82 40 2.3 100 2.3 0 0 982.6 NA 0.2540 -SN BR 3100 0 0 0 3840
2019/10/31 03:56:01 BASE 25.97 34 30.82 40 2.3 100 2.3 0 0 982.6 NA 0.0000 -SN BR 3500 0 0 0 3670
2019/10/31 03:57:01 BASE 25.40 34 30.82 40 2.3 100 2.3 0 0 982.6 NA 0.0000 -SN BR 3400 0 0 0 3640
2019/10/31 03:58:01 BASE 24.85 35 30.82 40 2.3 100 2.3 0 0 982.6 NA 0.0000 -SN BR 3100 0 0 0 3710
2019/10/31 03:59:01 BASE 24.64 34 30.82 40 2.3 100 2.3 0 0 982.6 NA 0.0000 -SN BR 4000 0 0 0 3610
2019/10/31 04:00:01 BASE 25.58 32 30.82 40 2.3 100 2.3 0 0 982.4 NA 0.0000 -SN BR 4300 390 0 0 0
2019/10/31 04:01:01 BASE 27.38 32 31.84 38 2.3 100 2.3 0 0 982.4 NA 0.2540 -SN BR 3100 0 0 0 3740
2019/10/31 04:02:00 BASE 27.32 32 31.84 38 2.3 100 2.3 0 0 982.4 NA 0.2540 -SN BR 3500 0 0 0 3810
2019/10/31 04:03:00 BASE 26.43 33 31.84 38 2.4 100 2.4 0 0 982.5 NA 0.0000 -SN BR 2900 0 0 0 4040
2019/10/31 04:04:00 BASE 24.93 34 31.84 38 2.4 100 2.4 0 0 982.5 NA 0.0000 -SN BR 3200 0 0 0 4040
2019/10/31 04:05:00 BASE 25.36 35 31.84 38 2.4 100 2.4 0 0 982.5 NA 0.0000 -SN BR 2900 0 0 0 4040
2019/10/31 04:06:00 BASE 26.01 35 31.84 38 2.3 100 2.3 0 0 982.5 NA 0.0000 -SN BR 3500 0 0 0 4100
2019/10/31 04:07:00 BASE 25.83 36 31.84 38 2.4 100 2.4 0 0 982.5 NA 0.2540 -SN BR 2800 0 0 0 4530
2019/10/31 04:08:00 BASE 25.57 37 31.84 38 2.4 100 2.4 0 0 982.5 NA 0.0000 -SN BR 3300 0 0 0 4990
2019/10/31 04:09:00 BASE 25.85 35 31.84 38 2.4 100 2.4 0 0 982.5 NA 0.0000 -SN BR 2600 360 2260 0 0
2019/10/31 04:10:00 BASE 26.23 35 31.84 38 2.5 100 2.5 0 0 982.5 NA 0.0000 -SN BR 2800 0 0 0 4070
2019/10/31 04:11:00 BASE 25.78 34 31.74 38 2.5 100 2.5 0 0 982.5 NA 0.2540 -SN BR 3100 0 0 0 3640
2019/10/31 04:12:00 BASE 25.54 34 31.74 38 2.5 100 2.5 0 0 982.5 NA 0.0000 -SN BR 3400 360 0 0 0
2019/10/31 04:13:00 BASE 25.98 36 31.74 38 2.5 100 2.5 0 0 982.5 NA 0.0000 -SN BR 3200 0 0 0 4300
2019/10/31 04:14:00 BASE 26.01 35 31.74 38 2.5 100 2.5 0 0 982.5 NA 0.0000 -SN BR 2600 0 0 0 4400
2019/10/31 04:15:00 BASE 25.63 34 31.74 38 2.5 100 2.5 0 0 982.5 NA 0.2540 -SN BR 3000 0 0 0 4360
2019/10/31 04:16:00 BASE 25.15 34 31.74 38 2.5 100 2.5 0 0 982.5 NA 0.0000 -SN BR 2400 0 0 0 4300
2019/10/31 04:17:00 BASE 25.22 33 29.73 38 2.5 100 2.5 0 0 982.5 NA 0.0000 -SN BR 2600 300 0 0 0
2019/10/31 04:18:00 BASE 26.03 34 29.73 38 2.5 100 2.5 0 0 982.5 NA 0.0000 -SN BR 3200 390 0 0 0
2019/10/31 04:19:00 BASE 26.12 34 29.73 38 2.5 100 2.5 0 0 982.6 NA 0.0000 -SN BR 3700 430 0 0 0
2019/10/31 04:20:00 BASE 25.44 34 29.17 33 2.5 100 2.5 0 0 982.6 NA 0.2540 -SN BR 3600 590 0 0 0
2019/10/31 04:21:00 BASE 24.53 34 29.17 33 2.5 100 2.5 0 0 982.6 NA 0.0000 -SN BR 3400 520 0 0 0
2019/10/31 04:22:00 BASE 25.04 35 29.17 33 2.5 100 2.5 0 0 982.6 NA 0.0000 -SN BR 4000 0 0 0 3510
2019/10/31 04:23:00 BASE 25.01 36 29.17 33 2.5 100 2.5 0 0 982.6 NA 0.0000 -SN BR 3400 0 0 0 3380
2019/10/31 04:24:00 BASE 24.17 35 29.17 33 2.5 100 2.5 0 0 982.6 NA 0.0000 -SN BR 3700 0 0 0 3310
2019/10/31 04:25:00 BASE 24.05 34 29.17 33 2.5 100 2.5 0 0 982.7 NA 0.0000 -SN BR 3400 390 0 0 0
2019/10/31 04:26:00 BASE 23.20 33 29.17 33 2.5 100 2.5 0 0 982.6 NA 0.0000 -SN BR 3800 0 0 0 3250
2019/10/31 04:27:00 BASE 23.87 30 29.17 33 2.5 100 2.5 0 0 982.6 NA 0.2540 -SN BR 3700 430 0 0 0
2019/10/31 04:28:00 BASE 23.98 31 28.55 26 2.5 100 2.5 0 0 982.7 NA 0.0000 -SN BR 2600 330 0 0 0
2019/10/31 04:29:00 BASE 23.46 33 28.55 26 2.5 100 2.5 0 0 982.7 NA 0.0000 -SN BR 2600 330 0 0 0
2019/10/31 04:30:00 BASE 22.47 33 28.55 26 2.5 100 2.5 0 0 982.8 NA 0.2540 -SN BR 2200 0 0 0 2990
2019/10/31 04:31:00 BASE 21.60 33 28.55 26 2.6 100 2.6 0 0 982.8 NA 0.0000 -SN BR 3300 330 0 0 0
2019/10/31 04:32:00 BASE 21.87 34 27.93 31 2.6 100 2.6 0 0 982.8 NA 0.0000 -SN BR 8000 330 0 0 0
2019/10/31 04:33:00 BASE 21.54 32 27.93 31 2.6 100 2.6 0 0 982.8 NA 0.0000 -SN BR 4600 330 0 0 0
2019/10/31 04:34:00 BASE 21.61 31 27.93 31 2.6 100 2.6 0 0 982.8 NA 0.0000 -SN BR 5000 360 0 0 0
2019/10/31 04:35:00 BASE 22.32 32 27.93 31 2.6 100 2.6 0 0 982.8 NA 0.2540 -SN BR 2600 330 0 0 0
2019/10/31 04:36:00 BASE 22.42 32 27.93 31 2.6 100 2.6 0 0 982.8 NA 0.0000 -SN BR 5000 390 0 0 0
2019/10/31 04:37:00 BASE 21.48 32 27.47 26 2.6 100 2.6 0 0 982.9 NA 0.0000 -SN BR 4100 750 0 0 0
2019/10/31 04:38:00 BASE 21.86 31 27.47 26 2.6 100 2.6 0 0 982.9 NA 0.0000 -SN BR 3500 790 0 0 0
2019/10/31 04:39:00 BASE 23.76 32 27.47 26 2.6 100 2.6 0 0 982.8 NA 0.0000 -SN BR 3800 430 0 0 0
2019/10/31 04:40:00 BASE 23.56 32 27.47 26 2.6 100 2.6 0 0 982.8 NA 0.0000 -SN BR 3200 0 0 0 3380
2019/10/31 04:41:00 BASE 21.72 32 27.27 40 2.6 100 2.6 0 0 982.9 NA 0.2540 -SN BR 4200 790 0 0 0
2019/10/31 04:42:00 BASE 21.52 33 27.27 40 2.6 100 2.6 0 0 982.8 NA 0.0000 -SN BR 4500 430 0 0 0
2019/10/31 04:43:00 BASE 22.67 32 27.27 40 2.6 100 2.6 0 0 982.8 NA 0.0000 -SN BR 3400 0 0 0 3280
2019/10/31 04:44:00 BASE 22.79 32 27.27 40 2.6 100 2.6 0 0 982.8 NA 0.0000 -SN BR 3400 0 0 0 3280
2019/10/31 04:45:00 BASE 22.27 32 27.27 40 2.6 100 2.6 0 0 982.8 NA 0.0000 -SN BR 8000 620 0 0 0
2019/10/31 04:46:00 BASE 21.80 30 27.27 40 2.6 100 2.6 0 0 982.8 NA 0.0000 -SN BR 3700 390 1940 0 0
2019/10/31 04:47:00 BASE 21.72 30 27.27 40 2.6 100 2.6 0 0 982.8 NA 0.0000 -SN BR 3200 360 0 0 0
2019/10/31 04:48:01 BASE 22.09 32 27.27 40 2.6 100 2.6 0 0 982.7 NA 0.2540 -SN BR 3300 360 2000 0 0
2019/10/31 04:49:01 BASE 21.67 34 26.60 36 2.6 100 2.6 0 0 982.7 NA 0.0000 -SN BR 2700 300 2170 0 0
2019/10/31 04:50:00 BASE 20.00 35 26.60 36 2.6 100 2.6 0 0 982.8 NA 0.0000 -SN BR 4000 0 0 0 3810
2019/10/31 04:51:00 BASE 17.84 35 26.60 36 2.6 100 2.6 0 0 982.8 NA 0.2540 -SN BR 8000 0 0 0 4200
2019/10/31 04:52:00 BASE 18.24 34 26.60 36 2.6 100 2.6 0 0 982.8 NA 0.0000 -SN BR 9999 0 0 0 430
2019/10/31 04:53:00 BASE 19.07 36 25.72 34 2.6 100 2.6 0 0 982.7 NA 0.0000 -SN BR 9999 0 0 0 5380
2019/10/31 04:54:00 BASE 18.54 35 25.26 36 2.7 100 2.7 0 0 982.8 NA 0.0000 -SN BR 9999 4300 0 0 0
2019/10/31 04:55:00 BASE 18.74 33 25.26 36 2.7 100 2.7 0 0 982.7 NA 0.0000 -SN BR 9999 4040 0 0 0
2019/10/31 04:56:00 BASE 19.02 34 25.26 36 2.7 100 2.7 0 0 982.7 NA 0.0000 -SN BR 9999 3970 0 0 0
2019/10/31 04:57:00 BASE 19.40 33 25.26 36 2.8 100 2.8 0 0 982.7 NA 0.0000 -SN BR 9999 3970 0 0 0
2019/10/31 04:58:00 BASE 19.30 31 25.26 36 2.8 100 2.8 0 0 982.7 NA 0.0000 -SN BR 9999 3640 0 0 0
2019/10/31 04:59:01 BASE 19.58 32 23.97 29 2.8 100 2.8 0 0 982.6 NA 0.0000 -SN 9999 3180 0 0 0
2019/10/31 05:00:00 BASE 21.26 33 27.27 30 2.9 100 2.9 0 0 982.5 NA 0.0000 9999 4660 0 0 0
2019/10/31 05:01:00 BASE 21.48 32 27.27 30 2.9 100 2.9 0 0 982.5 NA 0.0000 9999 0 0 0 4690
2019/10/31 05:02:00 BASE 22.28 31 27.78 30 2.9 100 2.9 0 0 982.4 NA 0.0000 -SN 6000 0 0 0 5280
2019/10/31 05:03:00 BASE 23.01 32 27.78 30 2.9 100 2.9 0 0 982.4 NA 0.0000 -SN 9999 3840 0 0 0
2019/10/31 05:04:00 BASE 23.50 31 28.55 26 2.9 100 2.9 0 0 982.3 NA 0.0000 -SN 9999 5090 0 0 0
2019/10/31 05:05:00 BASE 23.62 30 28.55 26 2.9 100 2.9 0 0 982.3 NA 0.0000 -SN 9999 4230 0 0 0
2019/10/31 05:06:00 BASE 22.14 29 28.55 26 2.8 100 2.8 0 0 982.3 NA 0.0000 -SN 9999 4920 0 0 0
2019/10/31 05:07:00 BASE 20.35 29 28.55 26 2.8 100 2.8 0 0 982.5 NA 0.0000 -SN 9999 4820 0 0 0
2019/10/31 05:08:00 BASE 19.73 28 28.55 26 2.8 100 2.8 0 0 982.4 NA 0.0000 -SN 9999 5220 0 0 0
2019/10/31 05:09:00 BASE 20.77 26 28.55 26 2.8 100 2.8 0 0 982.4 NA 0.0000 -SN 9999 5020 0 0 0
2019/10/31 05:10:00 BASE 20.44 27 28.55 26 2.8 100 2.8 0 0 982.4 NA 0.0000 -SN 9999 5090 6960 0 0
2019/10/31 05:11:00 BASE 18.41 29 28.55 26 2.9 100 2.9 0 0 982.5 NA 0.0000 -SN 9999 4330 0 0 0
2019/10/31 05:12:00 BASE 17.96 28 28.55 26 2.9 100 2.9 0 0 982.5 NA 0.0000 -SN 9999 4430 0 0 0
2019/10/31 05:13:00 BASE 20.52 30 28.55 26 2.9 100 2.9 0 0 982.4 NA 0.0000 9999 4230 0 0 0
2019/10/31 05:14:00 BASE 22.66 34 27.37 32 3.0 100 3.0 0 0 982.4 NA 0.0000 9999 4040 0 0 0
2019/10/31 05:15:00 BASE 22.57 34 26.03 28 3.0 100 3.0 0 0 982.4 NA 0.0000 9999 3940 0 0 0
2019/10/31 05:16:00 BASE 21.53 35 26.03 28 3.0 100 3.0 0 0 982.5 NA 0.0000 9999 3970 0 0 0
2019/10/31 05:17:00 BASE 21.93 34 26.03 28 3.1 100 3.1 0 0 982.4 NA 0.0000 9999 3940 0 0 0
2019/10/31 05:18:00 BASE 22.29 34 27.32 28 3.1 100 3.1 0 0 982.4 NA 0.0000 -SN 9999 4100 0 0 0
2019/10/31 05:19:00 BASE 21.11 35 27.32 28 3.1 100 3.1 0 0 982.5 NA 0.0000 9999 4920 0 0 0
2019/10/31 05:20:00 BASE 21.92 34 27.32 28 3.1 100 3.1 0 0 982.4 NA 0.0000 -SN 9999 2660 0 0 0
2019/10/31 05:21:01 BASE 22.00 32 27.32 28 3.1 100 3.1 0 0 982.5 NA 0.0000 -SN 9999 430 0 0 0
2019/10/31 05:22:01 BASE 20.00 34 27.32 28 3.1 100 3.1 0 0 982.5 NA 0.0000 -SN 9999 4100 0 0 0
2019/10/31 05:23:01 BASE 20.60 36 27.32 28 3.1 100 3.1 0 0 982.5 NA 0.0000 -SN 9999 4400 0 0 0
2019/10/31 05:24:01 BASE 20.24 34 27.32 28 3.2 99 3.1 0 0 982.6 NA 0.0000 -SN 9999 3940 0 0 0
2019/10/31 05:25:01 BASE 20.87 33 28.60 32 3.2 99 3.0 0 0 982.4 NA 0.0000 -SN 9999 360 0 0 0
2019/10/31 05:26:01 BASE 22.22 29 28.60 32 3.2 99 3.1 0 0 982.5 NA 0.0000 -SN 7000 360 0 0 0
2019/10/31 05:27:01 BASE 20.44 30 28.60 32 3.2 99 3.1 0 0 982.6 NA 0.0000 -SN 5000 0 0 0 4430
2019/10/31 05:28:01 BASE 18.50 34 28.60 32 3.1 100 3.1 0 0 982.6 NA 0.0000 -SN 9999 4630 0 0 0
2019/10/31 05:29:00 BASE 19.03 35 28.60 32 3.1 100 3.1 0 0 982.5 NA 0.0000 -SN 9999 430 0 0 0
2019/10/31 05:30:00 BASE 19.83 36 28.60 32 3.1 100 3.1 0 0 982.5 NA 0.0000 -SN 8000 4530 0 0 0
2019/10/31 05:31:00 BASE 21.13 34 28.60 32 3.1 100 3.1 0 0 982.4 NA 0.0000 -SN BR 5000 0 0 0 4790
2019/10/31 05:32:00 BASE 20.47 32 28.60 32 3.1 100 3.1 0 0 982.6 NA 0.0000 -SN BR 9999 4270 0 0 0
2019/10/31 05:33:00 BASE 17.31 33 28.60 32 3.1 100 3.1 0 0 982.6 NA 0.0000 -SN BR 9999 4070 0 0 0
2019/10/31 05:34:00 BASE 16.23 33 28.60 32 3.1 100 3.1 0 0 982.7 NA 0.0000 -SN BR 7000 3870 0 0 0
2019/10/31 05:35:00 BASE 16.64 34 27.06 38 3.1 100 3.1 0 0 982.7 NA 0.0000 -SN BR 9000 4430 0 0 0
2019/10/31 05:36:01 BASE 17.11 32 27.06 38 3.1 100 3.1 0 0 982.7 NA 0.0000 -SN BR 4700 3540 4400 0 0
2019/10/31 05:37:00 BASE 16.00 32 27.06 38 3.1 100 3.1 0 0 982.8 NA 0.0000 -SN BR 9999 3510 4200 0 0
2019/10/31 05:38:00 BASE 15.24 37 27.06 38 3.1 100 3.1 0 0 982.8 NA 0.0000 -SN BR 9999 3670 0 0 0
2019/10/31 05:39:00 BASE 15.45 37 27.06 38 3.2 100 3.2 0 0 982.8 NA 0.0000 -SN BR 9999 3540 0 0 0
2019/10/31 05:40:00 BASE 15.55 35 27.06 38 3.2 100 3.2 0 0 982.8 NA 0.0000 -SN BR 9999 3610 0 0 0
2019/10/31 05:41:00 BASE 16.01 34 26.44 41 3.2 100 3.2 0 0 982.7 NA 0.0000 -SN 9999 3220 0 0 0
2019/10/31 05:42:00 BASE 16.81 32 20.89 24 3.3 100 3.3 0 0 982.7 NA 0.0000 -SN 9999 2300 0 0 0
2019/10/31 05:43:00 BASE 16.99 33 20.94 39 3.3 100 3.3 0 0 982.7 NA 0.0000 9999 2260 0 0 0
2019/10/31 05:44:00 BASE 18.46 33 23.15 28 3.2 100 3.2 0 0 982.6 NA 0.0000 -SN 9999 3840 0 0 0
2019/10/31 05:45:00 BASE 19.29 29 23.15 28 3.2 100 3.2 0 0 982.7 NA 0.0000 -SN 9999 2430 0 0 0
2019/10/31 05:46:00 BASE 18.33 30 23.15 28 3.2 100 3.2 0 0 982.7 NA 0.0000 -SN 9999 0 0 0 4230
2019/10/31 05:47:00 BASE 18.65 30 23.15 28 3.2 100 3.2 0 0 982.7 NA 0.0000 -SN 9999 490 0 0 0
2019/10/31 05:48:00 BASE 20.15 27 24.49 30 3.2 100 3.2 0 0 982.7 NA 0.0000 -SN 9999 890 0 0 0
2019/10/31 05:49:00 BASE 20.29 26 24.49 30 3.3 100 3.3 0 0 982.8 NA 0.0000 -SN 9999 2490 0 0 0
2019/10/31 05:50:01 BASE 18.19 27 24.49 30 3.3 100 3.2 0 0 982.9 NA 0.0000 -SN 9999 3810 0 0 0
2019/10/31 05:51:00 BASE 17.54 29 24.49 30 3.3 100 3.2 0 0 982.9 NA 0.0000 -SN 9999 3940 0 0 0
2019/10/31 05:52:00 BASE 18.44 29 24.49 30 3.3 99 3.2 0 0 982.9 NA 0.0000 -SN 9999 3840 0 0 0
2019/10/31 05:53:00 BASE 18.56 26 24.49 30 3.3 99 3.1 0 0 983.0 NA 0.0000 -SN 8000 390 0 0 0
2019/10/31 05:54:00 BASE 19.34 25 24.49 30 3.2 99 3.1 0 0 983.0 NA 0.2540 -SN 4100 360 3540 0 0
2019/10/31 05:55:00 BASE 20.15 24 24.49 30 3.2 99 3.0 0 0 982.9 NA 0.0000 -SN BR 3800 330 0 0 0
2019/10/31 05:56:00 BASE 19.91 23 24.49 20 3.1 99 3.0 0 0 982.9 NA 0.0000 -SN BR 6000 390 0 0 0
2019/10/31 05:57:00 BASE 19.84 23 24.49 20 3.1 99 2.9 0 0 982.8 NA 0.0000 -SN BR 9999 0 0 0 3840
2019/10/31 05:58:00 BASE 20.98 24 25.00 20 3.0 99 2.9 0 0 982.7 NA 0.0000 -SN BR 9999 0 0 0 4660
2019/10/31 05:59:00 BASE 20.54 26 25.00 20 2.9 100 2.9 0 0 982.7 NA 0.0000 -SN BR 9999 4400 0 0 0
2019/10/31 06:00:00 BASE 19.74 27 25.00 20 2.9 100 2.9 0 0 982.7 NA 0.0000 -SN BR 9999 430 0 0 0
2019/10/31 06:01:00 BASE 19.29 26 25.00 20 2.9 100 2.9 0 0 982.7 NA 0.0000 -SN BR 6000 0 0 0 4360
2019/10/31 06:02:00 BASE 18.91 30 25.00 20 2.9 100 2.9 0 0 982.7 NA 0.0000 -SN BR 5000 0 0 0 4360
2019/10/31 06:03:00 BASE 23.56 34 29.84 34 2.9 100 2.9 0 0 982.4 NA 0.0000 -SN BR 3700 0 0 0 4230
2019/10/31 06:04:00 BASE 24.48 30 29.84 34 2.9 100 2.9 0 0 982.6 NA 0.2540 -SN BR 2300 330 0 0 0
2019/10/31 06:05:00 BASE 20.68 29 29.84 34 2.9 100 2.9 0 0 982.7 NA 0.0000 -SN BR 4000 360 0 0 0
2019/10/31 06:06:00 BASE 20.46 31 29.84 34 2.9 100 2.9 0 0 982.7 NA 0.0000 -SN BR 6000 360 0 0 0
2019/10/31 06:07:00 BASE 20.48 30 29.84 34 2.8 100 2.8 0 0 982.7 NA 0.0000 -SN BR 4000 430 0 0 0
2019/10/31 06:08:00 BASE 20.73 30 29.84 34 2.8 100 2.8 0 0 982.6 NA 0.0000 -SN BR 5000 0 0 0 4790
2019/10/31 06:09:00 BASE 21.54 29 29.84 34 2.7 100 2.7 0 0 982.6 NA 0.0000 -SN BR 4500 390 0 0 0
2019/10/31 06:10:00 BASE 21.78 27 29.84 34 2.7 100 2.7 0 0 982.6 NA 0.0000 -SN BR 5000 360 0 0 0
2019/10/31 06:11:00 BASE 22.32 29 29.84 34 2.6 100 2.6 0 0 982.6 NA 0.2540 -SN BR 3400 330 1150 0 0
2019/10/31 06:12:00 BASE 23.78 31 29.84 34 2.6 100 2.6 0 0 982.5 NA 0.0000 -SN BR 2700 330 0 0 0
2019/10/31 06:13:00 BASE 23.55 31 29.17 39 2.6 100 2.6 0 0 982.6 NA 0.0000 -SN BR 2600 330 0 0 0
2019/10/31 06:14:00 BASE 22.85 30 29.17 39 2.5 100 2.5 0 0 982.5 NA 0.2540 -SN BR 3000 330 2530 0 0
2019/10/31 06:15:00 BASE 22.84 27 29.17 39 2.5 100 2.5 0 0 982.6 NA 0.0000 -SN BR 2700 360 0 0 0
2019/10/31 06:16:00 BASE 21.47 25 29.17 39 2.5 100 2.5 0 0 982.6 NA 0.0000 -SN BR 3500 330 0 0 0
2019/10/31 06:17:00 BASE 20.39 26 29.17 39 2.4 100 2.4 0 0 982.7 NA 0.2540 -SN BR 3100 360 0 0 0
2019/10/31 06:18:00 BASE 20.16 27 29.17 39 2.4 100 2.4 0 0 982.6 NA 0.0000 -SN BR 3100 360 0 0 0
2019/10/31 06:19:00 BASE 19.96 28 29.17 39 2.4 100 2.4 0 0 982.6 NA 0.2540 -SN BR 2700 300 0 0 0
2019/10/31 06:20:00 BASE 20.47 25 29.17 39 2.4 100 2.4 0 0 982.6 NA 0.0000 -SN BR 3300 330 0 0 0
2019/10/31 06:21:00 BASE 20.68 25 29.17 39 2.4 100 2.4 0 0 982.6 NA 0.0000 -SN BR 3700 300 1210 0 0
2019/10/31 06:22:00 BASE 20.64 26 28.35 31 2.5 100 2.5 0 0 982.6 NA 0.2540 -SN BR 3700 330 1800 0 0
2019/10/31 06:23:00 BASE 22.15 26 28.35 31 2.5 100 2.5 0 0 982.5 NA 0.0000 -SN BR 4500 1180 0 0 0
2019/10/31 06:24:00 BASE 23.20 27 27.68 19 2.6 100 2.6 0 0 982.5 NA 0.0000 -SN BR 9999 1770 0 0 0
2019/10/31 06:25:00 BASE 23.09 28 27.68 19 2.6 100 2.6 0 0 982.5 NA 0.0000 -SN BR 9999 1050 0 0 0
2019/10/31 06:26:00 BASE 22.39 30 27.68 19 2.7 100 2.7 0 0 982.5 NA 0.0000 -SN BR 9999 0 0 0 3870
2019/10/31 06:27:00 BASE 20.76 28 27.68 19 2.7 100 2.7 0 0 982.6 NA 0.0000 -SN BR 9999 920 0 0 0
2019/10/31 06:28:00 BASE 20.32 27 27.68 19 2.7 100 2.7 0 0 982.6 NA 0.0000 -SN BR 9999 0 0 0 4560
2019/10/31 06:29:00 BASE 21.70 29 27.68 19 2.7 100 2.7 0 0 982.6 NA 0.0000 -SN BR 9999 0 0 0 5220
2019/10/31 06:30:00 BASE 22.32 29 27.68 19 2.8 100 2.8 0 0 982.6 NA 0.0000 -SN BR 9999 0 0 0 5280
2019/10/31 06:31:00 BASE 21.11 30 27.68 19 2.8 100 2.8 0 0 982.7 NA 0.0000 -SN BR 9999 0 0 0 3970
2019/10/31 06:32:00 BASE 19.70 28 27.68 19 2.8 100 2.8 0 0 982.7 NA 0.0000 -SN 9999 0 0 0 3610
2019/10/31 06:33:00 BASE 20.85 27 27.68 19 2.9 100 2.9 0 0 982.6 NA 0.0000 -SN 9000 0 0 0 3350
2019/10/31 06:34:00 BASE 22.80 27 28.81 28 2.9 100 2.9 0 0 982.6 NA 0.0000 -SN 9999 1510 0 0 0
2019/10/31 06:35:00 BASE 21.95 27 28.81 28 2.9 100 2.9 0 0 982.7 NA 0.0000 -SN 8000 0 0 0 3580
2019/10/31 06:36:00 BASE 20.25 30 28.81 28 2.9 100 2.9 0 0 982.8 NA 0.0000 -SN 5000 890 0 0 0
2019/10/31 06:37:01 BASE 20.04 32 28.81 28 2.9 100 2.9 0 0 982.8 NA 0.0000 -SN 8000 0 0 0 3610
2019/10/31 06:38:01 BASE 19.50 31 28.81 28 2.9 100 2.9 0 0 982.8 NA 0.0000 -SN BR 4900 0 0 0 3640
2019/10/31 06:39:01 BASE 21.02 28 29.01 31 2.8 100 2.8 0 0 982.7 NA 0.0000 -SN BR 6000 0 0 0 3450
2019/10/31 06:40:01 BASE 23.85 26 29.01 31 2.8 100 2.8 0 0 982.7 NA 0.0000 -SN BR 4000 0 0 0 3120
2019/10/31 06:41:00 BASE 24.13 28 29.01 31 2.8 100 2.8 0 0 982.7 NA 0.0000 -SN BR 5000 0 0 0 3710
2019/10/31 06:42:01 BASE 23.41 30 29.01 31 2.8 100 2.8 0 0 982.7 NA 0.2540 -SN BR 6000 0 0 0 5580
2019/10/31 06:43:00 BASE 22.37 28 29.01 31 2.8 100 2.8 0 0 982.8 NA 0.0000 -SN BR 3900 0 0 0 4200
2019/10/31 06:44:00 BASE 21.05 27 29.01 31 2.8 100 2.8 0 0 982.8 NA 0.0000 -SN BR 5000 0 0 0 3310
2019/10/31 06:45:00 BASE 20.62 27 29.01 31 2.8 100 2.8 0 0 982.8 NA 0.0000 -SN BR 4000 0 0 0 3150
2019/10/31 06:46:00 BASE 19.69 30 29.01 31 2.8 100 2.8 0 0 982.9 NA 0.0000 -SN BR 5000 5090 0 0 0
2019/10/31 06:47:00 BASE 19.06 31 29.01 31 2.8 100 2.8 0 0 982.9 NA 0.0000 -SN BR 5000 4560 0 0 0
2019/10/31 06:48:00 BASE 18.62 29 29.01 31 2.8 100 2.8 0 0 983.0 NA 0.0000 -SN BR 9999 4230 0 0 0
2019/10/31 06:49:00 BASE 18.65 30 27.68 20 2.8 100 2.8 0 0 983.0 NA 0.0000 -SN BR 9999 4130 0 0 0
2019/10/31 06:50:00 BASE 17.99 34 27.37 17 2.8 100 2.8 0 0 983.0 NA 0.0000 -SN BR 9999 4330 0 0 0
2019/10/31 06:51:00 BASE 16.65 34 27.37 17 2.8 100 2.8 0 0 983.1 NA 0.0000 -SN BR 9000 3670 0 0 0
2019/10/31 06:52:00 BASE 18.65 33 26.75 26 2.9 100 2.9 0 0 983.0 NA 0.0000 -SN BR 9999 3020 0 0 0
2019/10/31 06:53:00 BASE 19.85 31 25.67 28 2.9 100 2.9 0 0 983.0 NA 0.0000 -SN BR 9999 2720 3670 0 0
2019/10/31 06:54:00 BASE 19.39 35 25.67 28 2.9 100 2.9 0 0 983.0 NA 0.0000 -SN BR 9999 1770 0 0 0
2019/10/31 06:55:00 BASE 18.95 36 25.36 27 2.9 100 2.9 0 0 983.1 NA 0.0000 -SN 9999 3640 0 0 0
2019/10/31 06:56:00 BASE 18.72 37 24.74 47 3.0 100 3.0 0 0 983.1 NA 0.0000 -SN 9999 4130 0 0 0
2019/10/31 06:57:00 BASE 17.72 35 24.74 47 3.0 100 3.0 0 0 983.1 NA 0.0000 -SN 9999 0 0 0 4460
2019/10/31 06:58:00 BASE 17.40 30 24.74 47 3.0 100 3.0 0 0 983.0 NA 0.0000 -SN 6000 390 0 0 0
2019/10/31 06:59:00 BASE 18.76 33 23.61 32 2.9 100 2.9 0 0 983.0 NA 0.2540 -SN BR 3600 360 0 0 0
2019/10/31 07:00:00 BASE 21.66 35 27.93 42 2.9 100 2.9 0 0 982.8 NA 0.0000 -SN BR 3900 360 0 0 0
2019/10/31 07:01:00 BASE 20.99 31 27.93 42 2.9 100 2.9 0 0 982.9 NA 0.0000 -SN BR 3600 360 2360 0 0
2019/10/31 07:02:00 BASE 18.56 29 28.50 24 2.8 100 2.8 0 0 982.9 NA 0.2540 -SN BR 3900 390 2660 0 0
2019/10/31 07:03:00 BASE 20.91 26 28.50 24 2.8 100 2.8 0 0 982.7 NA 0.0000 -SN BR 5000 430 2690 0 0
2019/10/31 07:04:00 BASE 21.68 27 28.50 24 2.7 100 2.7 0 0 982.7 NA 0.0000 -SN BR 2700 390 2920 0 0
2019/10/31 07:05:00 BASE 20.89 30 28.50 24 2.7 100 2.7 0 0 982.7 NA 0.0000 -SN BR 1900 360 0 0 0
2019/10/31 07:06:00 BASE 22.38 30 29.48 32 2.6 100 2.6 0 0 982.6 NA 0.0000 -SN BR 2000 360 2690 0 0
2019/10/31 07:07:00 BASE 23.41 32 29.48 32 2.6 100 2.6 0 0 982.6 NA 0.2540 -SN BR 3200 360 2690 0 0
2019/10/31 07:08:00 BASE 22.47 30 29.48 32 2.6 100 2.6 0 0 982.6 NA 0.0000 -SN BR 3400 390 0 0 0
2019/10/31 07:09:00 BASE 22.82 29 29.48 32 2.6 100 2.6 0 0 982.5 NA 0.0000 -SN BR 4000 0 0 0 4490
2019/10/31 07:10:00 BASE 22.63 27 29.48 32 2.6 100 2.6 0 0 982.6 NA 0.0000 -SN BR 4500 390 0 0 0
2019/10/31 07:11:00 BASE 22.21 28 29.48 32 2.6 100 2.6 0 0 982.6 NA 0.0000 -SN BR 4700 390 0 0 0
2019/10/31 07:12:00 BASE 22.87 29 29.48 32 2.6 100 2.6 0 0 982.6 NA 0.0000 -SN BR 5000 3900 0 0 0
2019/10/31 07:13:00 BASE 23.31 26 29.48 32 2.6 100 2.6 0 0 982.6 NA 0.0000 -SN BR 5000 3870 0 0 0
2019/10/31 07:14:00 BASE 23.83 25 29.48 32 2.6 100 2.6 0 0 982.5 NA 0.0000 -SN BR 9000 3810 0 0 0
2019/10/31 07:15:00 BASE 22.46 26 29.48 32 2.7 100 2.7 0 0 982.6 NA 0.0000 -SN BR 6000 3740 0 0 0
2019/10/31 07:16:00 BASE 21.35 25 28.81 39 2.7 100 2.7 0 0 982.6 NA 0.0000 -SN BR 9999 3450 0 0 0
2019/10/31 07:17:00 BASE 23.24 25 30.40 19 2.7 100 2.7 0 0 982.5 NA 0.0000 -SN BR 9999 3380 0 0 0
2019/10/31 07:18:00 BASE 24.41 27 30.40 19 2.8 100 2.8 0 0 982.5 NA 0.0000 -SN BR 9999 4040 0 0 0
2019/10/31 07:19:00 BASE 24.29 27 30.76 24 2.8 100 2.8 0 0 982.5 NA 0.0000 -SN BR 9999 0 0 0 4820
2019/10/31 07:20:00 BASE 24.55 27 30.76 24 2.8 100 2.8 0 0 982.5 NA 0.0000 -SN BR 9999 0 0 0 4950
2019/10/31 07:21:00 BASE 23.23 25 30.76 24 2.8 100 2.8 0 0 982.5 NA 0.0000 -SN BR 6000 430 4490 0 0
2019/10/31 07:22:00 BASE 22.38 25 30.76 24 2.9 100 2.9 0 0 982.5 NA 0.0000 -SN BR 9999 4330 0 0 0
2019/10/31 07:23:00 BASE 22.53 28 30.76 24 2.9 100 2.9 0 0 982.5 NA 0.0000 -SN BR 6000 4200 0 0 0
2019/10/31 07:24:00 BASE 22.76 30 30.76 24 2.8 100 2.8 0 0 982.4 NA 0.0000 -SN 9999 4000 0 0 0
2019/10/31 07:25:00 BASE 24.10 29 30.76 24 2.8 100 2.8 0 0 982.3 NA 0.0000 -SN 9999 3970 4690 0 0
2019/10/31 07:26:00 BASE 24.08 28 30.76 24 2.8 100 2.8 0 0 982.4 NA 0.0000 -SN 9999 3480 0 0 0
2019/10/31 07:27:00 BASE 23.46 29 30.76 24 2.8 100 2.8 0 0 982.4 NA 0.0000 -SN 9999 3450 0 0 0
2019/10/31 07:28:00 BASE 24.52 30 30.76 24 2.8 100 2.8 0 0 982.3 NA 0.0000 -SN 9999 3310 0 0 0
2019/10/31 07:29:00 BASE 25.67 27 29.99 26 2.9 100 2.9 1 0 982.2 NA 0.0000 -SN 9999 3310 4400 0 0
2019/10/31 07:30:00 BASE 25.18 26 29.99 26 2.9 100 2.8 1 0 982.3 NA 0.0000 -SN 9999 3280 0 0 0
2019/10/31 07:31:00 BASE 24.82 27 30.51 20 2.9 100 2.8 1 0 982.3 NA 0.0000 -SN 9999 3310 0 0 0
2019/10/31 07:32:00 BASE 25.31 26 30.51 20 2.9 99 2.8 1 0 982.2 NA 0.0000 9999 3250 0 0 0
2019/10/31 07:33:00 BASE 24.45 26 30.51 20 3.0 99 2.8 1 0 982.3 NA 0.0000 9999 3310 3840 0 0
2019/10/31 07:34:00 BASE 24.72 26 30.51 20 3.0 98 2.7 1 0 982.3 NA 0.0000 9999 3380 8790 0 0
2019/10/31 07:35:00 BASE 24.61 25 30.51 20 3.0 98 2.7 1 0 982.4 NA 0.0000 9999 3280 0 0 0
2019/10/31 07:36:00 BASE 24.77 24 31.18 26 3.0 98 2.7 1 0 982.3 NA 0.0000 9999 3380 3870 0 0
2019/10/31 07:37:00 BASE 25.12 25 31.18 26 3.0 98 2.7 1 0 982.4 NA 0.0000 9999 3580 8790 0 0
2019/10/31 07:38:00 BASE 24.25 23 31.18 26 3.0 97 2.7 1 0 982.4 NA 0.0000 9999 3740 0 0 0
2019/10/31 07:39:00 BASE 23.85 24 31.18 26 3.0 97 2.6 1 0 982.4 NA 0.0000 9999 3770 0 0 0
2019/10/31 07:40:00 BASE 23.39 24 31.18 26 3.0 97 2.5 1 0 982.4 NA 0.0000 9999 3810 0 0 0
2019/10/31 07:41:00 BASE 24.92 24 31.18 26 3.0 97 2.5 1 0 982.2 NA 0.0000 9999 3670 0 0 0
2019/10/31 07:42:00 BASE 25.20 30 31.18 26 3.0 97 2.5 1 0 982.3 NA 0.0000 9999 3710 7280 0 0
2019/10/31 07:43:00 BASE 23.61 31 31.18 26 3.0 97 2.5 1 0 982.3 NA 0.0000 9999 7190 0 0 0
2019/10/31 07:44:00 BASE 23.49 30 31.18 26 3.0 97 2.5 1 0 982.2 NA 0.0000 9999 6430 0 0 0
2019/10/31 07:45:00 BASE 23.31 31 31.18 26 3.0 97 2.6 1 0 982.3 NA 0.0000 9999 5870 0 0 0
2019/10/31 07:46:00 BASE 22.99 31 29.07 26 3.0 97 2.6 1 0 982.2 NA 0.0000 9999 5540 6590 0 0
2019/10/31 07:47:00 BASE 22.24 29 29.01 28 3.0 97 2.6 1 0 982.4 NA 0.0000 9999 5280 0 0 0
2019/10/31 07:48:00 BASE 22.65 31 29.01 28 3.0 97 2.6 1 0 982.3 NA 0.0000 9999 3480 4360 0 0
2019/10/31 07:49:00 BASE 24.37 32 29.01 28 3.0 97 2.6 1 0 982.3 NA 0.0000 9999 3380 0 0 0
2019/10/31 07:50:00 BASE 24.68 32 30.40 31 3.1 97 2.6 1 0 982.3 NA 0.0000 9999 3480 4200 5250 0
2019/10/31 07:51:00 BASE 23.76 30 30.40 31 3.1 97 2.6 1 0 982.3 NA 0.0000 9999 3610 5410 0 0
2019/10/31 07:52:00 BASE 21.65 28 30.40 31 3.1 97 2.6 1 0 982.4 NA 0.0000 9999 3580 5120 0 0
2019/10/31 07:53:00 BASE 20.03 28 30.40 31 3.1 96 2.6 2 0 982.5 NA 0.0000 9999 5050 0 0 0
2019/10/31 07:54:00 BASE 20.48 29 30.40 31 3.1 96 2.6 2 0 982.4 NA 0.0000 9999 5090 0 0 0
2019/10/31 07:55:00 BASE 21.14 34 30.40 31 3.1 96 2.6 2 0 982.4 NA 0.0000 -SN 9999 5380 0 0 0
2019/10/31 07:56:00 BASE 22.16 34 30.40 31 3.1 96 2.6 2 0 982.3 NA 0.0000 -SN 9999 0 0 0 5710
2019/10/31 07:57:00 BASE 23.21 32 30.40 31 3.1 97 2.6 2 0 982.4 NA 0.0000 -SN 9999 430 0 0 0
2019/10/31 07:58:00 BASE 22.50 32 30.40 31 3.1 97 2.6 2 0 982.4 NA 0.0000 -SN 8000 430 0 0 0
2019/10/31 07:59:00 BASE 21.85 32 30.40 31 3.1 97 2.6 2 0 982.5 NA 0.0000 -SN 6000 3450 0 0 0
2019/10/31 08:00:00 BASE 22.11 31 28.91 28 3.0 97 2.6 2 0 982.4 NA 0.0000 -SN 8000 3380 0 0 0
2019/10/31 08:01:00 BASE 20.90 29 28.91 28 3.0 97 2.6 3 0 982.5 NA 0.0000 -SN 9999 3310 0 0 0
2019/10/31 08:02:00 BASE 20.99 30 28.91 28 3.0 98 2.7 3 0 982.5 NA 0.0000 -SN 9999 3350 0 0 0
2019/10/31 08:03:00 BASE 21.59 28 28.91 28 3.0 98 2.7 3 0 982.6 NA 0.0000 -SN 9999 3310 0 0 0
2019/10/31 08:04:00 BASE 21.12 30 28.91 28 3.0 98 2.7 3 0 982.6 NA 0.0000 -SN 9999 3280 0 0 0
2019/10/31 08:05:00 BASE 21.16 31 28.91 28 3.1 98 2.8 3 0 982.6 NA 0.0000 -SN 9999 3250 0 0 0
2019/10/31 08:06:00 BASE 20.44 30 28.91 28 3.1 98 2.8 3 0 982.6 NA 0.0000 -SN 9999 3410 0 0 0
2019/10/31 08:07:00 BASE 20.14 33 28.91 28 3.1 98 2.9 3 0 982.7 NA 0.0000 -SN 9999 3480 0 0 0
2019/10/31 08:08:00 BASE 19.47 35 25.10 35 3.2 98 2.8 3 0 982.7 NA 0.0000 -SN 9999 3480 0 0 0
2019/10/31 08:09:00 BASE 19.36 34 25.10 35 3.2 98 2.8 3 0 982.6 NA 0.0000 -SN 9999 3450 0 0 0
2019/10/31 08:10:00 BASE 19.30 34 24.95 32 3.2 97 2.8 3 0 982.7 NA 0.0000 -SN 9000 3450 0 0 0
2019/10/31 08:11:00 BASE 19.32 33 24.95 32 3.2 97 2.8 3 0 982.7 NA 0.0000 -SN 8000 3410 0 0 0
2019/10/31 08:12:00 BASE 19.31 31 24.95 32 3.2 97 2.8 3 0 982.8 NA 0.0000 -SN 9000 3480 0 0 0
2019/10/31 08:13:00 BASE 19.26 32 24.95 32 3.2 97 2.8 3 0 982.7 NA 0.0000 -SN 8000 3510 0 0 0
2019/10/31 08:14:00 BASE 18.78 32 24.69 31 3.2 97 2.7 3 0 982.7 NA 0.0000 -SN BR 8000 3770 0 0 0
2019/10/31 08:15:00 BASE 18.33 32 24.69 31 3.1 97 2.7 3 0 982.7 NA 0.0000 -SN BR 9000 3870 0 0 0
2019/10/31 08:16:00 BASE 16.91 33 22.69 28 3.1 97 2.7 3 0 982.8 NA 0.0000 -SN BR 8000 3870 0 0 0
2019/10/31 08:17:00 BASE 17.59 32 24.54 29 3.1 97 2.7 3 0 982.6 NA 0.0000 -SN BR 9999 3900 0 0 0
2019/10/31 08:18:00 BASE 20.07 34 24.54 29 3.1 98 2.7 3 0 982.6 NA 0.0000 -SN BR 8000 3970 0 0 0
2019/10/31 08:19:00 BASE 20.47 35 24.74 36 3.1 98 2.8 4 0 982.6 NA 0.0000 -SN BR 8000 430 0 0 0
2019/10/31 08:20:00 BASE 20.52 31 24.74 36 3.1 98 2.8 4 0 982.6 NA 0.0000 -SN BR 8000 2720 0 0 0
2019/10/31 08:21:00 BASE 20.74 27 24.74 36 3.1 98 2.8 5 0 982.6 NA 0.0000 -SN BR 9000 2760 0 0 0
2019/10/31 08:22:00 BASE 20.40 30 24.74 36 3.2 98 2.8 5 0 982.7 NA 0.0000 -SN BR 8000 3900 0 0 0
2019/10/31 08:23:00 BASE 20.23 33 24.74 36 3.2 97 2.8 5 0 982.6 NA 0.0000 -SN BR 8000 3840 0 0 0
2019/10/31 08:24:00 BASE 20.65 32 24.74 36 3.2 97 2.8 5 0 982.7 NA 0.0000 -SN BR 9000 3510 0 0 0
2019/10/31 08:25:00 BASE 19.36 32 24.74 36 3.2 97 2.8 5 0 982.7 NA 0.0000 -SN BR 9000 3510 0 0 0
2019/10/31 08:26:00 BASE 18.05 33 24.74 36 3.2 97 2.7 5 0 982.7 NA 0.0000 -SN BR 9000 3580 0 0 0
2019/10/31 08:27:00 BASE 17.85 32 24.74 36 3.2 97 2.7 6 0 982.7 NA 0.0000 -SN BR 9000 3580 0 0 0
2019/10/31 08:28:00 BASE 18.08 30 24.74 36 3.1 97 2.7 6 0 982.8 NA 0.0000 -SN BR 9000 3540 0 0 0
2019/10/31 08:29:00 BASE 17.50 34 23.87 33 3.1 97 2.7 6 0 982.7 NA 0.0000 -SN BR 9000 3510 0 0 0
2019/10/31 08:30:00 BASE 17.85 37 23.87 33 3.1 97 2.7 5 0 982.7 NA 0.0000 -SN BR 9000 3450 0 0 0
2019/10/31 08:31:00 BASE 18.85 39 23.82 30 3.1 97 2.7 6 0 982.7 NA 0.0000 -SN BR 9000 3410 0 0 0
2019/10/31 08:32:01 BASE 18.00 40 23.82 30 3.1 97 2.7 6 0 982.7 NA 0.0000 -SN BR 9000 2590 0 0 0
2019/10/31 08:33:00 BASE 17.33 39 23.15 36 3.2 97 2.8 6 0 982.7 NA 0.0000 -SN BR 9000 2690 0 0 0
2019/10/31 08:34:00 BASE 18.60 37 23.77 34 3.2 97 2.8 6 0 982.7 NA 0.0000 -SN BR 8000 3410 0 0 0
2019/10/31 08:35:00 BASE 18.27 36 23.77 34 3.2 97 2.8 7 0 982.6 NA 0.0000 -SN BR 7000 2790 0 0 0
2019/10/31 08:36:00 BASE 17.94 37 23.77 34 3.2 97 2.7 7 0 982.6 NA 0.2540 -SN BR 8000 3450 0 0 0
2019/10/31 08:37:00 BASE 18.92 36 23.77 34 3.2 96 2.7 7 0 982.5 NA 0.0000 -SN BR 7000 3350 0 0 0
2019/10/31 08:38:00 BASE 18.18 34 23.77 34 3.2 96 2.6 7 0 982.6 NA 0.0000 -SN BR 6000 2530 0 0 0
2019/10/31 08:39:00 BASE 19.15 33 23.77 34 3.2 96 2.6 7 0 982.5 NA 0.0000 -SN BR 7000 2260 0 0 0
2019/10/31 08:40:00 BASE 20.45 36 23.77 34 3.2 96 2.6 7 0 982.6 NA 0.0000 -SN BR 6000 3310 0 0 0
2019/10/31 08:41:00 BASE 18.79 38 23.77 34 3.2 96 2.6 7 0 982.6 NA 0.0000 -SN BR 8000 3310 0 0 0
2019/10/31 08:42:00 BASE 18.74 35 23.77 34 3.2 96 2.6 7 0 982.5 NA 0.0000 -SN BR 8000 2430 0 0 0
2019/10/31 08:43:00 BASE 19.86 34 23.77 34 3.2 96 2.6 7 0 982.5 NA 0.0000 -SN BR 8000 2560 0 0 0
2019/10/31 08:44:00 BASE 20.13 35 23.72 25 3.2 96 2.6 7 0 982.5 NA 0.0000 -SN BR 7000 2820 0 0 0
2019/10/31 08:45:00 BASE 21.00 33 23.72 25 3.2 96 2.6 6 0 982.6 NA 0.0000 -SN BR 7000 3310 0 0 0
2019/10/31 08:46:00 BASE 21.66 31 25.46 36 3.2 96 2.6 6 0 982.5 NA 0.0000 -SN BR 8000 3410 0 0 0
2019/10/31 08:47:00 BASE 21.47 32 25.46 36 3.2 96 2.6 5 0 982.5 NA 0.0000 -SN BR 8000 2850 0 0 0
2019/10/31 08:48:00 BASE 20.32 31 25.46 36 3.2 96 2.6 5 0 982.6 NA 0.0000 -SN BR 7000 2820 0 0 0
2019/10/31 08:49:00 BASE 19.42 32 25.46 36 3.2 96 2.6 5 0 982.6 NA 0.0000 -SN BR 6000 2690 0 0 0
2019/10/31 08:50:00 BASE 19.72 34 25.46 36 3.2 96 2.6 7 0 982.5 NA 0.0000 -SN BR 5000 390 0 0 0
2019/10/31 08:51:00 BASE 20.84 34 25.46 36 3.2 96 2.6 8 0 982.5 NA 0.0000 -SN BR 4800 390 0 0 0
2019/10/31 08:52:00 BASE 21.08 34 25.46 36 3.2 96 2.6 9 0 982.6 NA 0.0000 -SN BR 4000 390 0 0 0
2019/10/31 08:53:00 BASE 20.96 34 25.46 36 3.1 96 2.6 9 0 982.6 NA 0.0000 -SN BR 5000 430 0 0 0
2019/10/31 08:54:00 BASE 21.21 35 25.46 36 3.1 96 2.6 9 0 982.5 NA 0.0000 -SN BR 5000 360 0 0 0
2019/10/31 08:55:00 BASE 21.68 35 25.46 36 3.1 97 2.6 9 0 982.5 NA 0.0000 -SN BR 3100 360 0 0 0
2019/10/31 08:56:00 BASE 20.37 33 25.21 43 3.1 97 2.6 9 0 982.6 NA 0.0000 -SN BR 3000 360 0 0 0
2019/10/31 08:57:00 BASE 18.99 34 25.21 43 3.1 97 2.6 9 0 982.5 NA 0.0000 -SN BR 4900 3310 0 0 0
2019/10/31 08:58:00 BASE 21.48 33 26.55 33 3.0 97 2.6 10 0 982.4 NA 0.2540 -SN BR 4200 430 0 0 0
2019/10/31 08:59:00 BASE 20.61 32 26.55 33 3.0 97 2.6 11 0 982.6 NA 0.0000 -SN BR 3400 3220 0 0 0
2019/10/31 09:00:00 BASE 18.78 33 26.55 33 3.0 97 2.6 12 0 982.5 NA 0.0000 -SN BR 6000 3220 0 0 0
2019/10/31 09:01:00 BASE 20.18 34 26.55 33 3.0 97 2.6 12 0 982.4 NA 0.0000 -SN BR 8000 3480 0 0 0
2019/10/31 09:02:00 BASE 21.22 34 26.55 33 3.1 97 2.6 12 0 982.4 NA 0.0000 -SN BR 9000 3350 0 0 0
2019/10/31 09:03:01 BASE 22.17 33 26.55 33 3.1 97 2.6 13 0 982.4 NA 0.0000 -SN BR 8000 0 0 0 5640
2019/10/31 09:04:00 BASE 22.36 35 26.55 33 3.1 97 2.6 14 0 982.4 NA 0.0000 -SN BR 8000 0 0 0 2170
2019/10/31 09:05:00 BASE 22.32 36 26.55 33 3.1 97 2.6 14 0 982.4 NA 0.0000 -SN BR 7000 3670 0 0 0
2019/10/31 09:06:00 BASE 22.03 35 26.55 33 3.1 97 2.6 15 0 982.5 NA 0.0000 -SN BR 9999 4100 0 0 0
2019/10/31 09:07:00 BASE 21.80 32 26.55 33 3.1 97 2.6 15 0 982.4 NA 0.0000 -SN BR 9999 3840 0 0 0
2019/10/31 09:08:00 BASE 21.80 31 26.34 36 3.1 97 2.6 14 0 982.4 NA 0.0000 -SN BR 9999 3840 0 0 0
2019/10/31 09:09:00 BASE 20.94 34 26.34 36 3.1 97 2.6 14 0 982.5 NA 0.0000 -SN BR 9999 3870 0 0 0
2019/10/31 09:10:00 BASE 21.27 34 26.34 36 3.1 97 2.6 14 0 982.4 NA 0.0000 -SN BR 9999 3740 0 0 0
2019/10/31 09:11:00 BASE 20.92 34 25.62 23 3.1 97 2.7 13 0 982.5 NA 0.0000 -SN BR 9999 3740 0 0 0
2019/10/31 09:12:00 BASE 19.87 34 25.62 23 3.1 97 2.7 13 0 982.4 NA 0.0000 -SN BR 9999 3740 0 0 0
2019/10/31 09:13:00 BASE 20.76 34 25.62 23 3.1 97 2.6 13 0 982.4 NA 0.0000 -SN BR 9999 3670 0 0 0
2019/10/31 09:14:01 BASE 21.16 35 25.62 23 3.1 96 2.6 13 0 982.3 NA 0.0000 BR 9999 3540 0 0 0
2019/10/31 09:15:00 BASE 20.53 37 25.05 23 3.1 96 2.6 14 0 982.4 NA 0.0000 9000 430 3380 0 0
2019/10/31 09:16:00 BASE 20.26 39 25.05 23 3.1 96 2.6 14 0 982.4 NA 0.0000 9000 490 3540 0 0
2019/10/31 09:17:00 BASE 19.80 37 24.95 30 3.1 96 2.6 14 0 982.3 NA 0.0000 9999 3610 0 0 0
2019/10/31 09:18:00 BASE 19.46 35 24.85 35 3.1 97 2.7 14 0 982.2 NA 0.0000 9999 3740 0 0 0
2019/10/31 09:19:00 BASE 21.40 36 26.80 24 3.2 97 2.7 15 0 982.1 NA 0.0000 BR 9000 3770 0 0 0
2019/10/31 09:20:00 BASE 23.17 38 26.80 24 3.2 97 2.7 15 0 982.1 NA 0.0000 BR 9000 3940 0 0 0
2019/10/31 09:21:00 BASE 22.55 39 26.80 24 3.2 97 2.7 16 0 982.1 NA 0.0000 BR 9000 3540 4000 0 0
2019/10/31 09:22:00 BASE 22.08 39 26.80 24 3.2 96 2.7 15 0 982.1 NA 0.0000 BR 9000 4070 0 0 0
2019/10/31 09:23:00 BASE 23.04 38 26.80 24 3.2 96 2.7 14 0 982.0 NA 0.0000 BR 9000 4200 0 0 0
2019/10/31 09:24:00 BASE 24.39 38 28.76 43 3.3 96 2.7 13 0 982.0 NA 0.0000 BR 9000 4200 0 0 0
2019/10/31 09:25:00 BASE 24.19 38 28.76 43 3.3 96 2.7 12 0 982.1 NA 0.0000 BR 9000 4000 0 0 0
2019/10/31 09:26:00 BASE 22.91 40 28.76 43 3.3 96 2.7 12 0 982.1 NA 0.0000 BR 7000 3710 0 0 0
2019/10/31 09:27:00 BASE 20.92 41 28.76 43 3.4 95 2.7 11 0 982.1 NA 0.0000 BR 5000 330 3740 0 0
2019/10/31 09:28:00 BASE 21.94 40 28.76 43 3.4 95 2.6 11 0 981.8 NA 0.0000 BR 4100 390 0 0 0
2019/10/31 09:29:00 BASE 24.74 36 28.76 43 3.4 94 2.5 11 0 981.8 NA 0.0000 BR 6000 0 0 0 4890
2019/10/31 09:30:00 BASE 25.17 36 28.76 43 3.3 94 2.5 12 0 981.8 NA 0.0000 -SN BR 4400 390 0 0 0
2019/10/31 09:31:00 BASE 25.52 39 29.07 32 3.3 94 2.5 14 0 981.8 NA 0.0000 -SN BR 2900 0 0 0 4270
2019/10/31 09:32:00 BASE 24.80 38 29.07 32 3.3 95 2.5 16 0 981.9 NA 0.0000 -SN BR 7000 0 0 0 4760
2019/10/31 09:33:00 BASE 23.52 39 29.07 32 3.2 95 2.5 18 0 981.9 NA 0.0000 -SN BR 9000 0 0 0 2130
2019/10/31 09:34:00 BASE 22.61 39 29.07 32 3.2 95 2.6 19 0 982.0 NA 0.0000 -SN BR 8000 5220 0 0 0
2019/10/31 09:35:00 BASE 21.83 39 29.07 32 3.3 95 2.6 19 0 982.0 NA 0.0000 -SN BR 9999 3580 4690 0 0
2019/10/31 09:36:00 BASE 21.91 41 29.07 32 3.3 95 2.6 20 0 982.0 NA 0.0000 -SN BR 9999 4490 0 0 0
2019/10/31 09:37:00 BASE 21.97 40 29.07 32 3.3 95 2.6 21 0 982.1 NA 0.0000 -SN BR 9999 3970 0 0 0
2019/10/31 09:38:00 BASE 21.59 38 29.07 32 3.4 95 2.7 21 0 982.1 NA 0.0000 -SN BR 9999 5280 0 0 0
2019/10/31 09:39:00 BASE 21.00 37 29.07 32 3.4 95 2.6 22 0 982.1 NA 0.0000 -SN BR 9999 4170 0 0 0
2019/10/31 09:40:00 BASE 20.70 38 29.07 32 3.4 95 2.6 24 0 982.1 NA 0.0000 -SN BR 9999 3900 0 0 0
2019/10/31 09:41:00 BASE 20.09 41 27.57 40 3.4 94 2.6 26 0 982.1 NA 0.0000 -SN 9999 4530 0 0 0
2019/10/31 09:42:01 BASE 19.46 40 26.19 32 3.4 94 2.6 28 0 982.0 NA 0.0000 9999 4690 0 0 0
2019/10/31 09:43:01 BASE 20.94 37 27.83 37 3.4 94 2.6 30 0 981.8 NA 0.0000 9999 4530 0 0 0
2019/10/31 09:44:01 BASE 22.80 37 27.83 37 3.5 94 2.6 33 0 981.8 NA 0.0000 9999 5180 0 0 0
2019/10/31 09:45:00 BASE 24.13 37 27.83 37 3.5 94 2.6 35 0 981.7 NA 0.0000 9999 4950 0 0 0
2019/10/31 09:46:00 BASE 23.44 35 27.83 37 3.5 94 2.6 38 0 981.7 NA 0.0000 9999 4950 0 0 0
2019/10/31 09:47:01 BASE 23.09 36 27.83 37 3.5 94 2.6 41 0 981.7 NA 0.0000 9999 5050 0 0 0
2019/10/31 09:48:01 BASE 24.11 38 27.83 37 3.5 93 2.5 44 0 981.7 NA 0.0000 9999 4590 0 0 0
2019/10/31 09:49:00 BASE 23.97 38 28.29 39 3.5 93 2.5 46 0 981.7 NA 0.0000 9999 5970 0 0 0
2019/10/31 09:50:00 BASE 22.84 38 28.29 39 3.6 93 2.6 47 0 981.8 NA 0.0000 9999 4040 5910 0 0
2019/10/31 09:51:00 BASE 22.32 39 28.40 31 3.6 93 2.5 45 0 981.7 NA 0.0000 9000 7780 0 0 0
2019/10/31 09:52:01 BASE 22.68 38 28.40 31 3.6 93 2.6 40 0 981.7 NA 0.0000 8000 7680 0 0 0
2019/10/31 09:53:00 BASE 24.60 36 29.27 39 3.7 92 2.6 34 0 981.5 NA 0.0000 BR 7000 7510 0 0 0
2019/10/31 09:54:00 BASE 25.75 36 29.27 39 3.7 92 2.5 28 0 981.4 NA 0.0000 BR 7000 0 0 0 950
2019/10/31 09:55:00 BASE 26.93 35 32.05 30 3.6 92 2.5 24 0 981.3 NA 0.0000 BR 7000 0 0 0 7150
2019/10/31 09:56:00 BASE 28.89 35 32.05 30 3.6 92 2.4 22 0 981.4 NA 0.0000 BR 6000 0 0 0 6330
2019/10/31 09:57:00 BASE 29.57 34 32.46 35 3.6 92 2.4 20 0 981.3 NA 0.0000 BR 5000 0 0 0 4890
2019/10/31 09:58:00 BASE 29.16 32 32.62 29 3.5 92 2.4 20 0 981.5 NA 0.0000 BR 3300 0 0 0 4590
2019/10/31 09:59:00 BASE 28.87 33 32.67 27 3.5 93 2.4 19 0 981.5 NA 0.0000 BR 3000 0 0 0 4270
2019/10/31 10:00:00 BASE 28.58 34 32.67 27 3.4 93 2.4 19 0 981.6 NA 0.0000 BR 2900 0 0 0 4170
2019/10/31 10:01:00 BASE 27.90 35 32.67 27 3.4 94 2.5 19 0 981.5 NA 0.0000 BR 2900 390 0 0 0
2019/10/31 10:02:00 BASE 28.79 37 32.67 27 3.3 94 2.5 20 0 981.6 NA 0.2540 BR 3700 360 2300 0 0
2019/10/31 10:03:00 BASE 27.34 35 32.67 27 3.3 94 2.5 20 0 981.7 NA 0.0000 BR 2900 360 0 0 0
2019/10/31 10:04:00 BASE 25.39 33 32.67 27 3.2 95 2.5 20 0 981.8 NA 0.0000 -SN BR 2200 360 2300 0 0
2019/10/31 10:05:00 BASE 25.59 33 32.67 27 3.2 96 2.6 20 0 981.8 NA 0.0000 -SN BR 2300 360 2260 0 0
2019/10/31 10:06:00 BASE 25.24 33 32.67 27 3.1 96 2.6 21 0 981.9 NA 0.0000 -SN BR 2000 330 2300 0 0
2019/10/31 10:07:00 BASE 24.61 32 32.67 27 3.1 97 2.6 23 0 981.9 NA 0.0000 -SN BR 1600 300 2260 0 0
2019/10/31 10:08:00 BASE 23.79 32 32.67 27 3.0 97 2.6 24 0 982.0 NA 0.2540 -SN BR 1500 300 1740 0 0
2019/10/31 10:09:00 BASE 22.53 30 32.31 37 3.0 98 2.7 25 0 982.0 NA 0.0000 -SN BR 1900 330 2170 0 0
2019/10/31 10:10:00 BASE 22.82 32 32.31 37 2.9 98 2.7 24 0 981.9 NA 0.0000 -SN BR 1800 330 2130 0 0
2019/10/31 10:11:00 BASE 23.27 33 31.18 44 2.9 99 2.7 24 0 981.9 NA 0.2540 -SN BR 1900 330 0 0 0
2019/10/31 10:12:00 BASE 23.53 32 28.40 37 2.8 99 2.7 24 0 982.0 NA 0.0000 -SN BR 1800 360 0 0 0
2019/10/31 10:13:00 BASE 23.96 32 28.40 37 2.8 100 2.7 24 0 981.9 NA 0.0000 -SN BR 1700 330 0 0 0
2019/10/31 10:14:00 BASE 24.39 30 28.40 29 2.7 100 2.7 25 0 981.9 NA 0.2540 -SN BR 1600 330 2230 0 0
2019/10/31 10:15:00 BASE 24.09 30 28.40 29 2.7 100 2.7 25 0 982.0 NA 0.2540 -SN BR 1400 300 2300 0 0
2019/10/31 10:16:00 BASE 23.18 31 28.40 29 2.6 100 2.6 25 0 982.0 NA 0.0000 -SN BR 1200 300 0 0 0
2019/10/31 10:17:00 BASE 22.19 29 28.40 29 2.6 100 2.6 25 0 982.0 NA 0.0000 -SN BR 1500 330 1180 0 0
2019/10/31 10:18:00 BASE 20.77 29 28.40 29 2.6 100 2.6 25 0 982.0 NA 0.0000 -SN BR 2100 330 2030 0 0
2019/10/31 10:19:00 BASE 21.03 32 28.40 29 2.6 100 2.6 26 0 982.0 NA 0.2540 -SN BR 2700 330 1210 0 0
2019/10/31 10:20:00 BASE 21.54 32 28.40 29 2.6 100 2.6 27 0 981.9 NA 0.0000 -SN BR 3100 330 1350 0 0
2019/10/31 10:21:00 BASE 21.50 32 28.40 29 2.6 100 2.6 29 0 981.9 NA 0.0000 -SN BR 2100 330 1480 0 0
2019/10/31 10:22:00 BASE 22.34 32 28.40 29 2.6 100 2.6 32 0 981.8 NA 0.0000 -SN BR 2200 330 1540 0 0
2019/10/31 10:23:00 BASE 22.65 34 28.40 29 2.6 100 2.6 34 0 981.8 NA 0.2540 -SN BR 2100 330 1540 0 0
2019/10/31 10:24:00 BASE 22.30 36 27.01 21 2.6 100 2.6 35 0 981.8 NA 0.0000 -SN BR 2400 330 1350 0 0
2019/10/31 10:25:00 BASE 21.76 32 24.64 36 2.6 100 2.6 35 0 981.8 NA 0.0000 -SN BR 3600 330 1410 0 0
2019/10/31 10:26:00 BASE 22.04 31 25.67 36 2.5 100 2.5 36 0 981.7 NA 0.0000 -SN BR 4700 330 0 0 0
2019/10/31 10:27:00 BASE 22.29 34 25.67 36 2.5 100 2.5 39 0 981.7 NA 0.0000 -SN BR 3900 390 0 0 0
2019/10/31 10:28:00 BASE 21.82 34 26.13 41 2.5 100 2.5 43 0 981.7 NA 0.0000 -SN BR 2400 360 0 0 0
2019/10/31 10:29:00 BASE 21.81 33 26.13 41 2.5 100 2.5 48 0 981.6 NA 0.0000 -SN BR 2500 360 0 0 0
2019/10/31 10:30:00 BASE 21.37 34 26.13 41 2.6 100 2.6 52 0 981.6 NA 0.2540 -SN BR 2800 330 1410 0 0
2019/10/31 10:31:00 BASE 21.06 35 26.13 41 2.6 100 2.6 54 0 981.6 NA 0.0000 -SN BR 2600 360 0 0 0
2019/10/31 10:32:00 BASE 22.05 38 26.13 41 2.6 100 2.6 55 0 981.5 NA 0.0000 -SN BR 3700 390 0 0 0
2019/10/31 10:33:00 BASE 22.60 40 26.70 42 2.6 100 2.6 56 0 981.5 NA 0.0000 -SN BR 3700 360 0 0 0
2019/10/31 10:34:00 BASE 21.95 38 26.70 42 2.6 100 2.6 55 0 981.4 NA 0.0000 -SN BR 5000 360 0 0 0
2019/10/31 10:35:00 BASE 22.23 37 26.70 42 2.7 100 2.7 53 0 981.3 NA 0.0000 -SN BR 5000 430 0 0 0
2019/10/31 10:36:00 BASE 23.10 39 26.70 42 2.7 100 2.7 53 0 981.3 NA 0.0000 -SN BR 6000 430 0 0 0
2019/10/31 10:37:00 BASE 23.64 38 26.70 42 2.7 100 2.7 53 0 981.2 NA 0.0000 -SN BR 3500 390 0 0 0
2019/10/31 10:38:00 BASE 23.56 37 26.70 42 2.7 100 2.7 50 0 981.2 NA 0.0000 -SN BR 3100 0 0 0 4820
2019/10/31 10:39:00 BASE 23.69 37 26.70 42 2.7 100 2.7 47 0 981.1 NA 0.0000 -SN BR 4600 390 0 0 0
2019/10/31 10:40:00 BASE 23.30 39 26.70 42 2.7 100 2.7 46 0 981.2 NA 0.2540 -SN BR 2500 390 0 0 0
2019/10/31 10:41:00 BASE 23.00 42 26.70 42 2.7 100 2.7 45 0 981.2 NA 0.0000 -SN BR 5000 390 0 0 0
2019/10/31 10:42:00 BASE 23.41 43 26.70 42 2.7 100 2.7 46 0 981.1 NA 0.0000 -SN BR 4100 390 0 0 0
2019/10/31 10:43:00 BASE 23.66 44 27.68 37 2.7 100 2.7 48 0 981.2 NA 0.0000 -SN BR 4900 430 0 0 0
2019/10/31 10:44:00 BASE 24.00 44 27.68 37 2.7 100 2.7 49 0 981.1 NA 0.0000 -SN BR 9000 0 0 0 5120
2019/10/31 10:45:00 BASE 24.07 44 27.68 37 2.7 100 2.7 49 0 981.2 NA 0.0000 -SN BR 9000 0 0 0 4790
2019/10/31 10:46:00 BASE 24.35 45 27.68 37 2.7 100 2.7 49 0 981.2 NA 0.0000 -SN BR 7000 5320 0 0 0
2019/10/31 10:47:00 BASE 25.00 44 28.40 45 2.7 100 2.7 48 0 981.2 NA 0.0000 -SN BR 9000 430 0 0 0
2019/10/31 10:48:00 BASE 24.76 44 28.40 45 2.7 100 2.7 46 0 981.3 NA 0.0000 -SN BR 8000 0 0 0 6070
2019/10/31 10:49:00 BASE 23.48 44 28.40 45 2.8 100 2.8 45 0 981.5 NA 0.0000 -SN BR 7000 0 0 0 5840
2019/10/31 10:50:00 BASE 21.18 44 28.40 45 2.8 100 2.8 45 0 981.6 NA 0.0000 -SN BR 9000 0 0 0 5770
2019/10/31 10:51:00 BASE 19.47 46 28.40 45 2.8 100 2.8 45 0 981.6 NA 0.0000 -SN BR 9999 0 0 0 5580
2019/10/31 10:52:00 BASE 18.60 46 28.40 45 2.8 100 2.8 46 0 981.6 NA 0.0000 -SN BR 9000 0 0 0 4860
2019/10/31 10:53:00 BASE 18.29 48 28.40 45 2.8 100 2.8 47 0 981.6 NA 0.0000 -SN BR 9999 0 0 0 4200
2019/10/31 10:54:00 BASE 19.14 45 28.40 45 2.8 100 2.8 50 0 981.6 NA 0.0000 -SN BR 7000 390 0 0 0
2019/10/31 10:55:00 BASE 20.24 41 28.40 45 2.8 100 2.8 51 0 981.5 NA 0.2540 -SN BR 5000 430 0 0 0
2019/10/31 10:56:00 BASE 20.83 42 28.40 45 2.9 100 2.9 51 0 981.6 NA 0.0000 -SN BR 3300 390 0 0 0
2019/10/31 10:57:00 BASE 20.58 42 27.47 44 2.9 100 2.9 53 0 981.6 NA 0.0000 -SN BR 3700 390 0 0 0
2019/10/31 10:58:00 BASE 20.59 41 24.49 45 2.9 100 2.9 54 0 981.6 NA 0.0000 -SN BR 3000 0 0 0 3250
2019/10/31 10:59:00 BASE 19.78 42 23.77 44 2.9 100 2.9 53 0 981.7 NA 0.0000 -SN BR 4100 390 0 0 0
2019/10/31 11:00:00 BASE 18.64 43 23.77 44 2.9 100 2.9 51 0 981.7 NA 0.0000 -SN BR 3300 0 0 0 5450
2019/10/31 11:01:00 BASE 18.01 44 23.77 44 2.9 100 2.9 52 0 981.7 NA 0.0000 -SN BR 4500 0 0 0 5450
2019/10/31 11:02:01 BASE 17.63 43 23.77 44 2.9 100 2.9 60 0 981.7 NA 0.0000 -SN BR 6000 0 0 0 4230
2019/10/31 11:03:00 BASE 16.86 43 23.77 44 2.9 100 2.9 80 0 981.7 NA 0.0000 -SN BR 6000 390 0 0 0
2019/10/31 11:04:00 BASE 15.93 50 23.77 44 3.0 100 3.0 89 0 981.7 NA 0.2540 -SN BR 9000 0 0 0 3900
2019/10/31 11:05:00 BASE 15.27 54 23.77 44 3.0 100 3.0 86 0 981.6 NA 0.0000 -SN BR 9000 0 0 0 6170
2019/10/31 11:06:00 BASE 15.33 55 23.77 44 3.0 100 3.0 81 0 981.5 NA 0.0000 -SN BR 6000 0 0 0 6400
2019/10/31 11:07:00 BASE 16.55 56 23.66 45 3.1 100 3.1 75 0 981.5 NA 0.0000 -SN BR 9999 0 0 0 6170
2019/10/31 11:08:00 BASE 17.38 56 22.69 36 3.1 100 3.1 75 0 981.4 NA 0.0000 -SN BR 9999 390 0 0 0
2019/10/31 11:09:00 BASE 17.13 58 22.69 36 3.1 100 3.1 74 0 981.3 NA 0.0000 -SN BR 9999 390 0 0 0
2019/10/31 11:10:00 BASE 16.83 61 21.81 32 3.1 100 3.1 75 0 981.2 NA 0.0000 -SN BR 9000 0 0 0 4130
2019/10/31 11:11:00 BASE 16.64 65 21.81 32 3.2 100 3.2 74 0 981.2 NA 0.0000 -SN BR 9999 390 0 0 0
2019/10/31 11:12:00 BASE 17.43 66 21.25 52 3.2 100 3.2 77 0 981.2 NA 0.0000 -SN BR 9999 430 0 0 0
2019/10/31 11:13:00 BASE 18.89 62 21.76 53 3.3 100 3.3 89 0 981.2 NA 0.0000 -SN 9999 0 0 0 4430
2019/10/31 11:14:00 BASE 20.43 59 23.97 67 3.4 100 3.4 93 0 981.2 NA 0.0000 -SN 9999 0 0 0 5770
2019/10/31 11:15:00 BASE 21.10 58 24.95 62 3.4 100 3.4 97 0 981.1 NA 0.0000 -SN 9999 0 0 0 6690
2019/10/31 11:16:00 BASE 20.78 58 24.95 62 3.5 100 3.5 97 0 981.2 NA 0.0000 -SN 9999 0 0 0 2070
2019/10/31 11:17:00 BASE 21.20 57 24.95 62 3.6 100 3.6 98 0 981.1 NA 0.0000 -SN 9999 0 0 0 2070
2019/10/31 11:18:00 BASE 20.80 55 24.95 62 3.6 100 3.6 103 0 981.1 NA 0.0000 -SN 9999 0 0 0 5350
2019/10/31 11:19:00 BASE 20.98 54 25.31 58 3.7 100 3.7 104 0 981.2 NA 0.0000 -SN 9999 0 0 0 1900
2019/10/31 11:20:00 BASE 20.58 58 25.31 58 3.8 99 3.7 105 0 981.2 NA 0.0000 -SN 9999 0 0 0 7050
2019/10/31 11:21:00 BASE 18.57 59 25.31 58 3.9 99 3.7 105 0 981.2 NA 0.0000 -SN 9999 6860 0 0 0
2019/10/31 11:22:00 BASE 18.03 57 25.31 58 3.9 98 3.7 104 0 981.2 NA 0.0000 9999 7120 0 0 0
2019/10/31 11:23:00 BASE 17.71 56 25.31 58 4.0 98 3.7 104 0 981.2 NA 0.0000 9999 7150 0 0 0
2019/10/31 11:24:00 BASE 17.82 53 25.31 58 4.1 97 3.7 105 0 981.2 NA 0.0000 9999 7280 0 0 0
2019/10/31 11:25:00 BASE 17.96 51 25.31 58 4.1 97 3.6 110 0 981.2 NA 0.0000 9999 7280 0 0 0
2019/10/31 11:26:00 BASE 15.98 46 25.31 58 4.2 96 3.6 109 0 981.3 NA 0.0000 9999 0 0 0 1440
2019/10/31 11:27:00 BASE 14.90 39 25.31 58 4.2 96 3.6 108 0 981.3 NA 0.0000 9999 0 0 0 1510
2019/10/31 11:28:00 BASE 16.90 36 25.31 58 4.2 95 3.5 105 0 981.2 NA 0.0000 9999 0 0 0 1540
2019/10/31 11:29:00 BASE 18.82 30 22.79 50 4.3 95 3.5 105 0 981.2 NA 0.0000 9999 0 0 0 7640
2019/10/31 11:30:00 BASE 18.73 28 23.05 36 4.3 94 3.4 101 0 981.3 NA 0.0000 9999 0 0 0 7910
2019/10/31 11:31:00 BASE 17.44 28 23.05 36 4.3 94 3.4 97 0 981.4 NA 0.0000 9999 0 0 0 7020
2019/10/31 11:32:00 BASE 17.92 24 25.46 16 4.2 94 3.3 93 0 981.3 NA 0.2540 9999 0 0 0 6140
2019/10/31 11:33:00 BASE 22.02 22 28.60 29 4.2 94 3.3 98 0 981.1 NA 0.0000 9000 430 0 0 0
2019/10/31 11:34:00 BASE 24.69 22 28.60 29 4.2 94 3.3 103 0 981.1 NA 0.0000 5000 0 0 0 5280
2019/10/31 11:35:00 BASE 25.86 24 32.41 19 4.1 94 3.2 104 0 980.8 NA 0.0000 BR 3500 430 0 0 0
2019/10/31 11:36:00 BASE 26.12 25 32.46 33 4.0 94 3.2 105 0 980.8 NA 0.0000 BR 2100 22210 0 0 0
2019/10/31 11:37:00 BASE 25.77 25 32.46 33 3.9 95 3.1 110 0 980.7 NA 0.0000 BR 2100 0 0 0 5770
2019/10/31 11:38:00 BASE 26.95 27 33.08 26 3.8 95 3.1 114 0 980.6 NA 0.0000 BR 1900 0 0 0 5250
2019/10/31 11:39:00 BASE 28.22 26 33.08 26 3.7 96 3.1 117 0 980.4 NA 0.0000 BR 1500 360 0 0 0
2019/10/31 11:40:00 BASE 27.63 25 33.08 26 3.6 97 3.1 121 0 980.5 NA 0.2540 BR 1800 390 0 0 0
2019/10/31 11:41:00 BASE 25.03 24 33.08 26 3.5 97 3.1 121 0 980.6 NA 0.0000 BR 2200 0 0 0 5940
2019/10/31 11:42:00 BASE 25.57 25 33.08 26 3.5 98 3.1 122 0 980.5 NA 0.0000 BR 2700 360 0 0 0
2019/10/31 11:43:00 BASE 26.40 28 33.08 26 3.4 98 3.2 123 0 980.5 NA 0.0000 BR 2200 390 0 0 0
2019/10/31 11:44:00 BASE 25.13 26 33.08 26 3.4 99 3.3 122 0 980.5 NA 0.0000 BR 2000 390 17750 0 0
2019/10/31 11:45:00 BASE 26.92 25 33.08 26 3.4 99 3.3 122 0 980.3 NA 0.0000 BR 2100 0 0 0 5380
2019/10/31 11:46:00 BASE 29.56 26 33.08 26 3.4 100 3.4 123 0 980.2 NA 0.0000 BR 2300 0 0 0 5220
2019/10/31 11:47:00 BASE 30.56 26 33.75 39 3.4 100 3.4 120 0 980.2 NA 0.2540 BR 2900 0 0 0 4460
2019/10/31 11:48:00 BASE 30.10 26 35.91 23 3.4 100 3.4 118 0 980.3 NA 0.0000 BR 2100 0 0 0 5090
2019/10/31 11:49:01 BASE 29.45 26 35.91 23 3.4 100 3.4 119 0 980.2 NA 0.0000 BR 2200 390 0 0 0
2019/10/31 11:50:00 BASE 30.62 27 35.91 23 3.4 100 3.4 118 0 980.2 NA 0.0000 BR 2200 0 0 0 4860
2019/10/31 11:51:00 BASE 32.29 28 40.33 28 3.4 100 3.4 118 0 980.0 NA 0.0000 BR 2100 0 0 0 4790
2019/10/31 11:52:00 BASE 32.71 28 40.33 28 3.4 100 3.4 118 0 980.0 NA 0.2540 BR 2000 0 0 0 4860
2019/10/31 11:53:00 BASE 31.78 29 40.33 28 3.3 100 3.3 116 0 980.0 NA 0.0000 BR 2100 0 0 0 4000
2019/10/31 11:54:00 BASE 31.41 29 40.33 28 3.3 100 3.3 117 0 980.1 NA 0.0000 -SN BR 2100 0 0 0 4330
2019/10/31 11:55:00 BASE 31.10 29 40.33 28 3.3 100 3.3 121 0 980.2 NA 0.0000 -SN BR 1800 0 0 0 4360
2019/10/31 11:56:00 BASE 28.81 27 40.33 28 3.3 100 3.3 122 0 980.3 NA 0.0000 -SN BR 1700 0 0 0 4100
2019/10/31 11:57:00 BASE 27.45 27 40.33 28 3.3 100 3.3 121 0 980.3 NA 0.0000 -SN BR 1800 0 0 0 3640
2019/10/31 11:58:00 BASE 28.48 29 40.33 28 3.3 100 3.3 122 0 980.2 NA 0.2540 -SN BR 2000 0 0 0 3810
2019/10/31 11:59:00 BASE 29.89 27 40.33 28 3.3 100 3.3 120 0 980.1 NA 0.0000 -SN BR 1900 0 0 0 3870
2019/10/31 12:00:00 BASE 30.53 24 40.33 28 3.3 100 3.3 117 0 980.1 NA 0.0000 -SN BR 1800 0 0 0 4300
2019/10/31 12:01:00 BASE 30.32 25 36.32 29 3.3 100 3.3 117 0 980.2 NA 0.0000 -SN BR 2100 0 0 0 4270
2019/10/31 12:02:00 BASE 32.02 27 37.19 23 3.3 100 3.3 123 0 980.0 NA 0.2540 -SN BR 2100 0 0 0 3740
2019/10/31 12:03:01 BASE 30.23 26 37.19 23 3.3 100 3.3 128 0 980.3 NA 0.0000 -SN BR 2200 0 0 0 4200
2019/10/31 12:04:00 BASE 28.83 26 37.19 23 3.3 100 3.3 131 0 980.1 NA 0.0000 -SN BR 2400 0 0 0 4070
2019/10/31 12:05:00 BASE 29.82 28 37.19 23 3.3 100 3.3 134 0 980.2 NA 0.0000 -SN BR 2100 0 0 0 4230
2019/10/31 12:06:00 BASE 29.27 29 37.19 23 3.3 100 3.3 135 0 980.2 NA 0.0000 -SN BR 2200 0 0 0 4170
2019/10/31 12:07:00 BASE 29.39 27 37.19 23 3.3 100 3.3 132 0 980.2 NA 0.0000 -SN BR 2100 0 0 0 4330
2019/10/31 12:08:00 BASE 28.93 26 37.19 23 3.3 100 3.3 133 0 980.1 NA 0.2540 -SN BR 2200 0 0 0 4200
2019/10/31 12:09:00 BASE 28.94 27 37.19 23 3.3 100 3.3 136 0 980.1 NA 0.0000 -SN BR 2800 0 0 0 4230
2019/10/31 12:10:00 BASE 28.55 28 37.19 23 3.3 100 3.3 138 0 980.2 NA 0.0000 -SN BR 4400 0 0 0 3940
2019/10/31 12:11:00 BASE 29.31 27 37.19 23 3.3 100 3.3 143 0 980.0 NA 0.0000 -SN BR 4900 0 0 0 3670
2019/10/31 12:12:00 BASE 30.97 27 34.83 29 3.3 100 3.3 153 0 980.0 NA 0.0000 -SN BR 3000 0 0 0 3640
2019/10/31 12:13:00 BASE 31.47 25 35.24 24 3.4 100 3.3 162 0 980.0 NA 0.0000 -SN BR 2700 0 0 0 3580
2019/10/31 12:14:00 BASE 30.49 24 35.24 24 3.4 100 3.4 164 0 980.1 NA 0.0000 -SN BR 2100 430 0 0 0
2019/10/31 12:15:00 BASE 29.93 25 36.63 25 3.4 100 3.4 166 0 980.1 NA 0.2540 -SN BR 2200 390 0 0 0
2019/10/31 12:16:00 BASE 29.71 27 36.63 25 3.4 100 3.4 168 0 980.2 NA 0.0000 -SN BR 3000 430 0 0 0
2019/10/31 12:17:00 BASE 29.01 25 36.63 25 3.4 100 3.4 168 0 980.2 NA 0.0000 -SN BR 2700 0 0 0 4170
2019/10/31 12:18:00 BASE 29.72 24 36.63 25 3.4 100 3.4 170 0 980.1 NA 0.0000 -SN BR 2200 0 0 0 3810
2019/10/31 12:19:00 BASE 30.98 24 36.63 25 3.4 100 3.4 180 0 980.0 NA 0.0000 BR 3100 360 0 0 0
2019/10/31 12:20:00 BASE 29.58 25 36.63 25 3.4 100 3.4 192 0 980.2 NA 0.0000 BR 2300 0 0 0 3510
2019/10/31 12:21:00 BASE 27.27 26 36.63 25 3.4 100 3.4 205 0 980.2 NA 0.2540 BR 2800 0 0 0 4460
2019/10/31 12:22:00 BASE 27.30 27 36.63 25 3.4 100 3.4 221 0 980.1 NA 0.0000 BR 4600 0 0 0 4230
2019/10/31 12:23:00 BASE 27.58 29 36.63 25 3.4 100 3.4 221 0 980.1 NA 0.0000 BR 5000 0 0 0 4890
2019/10/31 12:24:00 BASE 28.24 29 36.63 25 3.4 100 3.4 211 0 980.0 NA 0.0000 BR 5000 0 0 0 6000
2019/10/31 12:25:00 BASE 28.82 29 35.70 14 3.4 100 3.4 202 0 980.0 NA 0.0000 BR 3300 0 0 0 5740
2019/10/31 12:26:00 BASE 29.32 26 35.70 14 3.4 100 3.4 193 0 979.9 NA 0.0000 BR 2800 0 0 0 4590
2019/10/31 12:27:00 BASE 31.59 25 36.58 26 3.4 100 3.4 187 0 979.9 NA 0.0000 BR 2800 0 0 0 4200
2019/10/31 12:28:00 BASE 31.69 27 36.58 26 3.4 100 3.4 181 0 980.0 NA 0.0000 BR 2000 0 0 0 4300
2019/10/31 12:29:00 BASE 32.58 25 36.94 26 3.4 100 3.4 176 0 979.8 NA 0.0000 BR 2100 360 0 0 0
2019/10/31 12:30:00 BASE 34.43 23 37.61 22 3.4 100 3.4 175 0 979.9 NA 0.2540 BR 2200 360 0 0 0
2019/10/31 12:31:00 BASE 32.87 25 37.61 22 3.4 100 3.4 173 0 980.0 NA 0.0000 BR 2100 360 0 0 0
2019/10/31 12:32:00 BASE 32.10 23 37.61 22 3.4 100 3.4 170 0 980.0 NA 0.0000 BR 2100 360 0 0 0
2019/10/31 12:33:00 BASE 31.83 20 37.61 22 3.3 100 3.3 167 0 980.1 NA 0.0000 BR 2100 330 0 0 0
2019/10/31 12:34:00 BASE 31.29 21 37.61 22 3.3 100 3.3 165 0 980.1 NA 0.0000 BR 2500 330 0 0 0
2019/10/31 12:35:00 BASE 30.82 24 37.61 22 3.3 100 3.3 163 0 980.2 NA 0.0000 -SN BR 2000 330 0 0 0
2019/10/31 12:36:00 BASE 29.96 24 37.61 22 3.2 100 3.2 165 0 980.2 NA 0.0000 -SN BR 1900 300 0 0 0
2019/10/31 12:37:00 BASE 29.69 21 37.61 22 3.2 100 3.2 166 0 980.2 NA 0.2540 -SN BR 2300 260 0 0 0
2019/10/31 12:38:00 BASE 29.73 22 37.61 22 3.2 100 3.2 165 0 980.3 NA 0.0000 -SN BR 2100 260 0 0 0
2019/10/31 12:39:00 BASE 29.66 23 37.61 22 3.1 100 3.1 165 0 980.3 NA 0.0000 -SN BR 2300 300 0 0 0
2019/10/31 12:40:00 BASE 28.95 22 36.47 24 3.1 100 3.1 166 0 980.3 NA 0.0000 -SN BR 2300 300 0 0 0
2019/10/31 12:41:00 BASE 28.81 22 36.47 24 3.1 100 3.1 169 0 980.3 NA 0.0000 -SN BR 2600 330 0 0 0
2019/10/31 12:42:00 BASE 29.42 22 34.21 22 3.1 100 3.1 168 0 980.3 NA 0.2540 -SN BR 2300 300 1710 0 0
2019/10/31 12:43:00 BASE 28.72 21 34.21 22 3.1 100 3.1 162 0 980.3 NA 0.0000 -SN BR 2400 330 0 0 0
2019/10/31 12:44:00 BASE 28.45 21 34.21 22 3.1 100 3.1 153 0 980.4 NA 0.0000 -SN BR 2400 330 1510 0 0
2019/10/31 12:45:00 BASE 29.15 22 34.21 22 3.1 100 3.1 150 0 980.3 NA 0.0000 -SN BR 2200 330 1510 0 0
2019/10/31 12:46:00 BASE 27.78 22 34.21 22 3.1 100 3.1 146 0 980.5 NA 0.0000 -SN BR 2500 360 0 0 0
2019/10/31 12:47:00 BASE 27.27 20 33.13 31 3.1 100 3.1 137 0 980.3 NA 0.0000 -SN BR 2700 0 0 0 2950
2019/10/31 12:48:00 BASE 27.69 21 32.67 19 3.1 100 3.1 130 0 980.4 NA 0.2540 -SN BR 2900 0 0 0 3120
2019/10/31 12:49:00 BASE 27.66 22 32.41 15 3.1 100 3.1 128 0 980.3 NA 0.0000 -SN BR 2700 360 0 0 0
2019/10/31 12:50:00 BASE 27.50 21 32.41 15 3.0 100 3.0 124 0 980.5 NA 0.0000 -SN BR 2100 390 0 0 0
2019/10/31 12:51:00 BASE 26.70 23 32.41 15 3.0 100 3.0 123 0 980.5 NA 0.0000 -SN BR 2600 360 0 0 0
2019/10/31 12:52:00 BASE 25.67 25 31.54 22 3.1 100 3.1 123 0 980.5 NA 0.0000 -SN BR 2100 390 0 0 0
2019/10/31 12:53:00 BASE 25.63 26 31.54 22 3.1 100 3.1 126 0 980.5 NA 0.2540 -SN BR 2100 360 22310 0 0
2019/10/31 12:54:00 BASE 26.50 27 31.54 22 3.1 100 3.1 126 0 980.5 NA 0.0000 -SN BR 2200 390 0 0 0
2019/10/31 12:55:00 BASE 26.45 27 31.54 22 3.1 100 3.1 126 0 980.5 NA 0.0000 -SN BR 2200 360 0 0 0
2019/10/31 12:56:00 BASE 25.88 25 31.54 22 3.1 100 3.1 127 0 980.6 NA 0.0000 -SN BR 1900 390 0 0 0
2019/10/31 12:57:00 BASE 26.93 25 32.41 34 3.1 100 3.1 126 0 980.5 NA 0.0000 -SN BR 1900 360 0 0 0
2019/10/31 12:58:00 BASE 27.51 25 32.41 34 3.2 100 3.2 124 0 980.5 NA 0.0000 -SN BR 1800 330 0 0 0
2019/10/31 12:59:00 BASE 27.01 24 32.41 34 3.2 100 3.2 120 0 980.5 NA 0.2540 -SN BR 2100 330 0 0 0
2019/10/31 13:00:00 BASE 27.85 23 32.41 34 3.2 100 3.2 118 0 980.5 NA 0.0000 -SN BR 2300 360 0 0 0
2019/10/31 13:01:00 BASE 27.93 21 32.41 34 3.3 100 3.3 120 0 980.5 NA 0.0000 -SN BR 2300 360 0 0 0
2019/10/31 13:02:00 BASE 27.34 21 32.41 34 3.3 100 3.3 121 0 980.6 NA 0.0000 -SN BR 2400 330 0 0 0
2019/10/31 13:03:00 BASE 26.25 22 32.41 34 3.3 100 3.3 124 0 980.6 NA 0.0000 -SN BR 3100 330 0 0 0
2019/10/31 13:04:00 BASE 25.13 23 32.41 34 3.3 100 3.3 129 0 980.7 NA 0.2540 -SN BR 2900 360 0 0 0
2019/10/31 13:05:00 BASE 25.32 24 32.41 34 3.3 100 3.3 135 0 980.6 NA 0.0000 -SN BR 3300 390 0 0 0
2019/10/31 13:06:00 BASE 26.57 23 32.41 34 3.3 100 3.3 135 0 980.7 NA 0.0000 -SN BR 2300 360 0 0 0
2019/10/31 13:07:00 BASE 27.11 22 32.00 22 3.3 100 3.3 133 0 980.7 NA 0.0000 -SN BR 2200 390 0 0 0
2019/10/31 13:08:00 BASE 25.94 22 32.00 22 3.3 100 3.3 131 0 980.8 NA 0.0000 -SN BR 2400 360 0 0 0
2019/10/31 13:09:00 BASE 25.08 23 32.00 22 3.4 100 3.4 132 0 980.9 NA 0.0000 -SN BR 2700 390 0 0 0
2019/10/31 13:10:00 BASE 23.69 23 32.00 22 3.4 100 3.4 138 0 980.9 NA 0.2540 -SN BR 3000 360 0 0 0
2019/10/31 13:11:00 BASE 22.14 23 32.00 22 3.4 100 3.4 141 0 980.9 NA 0.0000 -SN BR 3200 360 0 0 0
2019/10/31 13:12:00 BASE 22.48 26 32.00 22 3.4 100 3.4 142 0 980.9 NA 0.0000 -SN BR 2500 360 0 0 0
2019/10/31 13:13:00 BASE 22.67 24 32.00 22 3.4 100 3.4 135 0 980.9 NA 0.0000 -SN BR 2300 330 0 0 0
2019/10/31 13:14:00 BASE 24.35 22 32.56 20 3.4 100 3.4 131 0 980.8 NA 0.0000 -SN BR 2500 360 0 0 0
2019/10/31 13:15:00 BASE 27.50 19 32.56 20 3.4 100 3.4 132 0 980.6 NA 0.2540 -SN BR 2200 330 0 0 0
2019/10/31 13:16:00 BASE 28.17 15 32.62 10 3.3 100 3.3 135 0 980.7 NA 0.0000 -SN BR 2100 330 1250 0 0
2019/10/31 13:17:00 BASE 26.74 11 32.62 10 3.2 100 3.2 143 0 980.7 NA 0.0000 -SN BR 2100 330 0 0 0
2019/10/31 13:18:00 BASE 25.70 12 32.62 10 3.1 100 3.1 148 0 980.7 NA 0.0000 -SN BR 2500 330 23300 0 0
2019/10/31 13:19:00 BASE 24.42 15 32.62 10 3.0 100 3.0 153 0 980.8 NA 0.2540 -SN BR 2500 330 1380 0 0
2019/10/31 13:20:00 BASE 23.91 19 32.62 10 2.9 100 2.9 156 0 980.7 NA 0.0000 -SN BR 2500 330 0 0 0
2019/10/31 13:21:01 BASE 24.99 21 32.62 10 2.8 100 2.8 160 0 980.7 NA 0.0000 -SN BR 3000 330 0 0 0
2019/10/31 13:22:00 BASE 26.26 20 32.62 10 2.8 100 2.8 163 0 980.5 NA 0.0000 -SN BR 3700 330 0 0 0
2019/10/31 13:23:00 BASE 27.59 22 32.62 10 2.8 100 2.8 166 0 980.5 NA 0.0000 -SN BR 3500 300 0 0 0
2019/10/31 13:24:01 BASE 28.07 24 32.62 10 2.8 100 2.8 169 0 980.5 NA 0.0000 -SN BR 2300 300 0 0 0
2019/10/31 13:25:00 BASE 29.16 24 35.50 25 2.7 100 2.7 167 0 980.3 NA 0.0000 -SN BR 2200 330 0 0 0
2019/10/31 13:26:00 BASE 28.98 23 35.50 25 2.7 100 2.7 162 0 980.6 NA 0.2540 -SN BR 2500 330 0 0 0
2019/10/31 13:27:00 BASE 28.03 22 35.50 25 2.6 100 2.6 160 0 980.5 NA 0.0000 -SN BR 3100 330 0 0 0
2019/10/31 13:28:00 BASE 28.93 22 35.50 25 2.6 100 2.6 156 0 980.4 NA 0.0000 -SN BR 3200 330 0 0 0
2019/10/31 13:29:00 BASE 29.52 20 35.50 25 2.5 100 2.5 153 0 980.4 NA 0.0000 -SN BR 3200 330 0 0 0
2019/10/31 13:30:00 BASE 30.76 19 35.50 25 2.5 100 2.5 149 0 980.3 NA 0.0000 -SN BR 2700 330 23300 0 0
2019/10/31 13:31:00 BASE 30.12 19 35.50 25 2.5 100 2.5 147 0 980.4 NA 0.0000 -SN BR 3000 330 0 0 0
2019/10/31 13:32:00 BASE 29.61 18 35.50 25 2.5 100 2.5 145 0 980.3 NA 0.0000 -SN BR 3500 330 0 0 0
2019/10/31 13:33:00 BASE 31.19 18 35.50 25 2.4 100 2.4 146 0 980.3 NA 0.0000 -SN BR 2900 330 0 0 0
2019/10/31 13:34:00 BASE 30.91 19 35.50 25 2.4 100 2.4 147 0 980.4 NA 0.0000 -SN BR 2400 330 0 0 0
2019/10/31 13:35:00 BASE 30.68 18 34.98 20 2.4 100 2.4 149 0 980.3 NA 0.2540 -SN BR 2500 300 0 0 0
2019/10/31 13:36:00 BASE 30.50 19 34.98 20 2.4 100 2.4 155 0 980.4 NA 0.0000 -SN BR 2400 300 0 0 0
2019/10/31 13:37:00 BASE 30.68 19 36.01 17 2.4 100 2.4 158 0 980.3 NA 0.0000 -SN BR 2300 330 0 0 0
2019/10/31 13:38:00 BASE 31.95 19 36.73 19 2.4 100 2.4 160 0 980.3 NA 0.0000 -SN BR 2300 300 0 0 0
2019/10/31 13:39:00 BASE 32.12 19 36.73 19 2.4 100 2.4 161 0 980.3 NA 0.0000 -SN BR 2100 300 23130 0 0
2019/10/31 13:40:00 BASE 30.99 19 36.73 19 2.3 100 2.3 162 0 980.4 NA 0.0000 -SN BR 2300 300 23230 0 0
2019/10/31 13:41:00 BASE 30.01 20 36.73 19 2.3 100 2.3 163 0 980.5 NA 0.0000 -SN BR 2400 300 23430 0 0
2019/10/31 13:42:00 BASE 29.70 18 36.73 19 2.3 100 2.3 167 0 980.4 NA 0.2540 -SN BR 2400 330 0 0 0
2019/10/31 13:43:00 BASE 29.53 17 36.73 19 2.3 100 2.3 168 0 980.4 NA 0.0000 -SN BR 2500 620 0 0 0
2019/10/31 13:44:00 BASE 30.14 18 36.73 19 2.3 100 2.3 169 0 980.4 NA 0.0000 -SN BR 2900 360 0 0 0
2019/10/31 13:45:00 BASE 31.37 19 36.73 19 2.3 100 2.3 166 0 980.3 NA 0.0000 -SN BR 2900 330 0 0 0
2019/10/31 13:46:00 BASE 30.46 19 36.73 19 2.3 100 2.3 162 0 980.4 NA 0.0000 -SN BR 2600 330 0 0 0
2019/10/31 13:47:00 BASE 29.66 17 36.73 19 2.3 100 2.3 158 0 980.4 NA 0.0000 -SN BR 2600 330 0 0 0
2019/10/31 13:48:00 BASE 30.22 18 35.50 23 2.3 100 2.3 151 0 980.4 NA 0.0000 -SN BR 2700 330 0 0 0
2019/10/31 13:49:00 BASE 29.25 18 35.50 23 2.3 100 2.3 147 0 980.4 NA 0.0000 -SN BR 2800 330 0 0 0
2019/10/31 13:50:00 BASE 28.91 17 35.50 23 2.3 100 2.3 143 0 980.3 NA 0.0000 -SN BR 2800 330 1020 0 0
2019/10/31 13:51:00 BASE 30.09 19 35.50 23 2.3 100 2.3 140 0 980.4 NA 0.2540 -SN BR 3100 330 1050 0 0
2019/10/31 13:52:00 BASE 31.03 20 35.50 23 2.3 100 2.3 136 0 980.4 NA 0.0000 -SN BR 2600 330 0 0 0
2019/10/31 13:53:00 BASE 31.39 19 35.50 23 2.3 100 2.3 134 0 980.2 NA 0.0000 -SN BR 2600 22180 0 0 0
2019/10/31 13:54:00 BASE 32.27 20 35.50 23 2.2 100 2.2 131 0 980.2 NA 0.0000 -SN BR 2600 0 0 0 2430
2019/10/31 13:55:00 BASE 33.08 20 36.58 23 2.2 100 2.2 128 0 980.2 NA 0.0000 -SN BR 2500 330 0 0 0
2019/10/31 13:56:00 BASE 32.12 21 36.58 23 2.2 100 2.2 125 0 980.2 NA 0.0000 -SN BR 2100 0 0 0 2590
2019/10/31 13:57:00 BASE 31.19 22 36.58 23 2.2 100 2.2 122 0 980.3 NA 0.0000 -SN BR 2000 0 0 0 2490
2019/10/31 13:58:00 BASE 30.82 19 36.58 23 2.2 100 2.2 120 0 980.3 NA 0.0000 -SN BR 2100 0 0 0 2620
2019/10/31 13:59:00 BASE 31.03 19 36.58 23 2.1 100 2.1 119 0 980.3 NA 0.2540 -SN BR 2600 0 0 0 2890
2019/10/31 14:00:00 BASE 32.37 20 36.58 23 2.1 100 2.1 118 0 980.2 NA 0.0000 -SN BR 2100 0 0 0 2430
2019/10/31 14:01:00 BASE 32.94 20 36.58 23 2.1 100 2.1 116 0 980.2 NA 0.0000 -SN BR 2300 0 0 0 2490
2019/10/31 14:02:00 BASE 31.49 20 36.58 23 2.1 100 2.1 116 0 980.4 NA 0.0000 -SN BR 2500 0 0 0 2620
2019/10/31 14:03:00 BASE 30.53 22 36.58 23 2.1 100 2.1 113 0 980.3 NA 0.0000 -SN BR 3000 360 0 0 0
2019/10/31 14:04:00 BASE 30.13 23 36.58 23 2.1 100 2.1 111 0 980.4 NA 0.0000 -SN BR 3000 0 0 0 2460
2019/10/31 14:05:00 BASE 29.90 23 35.60 25 2.1 100 2.1 106 0 980.3 NA 0.0000 -SN BR 2900 390 0 0 0
2019/10/31 14:06:00 BASE 30.60 22 35.45 22 2.1 100 2.1 102 0 980.2 NA 0.0000 -SN BR 2500 360 0 0 0
2019/10/31 14:07:00 BASE 30.91 22 36.17 16 2.1 100 2.1 99 0 980.3 NA 0.2540 -SN BR 2700 0 0 0 2400
2019/10/31 14:08:00 BASE 30.48 24 36.17 16 2.1 100 2.1 99 0 980.3 NA 0.0000 -SN BR 2100 360 0 0 0
2019/10/31 14:09:00 BASE 29.87 23 36.17 16 2.1 100 2.1 93 0 980.3 NA 0.0000 -SN BR 2100 0 0 0 2660
2019/10/31 14:10:00 BASE 28.77 25 36.17 16 2.1 100 2.1 90 0 980.4 NA 0.0000 -SN BR 2100 0 0 0 2460
2019/10/31 14:11:00 BASE 28.17 28 36.17 16 2.1 100 2.1 91 0 980.3 NA 0.0000 -SN BR 2200 360 0 0 0
2019/10/31 14:12:00 BASE 28.15 29 36.17 16 2.0 100 2.0 93 0 980.5 NA 0.2540 -SN BR 1800 360 0 0 0
2019/10/31 14:13:00 BASE 29.97 31 37.86 30 2.0 100 2.0 97 0 980.3 NA 0.0000 -SN BR 1500 360 0 0 0
2019/10/31 14:14:00 BASE 31.09 32 37.86 30 2.0 100 2.0 105 0 980.3 NA 0.0000 -SN BR 1400 360 0 0 0
2019/10/31 14:15:00 BASE 29.52 31 37.86 30 2.0 100 2.0 112 0 980.4 NA 0.0000 -SN BR 1600 360 0 0 0
2019/10/31 14:16:00 BASE 28.82 30 37.86 30 2.0 100 2.0 117 0 980.5 NA 0.2540 -SN BR 1400 360 0 0 0
2019/10/31 14:17:00 BASE 28.11 32 37.86 30 2.0 100 2.0 117 0 980.5 NA 0.0000 -SN BR 1600 330 0 0 0
2019/10/31 14:18:00 BASE 27.66 32 37.86 30 2.0 100 2.0 120 0 980.5 NA 0.0000 -SN BR 1400 330 0 0 0
2019/10/31 14:19:00 BASE 27.88 31 37.86 30 2.0 100 2.0 121 0 980.4 NA 0.2540 -SN BR 1200 330 0 0 0
2019/10/31 14:20:00 BASE 27.47 31 37.86 30 2.0 100 2.0 121 0 980.5 NA 0.0000 -SN BR 1500 360 0 0 0
2019/10/31 14:21:00 BASE 28.12 31 37.86 30 2.0 100 2.0 120 0 980.5 NA 0.0000 -SN BR 1800 590 0 0 0
2019/10/31 14:22:00 BASE 29.47 30 37.86 30 2.0 100 2.0 119 0 980.4 NA 0.0000 -SN BR 2000 690 0 0 0
2019/10/31 14:23:00 BASE 29.69 29 33.95 41 2.0 100 2.0 121 0 980.5 NA 0.0000 -SN BR 2200 620 0 0 0
2019/10/31 14:24:00 BASE 28.39 29 33.54 35 2.0 100 2.0 126 0 980.5 NA 0.0000 -SN BR 2900 620 0 0 0
2019/10/31 14:25:00 BASE 27.39 30 33.54 35 2.0 100 2.0 130 0 980.5 NA 0.0000 -SN BR 2100 620 0 0 0
2019/10/31 14:26:00 BASE 28.28 31 33.54 35 2.0 100 2.0 136 0 980.4 NA 0.2540 -SN BR 2100 560 0 0 0
2019/10/31 14:27:00 BASE 29.36 31 33.54 35 2.0 100 2.0 142 0 980.4 NA 0.0000 -SN BR 2100 520 0 0 0
2019/10/31 14:28:01 BASE 29.44 30 33.54 35 2.0 100 2.0 146 0 980.4 NA 0.0000 -SN BR 2200 430 0 0 0
2019/10/31 14:29:00 BASE 27.75 29 33.54 35 2.0 100 2.0 146 0 980.5 NA 0.0000 -SN BR 2300 660 1280 0 0
2019/10/31 14:30:00 BASE 26.47 29 33.54 35 2.0 100 2.0 146 0 980.5 NA 0.0000 -SN BR 2700 620 0 0 0
2019/10/31 14:31:00 BASE 27.25 30 33.54 35 2.0 100 2.0 149 0 980.4 NA 0.0000 -SN BR 4500 590 0 0 0
2019/10/31 14:32:00 BASE 27.21 30 33.54 35 2.0 100 2.0 149 0 980.4 NA 0.0000 -SN BR 2600 390 0 0 0
2019/10/31 14:33:00 BASE 26.64 28 33.34 35 2.0 100 2.0 148 0 980.4 NA 0.0000 -SN BR 2500 390 0 0 0
2019/10/31 14:34:00 BASE 26.62 27 33.34 35 2.0 100 2.0 147 0 980.5 NA 0.0000 -SN BR 2800 1120 0 0 0
2019/10/31 14:35:00 BASE 25.98 28 33.34 35 2.0 100 2.0 146 0 980.4 NA 0.2540 -SN BR 2200 1150 0 0 0
2019/10/31 14:36:00 BASE 26.36 31 33.34 35 2.0 100 2.0 149 0 980.4 NA 0.0000 -SN BR 2200 1050 0 0 0
2019/10/31 14:37:00 BASE 26.56 31 33.13 35 2.0 100 2.0 150 0 980.4 NA 0.0000 -SN BR 2200 620 0 0 0
2019/10/31 14:38:00 BASE 26.92 29 33.13 35 2.0 100 2.0 153 0 980.3 NA 0.0000 -SN BR 2100 590 0 0 0
2019/10/31 14:39:00 BASE 27.56 30 33.13 35 2.0 100 2.0 154 0 980.3 NA 0.0000 -SN BR 2300 660 2230 0 0
2019/10/31 14:40:00 BASE 27.38 31 33.13 35 2.0 100 2.0 157 0 980.3 NA 0.0000 -SN BR 2300 890 0 0 0
2019/10/31 14:41:00 BASE 26.62 31 33.13 35 2.0 100 2.0 159 0 980.3 NA 0.0000 -SN BR 2700 620 0 0 0
2019/10/31 14:42:00 BASE 26.46 32 33.13 35 2.0 100 2.0 156 0 980.3 NA 0.0000 -SN BR 6000 0 0 0 4690
2019/10/31 14:43:00 BASE 26.21 31 33.13 35 2.0 100 2.0 153 0 980.4 NA 0.0000 -SN BR 5000 720 0 0 0
2019/10/31 14:44:00 BASE 25.99 30 33.13 35 2.0 100 2.0 149 0 980.3 NA 0.0000 -SN BR 4100 720 0 0 0
2019/10/31 14:45:00 BASE 26.37 33 33.13 35 2.0 100 2.0 145 0 980.3 NA 0.0000 -SN BR 2700 720 21360 0 0
2019/10/31 14:46:00 BASE 26.57 34 32.72 28 2.1 100 2.1 143 0 980.2 NA 0.0000 -SN BR 5000 0 0 0 4630
2019/10/31 14:47:00 BASE 27.09 31 32.72 28 2.1 100 2.1 140 0 980.3 NA 0.0000 -SN BR 3000 0 0 0 4630
2019/10/31 14:48:00 BASE 27.61 31 32.72 28 2.1 100 2.1 137 0 980.2 NA 0.2540 -SN BR 5000 0 0 0 4720
2019/10/31 14:49:00 BASE 27.47 31 32.72 28 2.1 100 2.1 136 0 980.2 NA 0.0000 -SN BR 4600 720 0 0 0
2019/10/31 14:50:00 BASE 27.97 32 32.10 27 2.1 100 2.1 136 0 980.2 NA 0.0000 -SN BR 2100 0 0 0 4270
2019/10/31 14:51:00 BASE 28.11 32 32.36 26 2.1 100 2.1 136 0 980.2 NA 0.0000 -SN BR 2200 560 0 0 0
2019/10/31 14:52:00 BASE 27.46 30 32.36 26 2.1 100 2.1 138 0 980.2 NA 0.0000 -SN BR 2600 750 0 0 0
2019/10/31 14:53:00 BASE 27.17 30 32.36 26 2.1 100 2.1 139 0 980.2 NA 0.0000 -SN BR 3000 790 0 0 0
2019/10/31 14:54:00 BASE 26.60 30 32.36 26 2.1 100 2.1 140 0 980.3 NA 0.0000 -SN BR 4500 0 0 0 4790
2019/10/31 14:55:00 BASE 25.58 30 32.36 26 2.0 100 2.0 141 0 980.3 NA 0.0000 -SN BR 9999 0 0 0 4760
2019/10/31 14:56:00 BASE 25.86 31 32.36 26 2.0 100 2.0 144 0 980.2 NA 0.0000 -SN BR 9999 0 0 0 4820
2019/10/31 14:57:00 BASE 27.39 32 32.36 26 2.0 100 2.0 146 0 980.2 NA 0.0000 -SN BR 9000 0 0 0 4860
2019/10/31 14:58:00 BASE 27.76 30 32.36 26 2.0 100 2.0 146 0 980.2 NA 0.0000 -SN BR 8000 0 0 0 4890
2019/10/31 14:59:00 BASE 27.41 30 32.36 26 2.1 100 2.1 148 0 980.3 NA 0.0000 -SN BR 9999 0 0 0 4100
2019/10/31 15:00:00 BASE 26.99 32 32.36 26 2.1 100 2.1 149 0 980.2 NA 0.0000 -SN BR 9999 0 0 0 4130
2019/10/31 15:01:00 BASE 27.86 32 33.95 26 2.1 100 2.1 152 0 980.2 NA 0.0000 -SN BR 7000 0 0 0 4860
2019/10/31 15:02:00 BASE 28.00 32 33.95 26 2.1 100 2.1 155 0 980.3 NA 0.0000 -SN BR 4300 0 0 0 4560
2019/10/31 15:03:00 BASE 28.25 32 33.95 26 2.1 100 2.1 158 0 980.2 NA 0.0000 -SN BR 9999 0 0 0 4990
2019/10/31 15:04:00 BASE 28.25 30 33.95 26 2.1 100 2.1 163 0 980.3 NA 0.0000 -SN BR 9999 0 0 0 4950
2019/10/31 15:05:00 BASE 26.75 30 33.95 26 2.1 100 2.1 167 0 980.2 NA 0.0000 -SN BR 8000 0 0 0 5220
2019/10/31 15:06:00 BASE 26.47 30 33.95 26 2.1 100 2.1 172 0 980.3 NA 0.0000 -SN BR 4400 24310 0 0 0
2019/10/31 15:07:00 BASE 27.53 30 33.95 26 2.1 100 2.1 179 0 980.2 NA 0.0000 -SN BR 7000 0 0 0 5090
2019/10/31 15:08:00 BASE 28.13 29 33.95 26 2.1 100 2.1 187 0 980.1 NA 0.0000 -SN BR 9999 0 0 0 5090
2019/10/31 15:09:00 BASE 27.33 27 33.95 26 2.1 100 2.1 195 0 980.3 NA 0.0000 -SN BR 8000 0 0 0 4990
2019/10/31 15:10:00 BASE 27.46 27 33.95 26 2.0 100 2.0 205 0 980.2 NA 0.0000 -SN BR 8000 3940 0 0 0
2019/10/31 15:11:00 BASE 27.83 28 33.13 28 2.0 100 2.0 217 0 980.3 NA 0.0000 -SN BR 5000 3870 0 0 0
2019/10/31 15:12:00 BASE 25.96 27 33.13 28 2.0 100 2.0 228 0 980.5 NA 0.0000 -SN BR 6000 0 0 0 4920
2019/10/31 15:13:00 BASE 25.92 26 34.16 30 2.0 100 2.0 250 0 980.3 NA 0.0000 -SN BR 8000 0 0 0 4790
2019/10/31 15:14:00 BASE 27.00 27 34.16 30 2.0 100 2.0 266 0 980.3 NA 0.0000 -SN BR 7000 0 0 0 4460
2019/10/31 15:15:00 BASE 27.46 27 34.16 30 2.0 100 2.0 285 0 980.2 NA 0.0000 -SN BR 8000 0 0 0 3940
2019/10/31 15:16:00 BASE 27.94 27 34.16 30 2.0 100 2.0 303 0 980.2 NA 0.0000 -SN BR 9999 0 0 0 4230
2019/10/31 15:17:00 BASE 28.18 30 34.16 30 2.1 100 2.1 342 0 980.2 NA 0.0000 -SN BR 9000 0 0 0 4820
2019/10/31 15:18:00 BASE 28.11 32 34.16 30 2.1 100 2.1 373 0 980.2 NA 0.0000 -SN BR 9000 0 0 0 4760
2019/10/31 15:19:00 BASE 28.37 29 34.16 30 2.1 100 2.1 464 0 980.1 NA 0.0000 -SN BR 9000 0 0 0 4200
2019/10/31 15:20:00 BASE 29.14 31 34.16 30 2.1 100 2.1 501 0 980.2 NA 0.0000 -SN BR 9000 0 0 0 6070
2019/10/31 15:21:00 BASE 28.11 33 34.16 30 2.1 100 2.1 491 0 980.2 NA 0.0000 -SN BR 9999 0 0 0 6330
2019/10/31 15:22:00 BASE 27.80 33 34.16 30 2.1 100 2.1 514 0 980.1 NA 0.0000 -SN BR 7000 0 0 0 6560
2019/10/31 15:23:00 BASE 29.61 34 33.90 38 2.1 100 2.1 506 0 980.1 NA 0.0000 -SN BR 4200 6100 0 0 0
2019/10/31 15:24:00 BASE 30.76 35 33.90 38 2.2 100 2.2 447 0 980.1 NA 0.0000 -SN BR 4300 0 0 0 1570
2019/10/31 15:25:00 BASE 29.13 33 33.90 38 2.2 100 2.2 482 0 980.2 NA 0.0000 -SN BR 9999 4950 0 0 0
2019/10/31 15:26:00 BASE 28.08 32 33.90 38 2.2 100 2.2 449 0 980.2 NA 0.0000 -SN BR 9999 4820 0 0 0
2019/10/31 15:27:00 BASE 27.97 32 33.90 38 2.2 100 2.2 514 0 980.2 NA 0.0000 -SN BR 9999 4720 0 0 0
2019/10/31 15:28:00 BASE 27.95 30 33.90 38 2.2 100 2.2 448 0 980.2 NA 0.0000 -SN BR 9999 4790 0 0 0
2019/10/31 15:29:00 BASE 28.25 31 33.90 38 2.2 100 2.2 392 0 980.2 NA 0.0000 -SN BR 9999 4820 0 0 0
2019/10/31 15:30:00 BASE 30.25 34 35.03 37 2.2 100 2.2 361 0 980.0 NA 0.0000 -SN BR 9999 5320 5710 0 0
2019/10/31 15:31:00 BASE 32.02 34 35.55 30 2.2 100 2.2 325 0 980.0 NA 0.0000 -SN BR 9999 5450 0 0 0
2019/10/31 15:32:00 BASE 29.73 32 35.55 30 2.2 100 2.2 409 0 980.2 NA 0.0000 -SN BR 9999 5180 0 0 0
2019/10/31 15:33:00 BASE 28.18 33 35.55 30 2.2 100 2.2 456 0 980.2 NA 0.0000 -SN 9999 5150 0 0 0
2019/10/31 15:34:00 BASE 27.97 35 35.55 30 2.2 100 2.2 504 0 980.2 NA 0.0000 -SN 9999 5350 0 0 0
2019/10/31 15:35:00 BASE 28.30 34 35.55 30 2.2 100 2.2 463 0 980.1 NA 0.0000 -SN 9999 5450 0 0 0
2019/10/31 15:36:01 BASE 29.12 33 35.55 30 2.2 100 2.2 622 0 980.1 NA 0.0000 -SN 9999 4990 0 0 0
2019/10/31 15:37:00 BASE 29.17 33 35.55 30 2.2 100 2.2 571 0 980.2 NA 0.0000 -SN 9999 4950 0 0 0
2019/10/31 15:38:00 BASE 28.37 33 35.55 30 2.2 100 2.2 477 0 980.2 NA 0.0000 -SN 9999 5020 5510 0 0
2019/10/31 15:39:00 BASE 28.86 34 35.55 30 2.2 100 2.2 480 0 980.1 NA 0.0000 -SN 9999 5320 0 0 0
2019/10/31 15:40:00 BASE 29.32 34 35.55 30 2.2 100 2.2 495 0 980.1 NA 0.0000 -SN 9999 5320 0 0 0
2019/10/31 15:41:00 BASE 28.71 34 33.64 43 2.2 100 2.2 481 0 980.2 NA 0.0000 -SN 9999 5380 0 0 0
2019/10/31 15:42:00 BASE 28.70 33 33.64 43 2.2 100 2.2 562 0 980.1 NA 0.0000 9999 5740 0 0 0
2019/10/31 15:43:00 BASE 28.86 33 33.64 43 2.3 100 2.3 643 0 980.1 NA 0.0000 9999 5320 5770 0 0
2019/10/31 15:44:00 BASE 28.51 34 33.64 43 2.3 100 2.3 616 0 980.1 NA 0.0000 9999 5220 5870 0 0
2019/10/31 15:45:00 BASE 26.35 31 33.64 43 2.3 100 2.3 703 0 980.2 NA 0.0000 9999 4990 0 0 0
2019/10/31 15:46:00 BASE 26.44 30 33.08 34 2.4 100 2.4 538 0 980.1 NA 0.0000 9999 4950 0 0 0
2019/10/31 15:47:00 BASE 26.63 32 33.08 34 2.4 100 2.4 406 0 980.2 NA 0.0000 9999 5250 0 0 0
2019/10/31 15:48:00 BASE 26.31 31 33.08 34 2.4 100 2.4 464 0 980.1 NA 0.0000 9999 5450 0 0 0
2019/10/31 15:49:00 BASE 25.99 30 32.77 31 2.4 100 2.4 479 0 980.1 NA 0.0000 9999 5250 0 0 0
2019/10/31 15:50:00 BASE 26.08 29 32.67 33 2.5 100 2.5 497 0 980.0 NA 0.0000 9999 5380 0 0 0
2019/10/31 15:51:00 BASE 27.80 27 32.67 33 2.5 100 2.5 753 0 979.9 NA 0.0000 9999 5640 0 0 0
2019/10/31 15:52:00 BASE 28.66 28 32.15 37 2.5 100 2.5 528 0 979.9 NA 0.0000 9999 5510 0 0 0
2019/10/31 15:53:00 BASE 29.40 26 31.90 21 2.5 100 2.5 405 0 979.9 NA 0.0000 9999 5410 21290 0 0
2019/10/31 15:54:00 BASE 28.11 25 31.90 21 2.6 100 2.6 390 0 979.9 NA 0.0000 9999 5410 0 0 0
2019/10/31 15:55:00 BASE 28.44 26 33.44 24 2.6 100 2.6 451 0 979.7 NA 0.0000 9999 5320 18830 0 0
2019/10/31 15:56:00 BASE 30.34 27 33.44 24 2.6 100 2.6 461 0 979.8 NA 0.0000 9999 5350 0 0 0
2019/10/31 15:57:00 BASE 30.42 28 33.54 23 2.6 100 2.6 430 0 979.8 NA 0.0000 9999 5320 0 0 0
2019/10/31 15:58:00 BASE 29.30 27 33.54 23 2.6 100 2.6 444 0 979.9 NA 0.0000 9999 5320 18210 0 0
2019/10/31 15:59:00 BASE 28.06 27 33.54 23 2.7 100 2.7 498 0 979.9 NA 0.0000 9999 5380 0 0 0
2019/10/31 16:00:00 BASE 27.85 29 33.54 23 2.7 100 2.7 553 0 979.9 NA 0.0000 9999 5450 0 0 0
2019/10/31 16:01:00 BASE 28.30 30 33.54 23 2.7 100 2.7 559 0 979.9 NA 0.0000 9999 5410 0 0 0
2019/10/31 16:02:00 BASE 28.21 30 33.54 23 2.8 100 2.8 742 0 979.9 NA 0.0000 9999 5450 0 0 0
2019/10/31 16:03:00 BASE 29.04 30 35.65 35 2.8 100 2.8 666 0 979.8 NA 0.0000 9999 5480 0 0 0
2019/10/31 16:04:00 BASE 30.09 31 35.65 35 2.9 100 2.9 514 0 979.5 NA 0.0000 9999 5480 0 0 0
2019/10/31 16:05:00 BASE 29.64 30 35.65 35 2.9 100 2.9 488 0 979.8 NA 0.0000 9999 5450 0 0 0
2019/10/31 16:06:00 BASE 29.27 27 35.65 35 3.0 100 3.0 473 0 979.9 NA 0.0000 9999 5480 20740 0 0
2019/10/31 16:07:00 BASE 30.29 27 35.65 35 3.0 100 3.0 416 0 979.8 NA 0.0000 9999 5510 0 0 0
2019/10/31 16:08:00 BASE 30.30 26 35.65 35 3.0 100 3.0 418 0 979.9 NA 0.0000 9999 5480 22250 0 0
2019/10/31 16:09:00 BASE 29.85 26 36.22 34 3.0 100 3.0 438 0 980.0 NA 0.0000 9999 5410 0 0 0
2019/10/31 16:10:00 BASE 30.75 27 36.22 34 3.0 100 3.0 556 0 979.9 NA 0.0000 9999 5480 0 0 0
2019/10/31 16:11:00 BASE 29.63 27 36.22 34 3.0 99 2.9 681 0 980.0 NA 0.0000 9999 5510 21490 0 0
2019/10/31 16:12:00 BASE 29.65 27 36.22 34 3.1 99 2.9 777 0 979.9 NA 0.0000 9999 5580 0 0 0
2019/10/31 16:13:00 BASE 30.85 28 36.22 34 3.1 98 2.8 795 0 979.9 NA 0.0000 9999 5640 0 0 0
2019/10/31 16:14:00 BASE 30.13 28 36.22 34 3.2 97 2.7 945 0 980.0 NA 0.0000 9999 5610 0 0 0
2019/10/31 16:15:00 BASE 30.08 29 36.22 34 3.2 96 2.7 926 0 980.0 NA 0.0000 9999 5740 0 0 0
2019/10/31 16:16:00 BASE 30.50 30 36.22 34 3.3 95 2.6 833 0 980.0 NA 0.0000 9999 5740 0 0 0
2019/10/31 16:17:00 BASE 30.00 28 36.22 34 3.3 94 2.5 776 0 980.2 NA 0.0000 9999 5770 0 0 0
2019/10/31 16:18:00 BASE 28.30 28 36.22 34 3.4 93 2.4 527 0 980.3 NA 0.0000 9999 5810 0 0 0
2019/10/31 16:19:00 BASE 26.97 29 34.88 27 3.4 92 2.3 687 0 980.3 NA 0.0000 9999 5770 0 0 0
2019/10/31 16:20:00 BASE 26.90 30 34.88 27 3.4 91 2.1 445 0 980.4 NA 0.0000 9999 5120 5740 0 0
2019/10/31 16:21:00 BASE 29.40 29 35.91 26 3.4 91 2.1 549 0 980.2 NA 0.0000 9999 5120 5810 0 0
2019/10/31 16:22:00 BASE 29.67 28 35.91 26 3.4 90 2.0 598 0 980.4 NA 0.0000 9999 5120 5710 0 0
2019/10/31 16:23:00 BASE 28.32 27 35.91 26 3.4 90 2.0 729 0 980.3 NA 0.0000 9999 5250 23360 0 0
2019/10/31 16:24:00 BASE 29.21 27 35.91 26 3.5 90 1.9 751 0 980.4 NA 0.0000 9999 5540 0 0 0
2019/10/31 16:25:00 BASE 30.15 28 35.91 26 3.5 89 1.9 528 0 980.4 NA 0.0000 9999 5510 0 0 0
2019/10/31 16:26:00 BASE 30.45 26 35.91 26 3.5 89 1.9 415 0 980.5 NA 0.0000 9999 5380 0 0 0
2019/10/31 16:27:00 BASE 29.98 24 35.91 26 3.5 89 1.8 426 0 980.5 NA 0.0000 9999 5450 0 0 0
2019/10/31 16:28:00 BASE 29.31 25 35.91 26 3.5 89 1.8 379 0 980.6 NA 0.0000 9999 5540 0 0 0
2019/10/31 16:29:00 BASE 28.07 26 35.91 26 3.4 89 1.7 374 0 980.6 NA 0.0000 9999 5580 0 0 0
2019/10/31 16:30:00 BASE 27.92 26 35.91 26 3.4 89 1.7 368 0 980.6 NA 0.0000 9999 5740 0 0 0
2019/10/31 16:31:00 BASE 27.05 27 34.72 19 3.3 89 1.7 424 0 980.7 NA 0.0000 9999 4890 5510 0 0
2019/10/31 16:32:00 BASE 27.43 28 34.72 19 3.3 89 1.7 514 0 980.7 NA 0.0000 9999 4920 5680 0 0
2019/10/31 16:33:00 BASE 28.82 29 34.72 19 3.3 89 1.6 484 0 980.7 NA 0.0000 9999 5050 5740 0 0
2019/10/31 16:34:00 BASE 27.62 30 34.72 19 3.2 89 1.7 432 0 980.7 NA 0.0000 9999 5050 5770 0 0
2019/10/31 16:35:00 BASE 28.00 32 34.72 19 3.2 90 1.7 399 0 980.6 NA 0.0000 9999 5840 21620 0 0
2019/10/31 16:36:01 BASE 28.98 30 34.00 29 3.2 90 1.7 405 0 980.7 NA 0.0000 9999 5250 5910 0 0
2019/10/31 16:37:00 BASE 26.54 28 33.75 32 3.2 90 1.7 390 0 980.8 NA 0.0000 9999 5280 5970 0 0
2019/10/31 16:38:00 BASE 25.62 28 33.75 32 3.2 90 1.7 442 0 980.8 NA 0.0000 9999 5940 0 0 0
2019/10/31 16:39:00 BASE 25.78 27 33.75 32 3.2 90 1.7 479 0 980.8 NA 0.0000 9999 5910 0 0 0
2019/10/31 16:40:00 BASE 25.77 28 33.75 32 3.2 90 1.7 398 0 980.8 NA 0.0000 9999 5810 0 0 0
2019/10/31 16:41:00 BASE 25.44 31 33.75 32 3.2 90 1.8 370 0 980.8 NA 0.0000 9999 5810 0 0 0
2019/10/31 16:42:00 BASE 25.34 31 33.75 32 3.2 90 1.8 375 0 980.7 NA 0.0000 9999 5810 0 0 0
2019/10/31 16:43:00 BASE 26.76 31 33.75 32 3.2 90 1.8 351 0 980.8 NA 0.0000 9999 5810 22180 0 0
2019/10/31 16:44:00 BASE 27.33 30 33.75 32 3.2 90 1.8 350 0 980.8 NA 0.0000 9999 5870 0 0 0
2019/10/31 16:45:00 BASE 27.29 29 33.34 31 3.3 90 1.8 314 0 980.8 NA 0.0000 9999 5770 0 0 0
2019/10/31 16:46:00 BASE 28.26 31 33.34 31 3.3 90 1.8 317 0 980.8 NA 0.0000 9999 5810 0 0 0
2019/10/31 16:47:00 BASE 27.23 34 33.34 31 3.3 90 1.8 343 0 980.9 NA 0.0000 9999 5740 0 0 0
2019/10/31 16:48:00 BASE 26.29 34 32.26 28 3.3 90 1.8 384 0 980.9 NA 0.0000 9999 5680 0 0 0
2019/10/31 16:49:00 BASE 26.84 32 32.26 28 3.3 90 1.9 359 0 980.9 NA 0.0000 9999 5680 0 0 0
2019/10/31 16:50:00 BASE 26.44 32 32.26 28 3.4 90 1.9 342 0 980.9 NA 0.0000 9999 5740 0 0 0
2019/10/31 16:51:00 BASE 27.04 34 32.26 28 3.4 90 1.9 332 0 980.7 NA 0.0000 9999 5770 0 0 0
2019/10/31 16:52:00 BASE 26.19 34 32.26 28 3.4 90 1.9 376 0 981.0 NA 0.0000 9999 5680 0 0 0
2019/10/31 16:53:00 BASE 24.60 32 32.26 28 3.4 90 1.9 370 0 980.9 NA 0.0000 9999 5510 0 0 0
2019/10/31 16:54:00 BASE 25.48 32 32.00 25 3.4 90 1.9 356 0 980.9 NA 0.0000 9999 5450 0 0 0
2019/10/31 16:55:00 BASE 27.09 34 32.00 25 3.4 90 1.9 443 0 980.9 NA 0.0000 9999 5480 20150 0 0
2019/10/31 16:56:00 BASE 27.05 34 32.00 25 3.4 90 1.9 330 0 980.9 NA 0.0000 9999 5450 5870 0 0
2019/10/31 16:57:00 BASE 26.67 33 32.56 27 3.4 89 1.8 311 0 980.9 NA 0.0000 9999 5510 0 0 0
2019/10/31 16:58:00 BASE 26.45 34 32.56 27 3.4 89 1.9 306 0 980.9 NA 0.0000 9999 5540 0 0 0
2019/10/31 16:59:00 BASE 26.25 35 32.56 27 3.5 89 1.8 312 0 980.9 NA 0.0000 9999 5680 0 0 0
2019/10/31 17:00:00 BASE 27.64 35 32.56 27 3.5 89 1.8 310 0 980.8 NA 0.0000 9999 5250 5810 0 0
2019/10/31 17:01:00 BASE 27.67 36 32.56 27 3.5 89 1.8 308 0 980.9 NA 0.0000 9999 5150 5840 0 0
2019/10/31 17:02:00 BASE 25.72 34 32.56 27 3.5 89 1.8 384 0 980.9 NA 0.0000 9999 5090 5970 0 0
2019/10/31 17:03:00 BASE 25.34 32 32.56 27 3.5 89 1.9 321 0 980.9 NA 0.0000 9999 5020 0 0 0
2019/10/31 17:04:00 BASE 24.76 34 32.56 27 3.5 89 1.9 298 0 981.0 NA 0.0000 9999 4990 0 0 0
2019/10/31 17:05:00 BASE 24.69 35 32.56 27 3.5 89 1.9 299 0 981.0 NA 0.0000 9999 5090 0 0 0
2019/10/31 17:06:00 BASE 25.02 32 32.56 27 3.5 89 1.9 287 0 981.1 NA 0.0000 9999 5220 0 0 0
2019/10/31 17:07:00 BASE 24.82 32 31.07 31 3.5 89 1.9 287 0 981.1 NA 0.0000 9999 5120 0 0 0
2019/10/31 17:08:00 BASE 25.25 33 31.07 31 3.5 89 1.9 295 0 981.1 NA 0.0000 9999 5150 0 0 0
2019/10/31 17:09:00 BASE 25.13 33 31.07 31 3.5 89 1.9 293 0 981.2 NA 0.0000 9999 5090 0 0 0
2019/10/31 17:10:00 BASE 24.14 35 30.82 32 3.5 89 1.8 295 0 981.2 NA 0.0000 9999 5020 0 0 0
2019/10/31 17:11:00 BASE 24.12 35 29.37 31 3.5 89 1.8 281 0 981.1 NA 0.0000 9999 4950 0 0 0
2019/10/31 17:12:00 BASE 23.84 33 29.37 31 3.5 89 1.8 272 0 981.2 NA 0.0000 9999 4990 6200 0 0
2019/10/31 17:13:00 BASE 23.77 33 29.37 31 3.5 89 1.8 278 0 981.1 NA 0.0000 9999 4790 6070 0 0
2019/10/31 17:14:00 BASE 23.59 36 29.37 31 3.5 89 1.8 265 0 981.3 NA 0.0000 9999 4760 6040 0 0
2019/10/31 17:15:00 BASE 22.05 36 29.37 31 3.5 89 1.9 256 0 981.3 NA 0.0000 9999 4690 0 0 0
2019/10/31 17:16:00 BASE 21.93 35 29.37 31 3.6 89 1.9 248 0 981.3 NA 0.0000 9999 4760 0 0 0
2019/10/31 17:17:00 BASE 22.49 34 29.37 31 3.5 89 1.9 245 0 981.4 NA 0.0000 9999 4630 0 0 0
2019/10/31 17:18:00 BASE 21.96 32 28.24 28 3.5 89 1.9 247 0 981.5 NA 0.0000 9999 4660 0 0 0
2019/10/31 17:19:00 BASE 20.80 29 27.88 23 3.5 89 1.9 250 0 981.5 NA 0.0000 9999 4630 0 0 0
2019/10/31 17:20:00 BASE 20.71 28 27.88 23 3.5 89 1.9 248 0 981.5 NA 0.0000 9999 4590 0 0 0
2019/10/31 17:21:00 BASE 21.33 32 27.83 35 3.5 89 1.9 243 0 981.5 NA 0.0000 9999 4630 0 0 0
2019/10/31 17:22:00 BASE 21.87 32 26.08 31 3.5 89 1.9 233 0 981.6 NA 0.0000 9999 4530 0 0 0
2019/10/31 17:23:00 BASE 19.51 27 26.08 31 3.5 89 1.9 224 0 981.7 NA 0.0000 9999 4560 0 0 0
2019/10/31 17:24:00 BASE 17.59 27 26.08 31 3.5 89 1.9 222 0 981.8 NA 0.0000 9999 4590 0 0 0
2019/10/31 17:25:00 BASE 18.96 31 26.08 31 3.5 89 1.9 222 0 981.7 NA 0.0000 9999 4590 0 0 0
2019/10/31 17:26:00 BASE 20.11 30 26.08 31 3.5 89 1.9 223 0 981.7 NA 0.0000 9999 3970 4560 0 0
2019/10/31 17:27:00 BASE 20.73 31 26.80 19 3.5 89 1.9 220 0 981.7 NA 0.0000 9999 4560 0 0 0
2019/10/31 17:28:00 BASE 20.65 34 26.80 19 3.5 89 1.9 213 0 981.7 NA 0.0000 9999 4560 0 0 0
2019/10/31 17:29:00 BASE 20.80 34 26.80 19 3.5 89 1.9 205 0 981.7 NA 0.0000 9999 4530 0 0 0
2019/10/31 17:30:00 BASE 21.07 35 26.80 19 3.5 89 1.9 201 0 981.8 NA 0.0000 9999 3900 4590 0 0
2019/10/31 17:31:00 BASE 20.82 35 26.80 19 3.5 89 1.9 200 0 981.8 NA 0.0000 9999 3870 0 0 0
2019/10/31 17:32:00 BASE 19.27 35 26.80 19 3.5 89 1.9 203 0 981.8 NA 0.0000 9999 3870 4460 0 0
2019/10/31 17:33:00 BASE 18.47 36 26.80 19 3.5 89 1.9 202 0 981.8 NA 0.0000 9999 3970 4490 0 0
2019/10/31 17:34:00 BASE 18.24 36 26.80 19 3.5 89 1.9 197 0 981.8 NA 0.0000 9999 4000 4490 0 0
2019/10/31 17:35:00 BASE 18.33 35 26.80 19 3.5 89 1.9 189 0 981.7 NA 0.0000 9999 4560 0 0 0
2019/10/31 17:36:00 BASE 19.92 36 26.80 19 3.5 89 1.9 184 0 981.7 NA 0.0000 9999 4560 0 0 0
2019/10/31 17:37:00 BASE 21.71 37 26.13 42 3.5 89 1.9 183 0 981.7 NA 0.0000 9999 4590 0 0 0
2019/10/31 17:38:00 BASE 20.50 40 26.13 42 3.5 89 1.9 187 0 981.8 NA 0.0000 9999 4530 0 0 0
2019/10/31 17:39:00 BASE 18.51 40 26.13 42 3.5 89 1.9 191 0 981.7 NA 0.0000 9999 4560 23750 0 0
2019/10/31 17:40:00 BASE 18.76 37 26.13 42 3.6 89 1.9 194 0 981.8 NA 0.0000 9999 4660 0 0 0
2019/10/31 17:41:00 BASE 18.10 38 26.13 42 3.6 89 1.9 195 0 981.8 NA 0.0000 9999 4660 0 0 0
2019/10/31 17:42:00 BASE 18.39 41 26.13 42 3.6 89 1.9 192 0 981.8 NA 0.0000 9999 4720 0 0 0
2019/10/31 17:43:00 BASE 17.64 44 26.13 42 3.6 89 1.9 187 0 981.9 NA 0.0000 9999 4630 0 0 0
2019/10/31 17:44:00 BASE 16.49 46 26.13 42 3.6 89 1.9 183 0 982.0 NA 0.0000 9999 4590 0 0 0
2019/10/31 17:45:00 BASE 15.34 45 26.13 42 3.6 89 1.9 179 0 982.1 NA 0.0000 9999 4660 0 0 0
2019/10/31 17:46:00 BASE 15.20 42 26.13 42 3.6 89 1.9 176 0 982.1 NA 0.0000 9999 4590 0 0 0
2019/10/31 17:47:00 BASE 15.72 41 25.77 35 3.6 89 2.0 176 0 982.2 NA 0.0000 9999 3410 4490 0 0
2019/10/31 17:48:00 BASE 14.29 45 25.77 35 3.6 89 2.0 179 0 982.2 NA 0.0000 9999 3540 4530 0 0
2019/10/31 17:49:00 BASE 13.76 38 25.77 35 3.6 89 2.0 179 0 982.2 NA 0.0000 9999 3670 4490 0 0
2019/10/31 17:50:00 BASE 13.03 33 23.10 43 3.7 89 2.0 176 0 982.2 NA 0.0000 9999 3450 0 0 0
2019/10/31 17:51:00 BASE 11.87 37 22.33 38 3.7 89 2.0 168 0 982.2 NA 0.0000 9999 3450 0 0 0
2019/10/31 17:52:00 BASE 12.85 38 20.83 44 3.7 89 2.0 158 0 982.2 NA 0.0000 9999 3450 0 0 0
2019/10/31 17:53:00 BASE 15.01 39 20.83 44 3.7 89 2.1 153 0 982.2 NA 0.0000 9999 3450 0 0 0
2019/10/31 17:54:00 BASE 14.02 40 20.83 44 3.7 89 2.1 151 0 982.3 NA 0.0000 9999 3510 0 0 0
2019/10/31 17:55:00 BASE 10.94 45 20.83 44 3.7 89 2.0 152 0 982.3 NA 0.0000 9999 3580 0 0 0
2019/10/31 17:56:00 BASE 9.51 43 18.98 51 3.7 89 2.0 152 0 982.4 NA 0.0000 9999 3740 0 0 0
2019/10/31 17:57:00 BASE 10.11 39 18.98 51 3.7 89 2.0 153 0 982.3 NA 0.0000 9999 3770 0 0 0
2019/10/31 17:58:00 BASE 10.56 42 18.52 43 3.7 89 2.0 153 0 982.3 NA 0.0000 9999 3900 0 0 0
2019/10/31 17:59:00 BASE 11.05 45 18.42 21 3.7 89 2.0 152 0 982.3 NA 0.0000 9999 4000 0 0 0
2019/10/31 18:00:00 BASE 10.95 48 18.42 21 3.7 89 2.1 153 0 982.3 NA 0.0000 9999 4000 0 0 0
2019/10/31 18:01:00 BASE 11.48 53 18.42 56 3.7 89 2.1 152 0 982.2 NA 0.0000 9999 4000 4920 0 0
2019/10/31 18:02:00 BASE 12.76 54 18.42 56 3.8 89 2.1 153 0 982.3 NA 0.0000 9999 4040 4860 0 0
2019/10/31 18:03:00 BASE 12.48 59 18.42 56 3.8 88 2.1 155 0 982.3 NA 0.0000 9999 4070 4790 0 0
2019/10/31 18:04:00 BASE 12.29 65 18.42 56 3.8 88 2.1 157 0 982.4 NA 0.0000 9999 4720 0 0 0
2019/10/31 18:05:00 BASE 11.47 73 18.42 56 3.9 88 2.0 161 0 982.4 NA 0.0000 9999 4820 0 0 0
2019/10/31 18:06:00 BASE 10.53 85 18.42 56 3.9 88 2.0 166 0 982.4 NA 0.0000 9999 4820 0 0 0
2019/10/31 18:07:00 BASE 10.16 82 18.42 56 3.9 88 2.0 172 0 982.4 NA 0.0000 9999 4790 0 0 0
2019/10/31 18:08:00 BASE 11.41 88 18.42 56 3.9 87 2.0 176 0 982.3 NA 0.0000 9999 4820 0 0 0
2019/10/31 18:09:00 BASE 11.78 104 18.42 56 3.9 87 1.9 178 0 982.4 NA 0.0000 9999 4890 0 0 0
2019/10/31 18:10:00 BASE 9.84 107 18.42 56 3.8 87 1.8 180 0 982.4 NA 0.0000 9999 4820 0 0 0
2019/10/31 18:11:00 BASE 9.01 109 16.41 40 3.7 87 1.7 180 0 982.4 NA 0.0000 9999 3970 4890 0 0
2019/10/31 18:12:00 BASE 10.30 98 19.14 81 3.6 87 1.6 179 0 982.4 NA 0.0000 9999 3940 0 0 0
2019/10/31 18:13:00 BASE 10.70 93 19.14 81 3.5 87 1.6 176 0 982.4 NA 0.0000 9999 3870 0 0 0
2019/10/31 18:14:00 BASE 8.48 113 19.14 81 3.4 88 1.6 176 0 982.5 NA 0.0000 9999 3970 4890 0 0
2019/10/31 18:15:00 BASE 7.45 117 19.14 81 3.4 88 1.6 176 0 982.5 NA 0.0000 9999 3840 4890 0 0
2019/10/31 18:16:00 BASE 7.29 111 19.14 81 3.4 88 1.6 178 0 982.5 NA 0.0000 9999 3840 4790 0 0
2019/10/31 18:17:00 BASE 6.90 120 19.14 81 3.3 88 1.6 180 0 982.5 NA 0.0000 9999 3770 4820 0 0
2019/10/31 18:18:00 BASE 8.33 129 19.14 81 3.3 89 1.6 184 0 982.4 NA 0.0000 9999 3770 0 0 0
2019/10/31 18:19:00 BASE 9.28 128 19.14 81 3.2 89 1.6 187 0 982.4 NA 0.0000 9999 3670 0 0 0
2019/10/31 18:20:00 BASE 8.45 128 19.14 81 3.2 89 1.6 189 0 982.4 NA 0.0000 9999 3610 0 0 0
2019/10/31 18:21:00 BASE 8.04 134 19.14 81 3.1 89 1.5 194 0 982.4 NA 0.0000 9999 3610 0 0 0
2019/10/31 18:22:00 BASE 8.62 133 13.94 100 3.1 89 1.5 197 0 982.4 NA 0.0000 9999 3840 0 0 0
2019/10/31 18:23:00 BASE 9.48 125 10.91 118 3.1 89 1.5 201 0 982.3 NA 0.0000 9999 3770 0 0 0
2019/10/31 18:24:00 BASE 9.54 125 11.47 116 3.1 89 1.5 209 0 982.3 NA 0.0000 9999 3740 0 0 0
2019/10/31 18:25:00 BASE 9.74 121 11.47 116 3.1 89 1.5 215 0 982.4 NA 0.0000 9999 3710 0 0 0
2019/10/31 18:26:00 BASE 10.09 118 11.47 116 3.2 89 1.6 225 0 982.3 NA 0.0000 9999 3670 0 0 0
2019/10/31 18:27:00 BASE 9.85 128 11.47 116 3.2 89 1.6 234 0 982.3 NA 0.0000 9999 3670 0 0 0
2019/10/31 18:28:00 BASE 9.82 127 11.47 116 3.3 89 1.6 228 0 982.3 NA 0.0000 9999 3670 0 0 0
2019/10/31 18:29:00 BASE 9.73 123 11.47 116 3.3 88 1.6 215 0 982.3 NA 0.0000 9999 3610 0 0 0
2019/10/31 18:30:00 BASE 9.37 121 11.47 116 3.4 88 1.6 210 0 982.3 NA 0.0000 9999 3670 0 0 0
2019/10/31 18:31:00 BASE 8.65 119 11.47 116 3.4 88 1.6 215 0 982.4 NA 0.0000 9999 3540 0 0 0
2019/10/31 18:32:00 BASE 8.29 121 11.47 116 3.5 88 1.6 221 0 982.4 NA 0.0000 9999 3450 0 0 0
2019/10/31 18:33:00 BASE 7.89 128 11.47 116 3.6 87 1.7 228 0 982.3 NA 0.0000 9999 3410 0 0 0
2019/10/31 18:34:00 BASE 7.66 128 11.06 121 3.6 87 1.7 237 0 982.4 NA 0.0000 9999 3410 0 0 0
2019/10/31 18:35:00 BASE 7.90 123 10.65 124 3.7 86 1.6 229 0 982.3 NA 0.0000 9999 3410 3770 0 0
2019/10/31 18:36:00 BASE 8.25 126 10.60 113 3.7 86 1.6 222 0 982.3 NA 0.0000 9999 3610 0 0 0
2019/10/31 18:37:00 BASE 8.38 128 10.60 113 3.7 86 1.5 216 0 982.3 NA 0.0000 9999 3840 0 0 0
2019/10/31 18:38:00 BASE 8.82 125 10.29 121 3.6 86 1.4 208 0 982.3 NA 0.0000 9999 3870 23490 0 0
2019/10/31 18:39:00 BASE 9.49 122 10.29 121 3.5 86 1.3 207 0 982.3 NA 0.0000 9999 3770 0 0 0
2019/10/31 18:40:00 BASE 8.95 120 10.29 121 3.4 86 1.3 204 0 982.4 NA 0.0000 9999 3710 0 0 0
2019/10/31 18:41:00 BASE 9.14 121 10.29 121 3.3 87 1.3 201 0 982.3 NA 0.0000 9999 3670 0 0 0
2019/10/31 18:42:00 BASE 9.83 126 10.39 132 3.3 87 1.3 200 0 982.3 NA 0.0000 9999 3580 0 0 0
2019/10/31 18:43:00 BASE 9.92 129 10.60 131 3.3 87 1.4 200 0 982.3 NA 0.0000 9999 3540 0 0 0
2019/10/31 18:44:00 BASE 9.78 126 10.60 131 3.3 87 1.4 204 0 982.3 NA 0.0000 9999 3510 0 0 0
2019/10/31 18:45:00 BASE 9.88 124 11.94 115 3.2 87 1.3 204 0 982.3 NA 0.0000 9999 3380 0 0 0
2019/10/31 18:46:00 BASE 10.01 129 11.94 115 3.2 87 1.3 200 0 982.3 NA 0.0000 9999 3280 0 0 0
2019/10/31 18:47:00 BASE 9.90 133 11.94 115 3.1 87 1.2 199 0 982.3 NA 0.0000 9999 3180 0 0 0
2019/10/31 18:48:00 BASE 9.37 130 11.94 115 3.1 88 1.2 200 0 982.3 NA 0.0000 9999 3150 0 0 0
2019/10/31 18:49:00 BASE 9.73 127 11.94 115 3.0 88 1.2 200 0 982.3 NA 0.0000 9999 3180 0 0 0
2019/10/31 18:50:00 BASE 9.04 128 11.94 115 3.0 88 1.3 198 0 982.3 NA 0.0000 9999 3220 22670 0 0
2019/10/31 18:51:00 BASE 8.48 125 11.94 115 3.0 88 1.3 196 0 982.3 NA 0.0000 9999 3410 0 0 0
2019/10/31 18:52:00 BASE 9.44 127 11.94 115 3.0 88 1.3 194 0 982.3 NA 0.0000 9999 3670 0 0 0
2019/10/31 18:53:00 BASE 9.53 132 12.71 140 3.0 89 1.3 193 0 982.3 NA 0.0000 9999 3580 0 0 0
2019/10/31 18:54:00 BASE 10.22 134 12.71 140 3.0 89 1.3 191 0 982.0 NA 0.0000 9999 3540 0 0 0
2019/10/31 18:55:00 BASE 9.68 130 12.71 140 2.9 89 1.2 188 0 982.3 NA 0.0000 9999 3710 0 0 0
2019/10/31 18:56:00 BASE 9.30 122 12.71 140 2.9 89 1.2 184 0 982.3 NA 0.0000 9999 3050 0 0 0
2019/10/31 18:57:00 BASE 9.27 127 12.71 140 2.9 89 1.3 179 0 982.2 NA 0.0000 9999 3380 0 0 0
2019/10/31 18:58:00 BASE 8.99 128 12.71 140 2.9 89 1.3 176 0 982.3 NA 0.0000 9999 3580 21850 0 0
2019/10/31 18:59:00 BASE 8.33 118 12.71 140 3.0 89 1.4 174 0 982.4 NA 0.0000 9999 3580 0 0 0
2019/10/31 19:00:00 BASE 7.61 117 12.71 140 3.0 89 1.4 174 0 982.4 NA 0.0000 9999 3610 0 0 0
2019/10/31 19:01:00 BASE 8.18 124 12.71 140 3.0 89 1.4 175 0 982.4 NA 0.0000 9999 3840 0 0 0
2019/10/31 19:02:00 BASE 8.62 132 12.71 140 3.0 89 1.3 176 0 982.3 NA 0.0000 9999 3770 0 0 0
2019/10/31 19:03:00 BASE 8.02 125 12.45 139 3.0 88 1.3 177 0 982.4 NA 0.0000 9999 3840 4270 0 0
2019/10/31 19:04:00 BASE 6.47 113 11.52 112 3.1 88 1.3 177 0 982.4 NA 0.0000 9999 4270 0 0 0
2019/10/31 19:05:00 BASE 5.91 115 11.52 112 3.1 88 1.3 171 0 982.4 NA 0.0000 9999 4200 0 0 0
2019/10/31 19:06:00 BASE 6.26 124 11.32 112 3.1 88 1.4 166 0 982.4 NA 0.0000 9999 4130 0 0 0
2019/10/31 19:07:00 BASE 6.44 129 11.32 112 3.1 88 1.3 166 0 982.4 NA 0.0000 9999 4130 0 0 0
2019/10/31 19:08:00 BASE 6.29 120 11.32 112 3.2 88 1.3 165 0 982.5 NA 0.0000 9999 4200 0 0 0
2019/10/31 19:09:00 BASE 6.53 102 11.32 112 3.2 88 1.4 166 0 982.5 NA 0.0000 9999 4200 0 0 0
2019/10/31 19:10:00 BASE 7.59 100 11.32 112 3.3 88 1.5 166 0 982.4 NA 0.0000 9999 4300 0 0 0
2019/10/31 19:11:00 BASE 7.49 120 11.32 112 3.5 88 1.6 165 0 982.4 NA 0.0000 9999 4230 0 0 0
2019/10/31 19:12:00 BASE 6.83 131 15.48 93 3.7 87 1.8 165 0 982.5 NA 0.0000 9999 4230 0 0 0
2019/10/31 19:13:00 BASE 9.48 124 15.48 93 3.8 87 1.9 167 0 981.9 NA 0.0000 9999 4170 0 0 0
2019/10/31 19:14:00 BASE 9.67 137 15.48 93 3.9 87 1.9 168 0 982.4 NA 0.0000 9999 4130 0 0 0
2019/10/31 19:15:00 BASE 6.11 139 15.48 93 3.8 86 1.8 168 0 982.6 NA 0.0000 9999 4330 0 0 0
2019/10/31 19:16:00 BASE 6.43 105 15.48 93 3.7 86 1.6 168 0 982.6 NA 0.0000 9999 4300 0 0 0
2019/10/31 19:17:00 BASE 5.58 71 15.48 93 3.7 87 1.7 168 0 982.7 NA 0.0000 9999 4300 0 0 0
2019/10/31 19:18:00 BASE 2.42 351 15.48 93 3.6 87 1.6 169 0 982.6 NA 0.0000 9999 4400 0 0 0
2019/10/31 19:19:00 BASE 3.64 247 15.48 93 3.5 87 1.6 170 0 982.5 NA 0.0000 9999 4300 0 0 0
2019/10/31 19:20:00 BASE 5.09 280 15.48 93 3.6 88 1.9 170 0 982.5 NA 0.0000 9999 4360 0 0 0
2019/10/31 19:21:00 BASE 5.55 3 15.48 93 3.8 88 2.0 166 0 982.4 NA 0.0000 9999 4430 0 0 0
2019/10/31 19:22:00 BASE 7.61 7 15.38 96 3.8 89 2.1 161 0 982.6 NA 0.0000 9999 4400 0 0 0
2019/10/31 19:23:00 BASE 9.73 10 15.84 6 3.9 89 2.2 158 0 982.5 NA 0.0000 9999 4360 0 0 0
2019/10/31 19:24:00 BASE 11.73 18 16.31 13 4.0 89 2.4 157 0 982.4 NA 0.0000 9999 4400 0 0 0
2019/10/31 19:25:00 BASE 11.83 22 16.31 13 4.0 89 2.4 156 0 982.5 NA 0.0000 9999 4460 0 0 0
2019/10/31 19:26:00 BASE 9.80 13 16.31 13 4.0 89 2.4 155 0 982.5 NA 0.0000 9999 4400 0 0 0
2019/10/31 19:27:00 BASE 9.20 9 16.31 13 3.9 90 2.3 154 0 982.6 NA 0.0000 9999 4460 0 0 0
2019/10/31 19:28:00 BASE 10.63 11 16.41 19 3.8 90 2.3 156 0 982.5 NA 0.0000 9999 4460 0 0 0
2019/10/31 19:29:00 BASE 12.18 18 18.78 26 3.8 90 2.3 162 0 982.4 NA 0.0000 9999 4460 0 0 0
2019/10/31 19:30:00 BASE 12.95 21 18.78 26 3.8 90 2.4 167 0 982.4 NA 0.0000 9999 4460 0 0 0
2019/10/31 19:31:00 BASE 13.24 21 18.78 26 3.9 91 2.5 172 0 982.4 NA 0.0000 9999 4460 0 0 0
2019/10/31 19:32:00 BASE 14.32 13 20.17 23 4.0 91 2.7 176 0 982.4 NA 0.0000 9999 4490 0 0 0
2019/10/31 19:33:00 BASE 12.76 12 20.17 23 4.1 91 2.8 178 0 982.5 NA 0.0000 9999 4560 0 0 0
2019/10/31 19:34:00 BASE 9.89 6 20.17 23 4.2 91 2.8 171 0 982.5 NA 0.0000 9999 4660 0 0 0
2019/10/31 19:35:00 BASE 9.82 18 20.17 23 4.2 90 2.8 165 0 982.5 NA 0.0000 9999 4560 0 0 0
2019/10/31 19:36:00 BASE 9.24 27 20.17 23 4.3 90 2.8 165 0 982.5 NA 0.0000 9999 4630 0 0 0
2019/10/31 19:37:00 BASE 7.61 22 20.17 23 4.3 90 2.8 169 0 982.6 NA 0.0000 9999 5280 0 0 0
2019/10/31 19:38:00 BASE 6.84 35 20.17 23 4.3 90 2.8 172 0 982.6 NA 0.0000 9999 5450 0 0 0
2019/10/31 19:39:00 BASE 6.91 36 20.17 23 4.3 90 2.9 175 0 982.6 NA 0.0000 9999 5410 0 0 0
2019/10/31 19:40:00 BASE 10.16 37 20.17 23 4.3 90 2.9 176 0 982.5 NA 0.0000 9999 5580 0 0 0
2019/10/31 19:41:00 BASE 14.05 41 20.17 23 4.4 90 3.0 177 0 982.5 NA 0.0000 9999 5540 0 0 0
2019/10/31 19:42:00 BASE 14.25 36 18.52 31 4.4 90 3.0 179 0 982.4 NA 0.0000 9999 5640 0 0 0
2019/10/31 19:43:00 BASE 11.61 26 18.52 31 4.4 90 3.0 184 0 982.4 NA 0.0000 9999 5510 0 0 0
2019/10/31 19:44:00 BASE 10.22 31 18.52 31 4.4 90 3.0 188 0 982.4 NA 0.0000 9999 5480 0 0 0
2019/10/31 19:45:00 BASE 11.97 38 18.52 31 4.4 90 2.9 193 0 982.3 NA 0.0000 9999 5480 0 0 0
2019/10/31 19:46:00 BASE 15.42 35 20.83 35 4.4 90 2.9 194 0 982.2 NA 0.0000 9999 5450 0 0 0
2019/10/31 19:47:00 BASE 18.61 33 22.48 35 4.3 91 2.9 192 0 982.1 NA 0.0000 9999 5450 0 0 0
2019/10/31 19:48:00 BASE 18.91 35 22.48 35 4.3 91 3.0 183 0 982.1 NA 0.0000 9999 5450 0 0 0
2019/10/31 19:49:00 BASE 17.89 36 22.48 35 4.3 91 3.0 181 0 982.1 NA 0.0000 9999 5450 0 0 0
2019/10/31 19:50:00 BASE 17.83 35 22.48 35 4.3 91 3.0 183 0 982.0 NA 0.0000 9999 5480 0 0 0
2019/10/31 19:51:00 BASE 18.84 34 24.33 37 4.3 91 2.9 188 0 981.9 NA 0.0000 9999 5610 0 0 0
2019/10/31 19:52:00 BASE 20.38 35 26.24 35 4.3 91 2.9 188 0 981.9 NA 0.0000 9999 5580 0 0 0
2019/10/31 19:53:00 BASE 19.91 33 26.24 35 4.3 91 2.9 185 0 981.9 NA 0.0000 9999 5510 0 0 0
2019/10/31 19:54:00 BASE 18.67 32 26.24 35 4.3 91 2.9 182 0 981.9 NA 0.0000 9999 5510 0 0 0
2019/10/31 19:55:00 BASE 18.55 32 26.24 35 4.3 91 2.9 179 0 981.8 NA 0.0000 9999 5480 0 0 0
2019/10/31 19:56:00 BASE 18.91 32 26.24 35 4.3 91 2.9 175 0 981.8 NA 0.0000 9999 5410 0 0 0
2019/10/31 19:57:00 BASE 19.89 34 26.24 35 4.3 91 2.9 170 0 981.7 NA 0.0000 9999 5350 0 0 0
2019/10/31 19:58:00 BASE 20.55 32 26.24 35 4.3 91 2.9 168 0 981.7 NA 0.0000 9999 5280 0 0 0
2019/10/31 19:59:00 BASE 20.47 30 26.24 35 4.3 91 2.9 166 0 981.7 NA 0.0000 9999 5220 0 0 0
2019/10/31 20:00:00 BASE 19.90 32 26.24 35 4.3 91 2.9 166 0 981.7 NA 0.0000 9999 5250 0 0 0
2019/10/31 20:01:00 BASE 19.50 32 26.24 35 4.3 91 2.9 168 0 981.6 NA 0.0000 9999 5320 0 0 0
2019/10/31 20:02:00 BASE 20.11 32 25.72 23 4.2 91 2.9 168 0 981.6 NA 0.0000 9999 5250 21590 0 0
2019/10/31 20:03:00 BASE 21.38 31 25.72 23 4.2 91 2.9 169 0 981.5 NA 0.0000 9999 5090 0 0 0
2019/10/31 20:04:00 BASE 21.78 29 26.44 29 4.2 91 2.8 173 0 981.5 NA 0.0000 9999 5090 0 0 0
2019/10/31 20:05:00 BASE 22.30 30 26.44 29 4.1 91 2.8 174 0 981.4 NA 0.0000 9999 5050 0 0 0
2019/10/31 20:06:00 BASE 21.96 28 26.44 29 4.1 91 2.8 174 0 981.5 NA 0.0000 9999 4990 0 0 0
2019/10/31 20:07:00 BASE 21.22 28 26.44 29 4.1 91 2.7 170 0 981.6 NA 0.0000 9999 5350 0 0 0
2019/10/31 20:08:00 BASE 21.20 29 26.44 29 4.1 91 2.7 168 0 981.6 NA 0.0000 9999 5350 0 0 0
2019/10/31 20:09:00 BASE 21.25 29 26.44 29 4.1 91 2.7 171 0 981.6 NA 0.0000 9999 5510 0 0 0
2019/10/31 20:10:00 BASE 20.55 30 26.44 29 4.1 91 2.7 176 0 981.7 NA 0.0000 9999 5450 0 0 0
2019/10/31 20:11:00 BASE 20.32 33 26.44 29 4.1 91 2.7 176 0 981.6 NA 0.0000 9999 5410 0 0 0
2019/10/31 20:12:00 BASE 20.40 32 26.44 29 4.1 91 2.7 168 0 981.7 NA 0.0000 9999 5320 0 0 0
2019/10/31 20:13:00 BASE 20.95 32 26.44 29 4.1 91 2.7 163 0 981.6 NA 0.0000 9999 5380 0 0 0
2019/10/31 20:14:00 BASE 21.23 35 26.39 26 4.1 91 2.7 163 0 981.7 NA 0.0000 9999 5480 0 0 0
2019/10/31 20:15:00 BASE 21.12 34 26.55 30 4.1 91 2.7 160 0 981.6 NA 0.0000 9999 5480 0 0 0
2019/10/31 20:16:00 BASE 21.94 32 26.55 30 4.1 91 2.7 158 0 981.6 NA 0.0000 9999 5450 0 0 0
2019/10/31 20:17:00 BASE 21.96 33 26.55 30 4.0 91 2.7 160 0 981.7 NA 0.0000 9999 5540 0 0 0
2019/10/31 20:18:00 BASE 20.87 35 26.55 30 4.0 91 2.7 162 0 981.8 NA 0.0000 9999 5410 0 0 0
2019/10/31 20:19:00 BASE 18.92 38 26.55 30 4.0 91 2.7 159 0 981.8 NA 0.0000 9999 5410 0 0 0
2019/10/31 20:20:00 BASE 18.42 38 26.55 30 4.0 91 2.7 157 0 981.8 NA 0.0000 9999 5380 0 0 0
2019/10/31 20:21:00 BASE 19.05 35 26.55 30 3.9 92 2.7 151 0 981.8 NA 0.0000 9999 5020 5540 0 0
2019/10/31 20:22:00 BASE 18.89 36 26.55 30 3.9 92 2.7 140 0 981.8 NA 0.0000 9999 5090 0 0 0
2019/10/31 20:23:00 BASE 18.38 39 26.55 30 3.9 92 2.8 134 0 981.9 NA 0.0000 9999 5250 0 0 0
2019/10/31 20:24:00 BASE 17.95 39 26.55 30 3.9 92 2.8 130 0 981.8 NA 0.0000 9999 5350 0 0 0
2019/10/31 20:25:00 BASE 17.88 37 24.44 42 3.9 93 2.8 128 0 981.8 NA 0.0000 9999 5250 0 0 0
2019/10/31 20:26:00 BASE 17.86 37 23.72 37 3.9 93 2.8 130 0 981.8 NA 0.0000 9999 5320 0 0 0
2019/10/31 20:27:00 BASE 18.32 36 23.20 29 3.9 93 2.8 137 0 981.8 NA 0.0000 9999 5320 0 0 0
2019/10/31 20:28:00 BASE 18.50 36 23.20 29 3.9 93 2.8 144 0 981.9 NA 0.0000 9999 5350 0 0 0
2019/10/31 20:29:00 BASE 17.30 37 23.20 29 3.9 93 2.8 148 0 981.9 NA 0.0000 9999 5480 0 0 0
2019/10/31 20:30:00 BASE 15.14 32 23.20 29 3.9 93 2.8 149 0 982.1 NA 0.0000 9999 5540 0 0 0
2019/10/31 20:31:00 BASE 12.45 32 22.79 39 3.9 93 2.9 147 0 982.2 NA 0.0000 9999 4660 5250 0 0
2019/10/31 20:32:00 BASE 10.66 42 22.79 39 3.9 93 2.9 147 0 982.2 NA 0.0000 9999 4720 0 0 0
2019/10/31 20:33:00 BASE 8.95 48 22.79 39 3.9 93 2.9 144 0 982.2 NA 0.0000 9999 4860 5510 0 0
2019/10/31 20:34:00 BASE 8.08 50 22.79 39 3.9 93 2.9 139 0 982.3 NA 0.0000 9999 4990 0 0 0
2019/10/31 20:35:00 BASE 8.31 54 22.12 32 3.9 93 2.9 136 0 982.3 NA 0.0000 9999 5050 0 0 0
2019/10/31 20:36:00 BASE 9.52 60 20.63 42 4.0 93 2.9 136 0 982.2 NA 0.0000 9999 4990 0 0 0
2019/10/31 20:37:00 BASE 9.98 62 20.22 53 4.0 93 2.9 137 0 982.3 NA 0.0000 9999 5090 0 0 0
2019/10/31 20:38:00 BASE 10.21 69 20.22 53 4.0 93 2.9 139 0 982.2 NA 0.0000 9999 5050 0 0 0
2019/10/31 20:39:00 BASE 10.47 80 17.13 53 4.0 92 2.9 141 0 982.2 NA 0.0000 9999 5020 0 0 0
2019/10/31 20:40:00 BASE 10.16 97 17.13 53 4.0 92 2.8 142 0 982.2 NA 0.0000 9999 4820 0 0 0
2019/10/31 20:41:00 BASE 10.52 97 17.13 53 4.0 92 2.7 143 0 982.2 NA 0.0000 9999 4590 0 0 0
2019/10/31 20:42:00 BASE 11.11 90 17.13 53 3.9 92 2.7 145 0 982.2 NA 0.0000 9999 4760 0 0 0
2019/10/31 20:43:00 BASE 10.62 96 17.13 53 3.9 92 2.6 148 0 982.2 NA 0.0000 9999 4890 0 0 0
2019/10/31 20:44:00 BASE 9.34 105 17.13 53 3.8 92 2.6 148 0 982.2 NA 0.0000 9999 4950 0 0 0
2019/10/31 20:45:00 BASE 9.37 126 17.13 53 3.8 92 2.6 150 0 982.1 NA 0.0000 9999 4950 0 0 0
2019/10/31 20:46:00 BASE 9.83 142 15.95 87 3.7 92 2.5 150 0 982.1 NA 0.0000 9999 4560 0 0 0
2019/10/31 20:47:00 BASE 10.23 148 15.95 87 3.6 91 2.3 148 0 982.0 NA 0.0000 9999 4460 0 0 0
2019/10/31 20:48:00 BASE 9.80 156 15.95 87 3.4 91 2.1 144 0 982.0 NA 0.0000 9999 4490 0 0 0
2019/10/31 20:49:00 BASE 7.79 161 15.95 87 3.2 91 1.9 137 0 982.0 NA 0.0000 9999 4560 0 0 0
2019/10/31 20:50:00 BASE 4.83 152 15.95 87 3.0 92 1.8 128 0 982.0 NA 0.0000 9999 4820 0 0 0
2019/10/31 20:51:00 BASE 5.15 113 15.95 87 2.8 92 1.7 119 0 982.0 NA 0.0000 9999 4820 0 0 0
2019/10/31 20:52:00 BASE 7.77 77 11.52 94 2.9 94 2.0 111 0 982.0 NA 0.0000 9999 4760 0 0 0
2019/10/31 20:53:00 BASE 9.24 71 13.84 95 3.1 94 2.2 105 0 982.0 NA 0.0000 9999 4660 0 0 0
2019/10/31 20:54:00 BASE 10.21 117 13.84 95 3.2 94 2.3 102 0 982.0 NA 0.0000 9999 2260 4490 0 0
2019/10/31 20:55:00 BASE 10.56 148 13.84 95 3.2 94 2.4 98 0 981.9 NA 0.0000 9999 4170 0 0 0
2019/10/31 20:56:00 BASE 9.68 160 13.84 95 3.2 94 2.4 91 0 981.9 NA 0.0000 9999 4130 0 0 0
2019/10/31 20:57:00 BASE 7.81 163 13.84 95 3.1 94 2.2 86 0 982.0 NA 0.0000 9999 2200 4070 0 0
2019/10/31 20:58:00 BASE 8.86 163 13.84 95 2.8 94 1.8 81 0 981.9 NA 0.0000 9999 2360 0 0 0
2019/10/31 20:59:00 BASE 10.67 172 13.84 95 2.6 94 1.7 78 0 981.9 NA 0.0000 9999 2200 0 0 0
2019/10/31 21:00:00 BASE 9.88 182 13.84 95 2.5 95 1.7 74 0 982.0 NA 0.0000 9999 2200 0 0 0
2019/10/31 21:01:00 BASE 8.71 186 13.84 95 2.4 95 1.8 73 0 982.0 NA 0.0000 9999 2200 0 0 0
2019/10/31 21:02:00 BASE 7.58 189 13.84 95 2.5 96 1.9 74 0 982.1 NA 0.0000 9999 2170 0 0 0
2019/10/31 21:03:00 BASE 5.69 183 13.48 149 2.6 97 2.1 72 0 982.1 NA 0.0000 9999 2170 0 0 0
2019/10/31 21:04:00 BASE 4.08 149 13.48 149 2.6 97 2.2 70 0 982.2 NA 0.0000 9999 2260 0 0 0
2019/10/31 21:05:00 BASE 2.61 123 12.60 181 2.7 97 2.2 68 0 982.1 NA 0.0000 9999 2200 0 0 0
2019/10/31 21:06:00 BASE 2.64 82 12.60 181 2.6 97 2.2 70 0 982.1 NA 0.0000 9999 2300 0 0 0
2019/10/31 21:07:00 BASE 3.20 91 12.60 181 2.6 97 2.2 68 0 982.1 NA 0.0000 9999 2360 0 0 0
2019/10/31 21:08:00 BASE 1.85 83 11.57 185 2.6 97 2.3 66 0 982.0 NA 0.0000 9999 2400 0 0 0
2019/10/31 21:09:00 BASE 2.26 127 10.80 184 2.7 97 2.3 65 0 981.9 NA 0.0000 9999 2330 0 0 0
2019/10/31 21:10:00 BASE 5.43 192 9.11 187 2.8 97 2.4 59 0 981.8 NA 0.0000 9999 2230 0 0 0
2019/10/31 21:11:00 BASE 7.28 214 8.59 192 2.8 97 2.4 55 0 981.9 NA 0.0000 9999 2200 0 0 0
2019/10/31 21:12:00 BASE 5.83 219 8.59 192 2.8 97 2.4 53 0 982.1 NA 0.0000 9999 2170 0 0 0
2019/10/31 21:13:00 BASE 4.70 202 8.59 192 2.9 97 2.4 53 0 982.2 NA 0.0000 9999 2200 0 0 0
2019/10/31 21:14:00 BASE 5.79 164 8.59 192 2.9 97 2.4 51 0 982.1 NA 0.0000 9999 2230 0 0 0
2019/10/31 21:15:00 BASE 7.68 155 9.88 169 3.0 97 2.5 49 0 981.8 NA 0.0000 9999 2170 0 0 0
2019/10/31 21:16:00 BASE 9.09 170 10.24 162 3.1 96 2.5 49 0 981.7 NA 0.0000 9999 2200 0 0 0
2019/10/31 21:17:00 BASE 9.32 164 10.65 161 3.1 95 2.4 50 0 981.8 NA 0.0000 9999 2300 0 0 0
2019/10/31 21:18:00 BASE 8.88 158 10.65 161 3.0 94 2.2 49 0 981.8 NA 0.0000 9999 2260 0 0 0
2019/10/31 21:19:00 BASE 10.02 156 12.50 153 3.0 93 2.0 50 0 981.7 NA 0.0000 9999 2260 0 0 0
2019/10/31 21:20:00 BASE 10.37 152 12.50 153 2.9 92 1.8 49 0 981.8 NA 0.0000 9999 2300 0 0 0
2019/10/31 21:21:00 BASE 9.15 147 12.50 153 2.8 92 1.6 48 0 981.8 NA 0.0000 9999 2300 0 0 0
2019/10/31 21:22:00 BASE 9.24 145 12.50 153 2.8 91 1.5 47 0 981.7 NA 0.0000 9999 2460 0 0 0
2019/10/31 21:23:00 BASE 9.42 150 12.50 153 2.8 91 1.5 47 0 981.7 NA 0.0000 9999 2360 0 0 0
2019/10/31 21:24:00 BASE 10.10 154 14.25 148 2.7 91 1.5 46 0 981.7 NA 0.0000 9999 2460 0 0 0
2019/10/31 21:25:00 BASE 11.77 152 14.40 154 2.7 91 1.4 45 0 981.6 NA 0.0000 9999 2400 0 0 0
2019/10/31 21:26:00 BASE 11.92 150 14.40 154 2.7 92 1.5 43 0 981.6 NA 0.0000 9999 2260 0 0 0
2019/10/31 21:27:00 BASE 10.85 150 14.40 154 2.7 91 1.5 43 0 981.6 NA 0.0000 9999 2360 0 0 0
2019/10/31 21:28:00 BASE 10.82 152 14.40 154 2.7 91 1.4 42 0 981.6 NA 0.0000 9999 2330 0 0 0
2019/10/31 21:29:01 BASE 11.17 151 14.40 154 2.7 91 1.5 41 0 981.6 NA 0.0000 9999 2230 0 0 0
2019/10/31 21:30:00 BASE 10.94 149 14.40 154 2.8 91 1.5 41 0 981.6 NA 0.0000 9999 2230 0 0 0
2019/10/31 21:31:00 BASE 10.12 142 14.40 154 2.7 91 1.5 42 0 981.6 NA 0.0000 9999 2260 0 0 0
2019/10/31 21:32:00 BASE 9.70 126 14.40 154 2.8 92 1.6 43 0 981.6 NA 0.0000 9999 2330 0 0 0
2019/10/31 21:33:00 BASE 10.81 120 14.51 129 3.0 92 1.8 44 0 981.5 NA 0.0000 9999 2260 0 0 0
2019/10/31 21:34:00 BASE 11.54 129 14.51 129 3.2 92 2.1 43 0 981.5 NA 0.0000 9999 2330 0 0 0
2019/10/31 21:35:00 BASE 11.47 136 14.51 129 3.4 92 2.2 41 0 981.5 NA 0.0000 9999 2360 0 0 0
2019/10/31 21:36:00 BASE 10.60 139 14.51 129 3.6 91 2.2 40 0 981.5 NA 0.0000 9999 2130 0 0 0
2019/10/31 21:37:00 BASE 9.92 132 14.51 129 3.7 90 2.1 38 0 981.6 NA 0.0000 9999 2170 0 0 0
2019/10/31 21:38:00 BASE 10.70 120 14.51 129 3.7 88 1.9 37 0 981.6 NA 0.0000 9999 2200 0 0 0
2019/10/31 21:39:00 BASE 10.06 119 14.51 129 3.6 87 1.6 39 0 981.6 NA 0.0000 9999 2200 0 0 0
2019/10/31 21:40:00 BASE 9.37 126 14.51 129 3.5 87 1.5 43 0 981.5 NA 0.0000 9999 2330 0 0 0
2019/10/31 21:41:00 BASE 10.20 137 14.51 129 3.4 86 1.3 42 0 981.4 NA 0.0000 9999 2400 0 0 0
2019/10/31 21:42:00 BASE 10.55 142 14.51 129 3.3 86 1.2 42 0 981.4 NA 0.0000 9999 2200 0 0 0
2019/10/31 21:43:00 BASE 10.28 142 13.12 137 3.3 87 1.3 44 0 981.4 NA 0.0000 9999 2200 0 0 0
2019/10/31 21:44:00 BASE 9.15 139 13.12 137 3.2 87 1.3 45 0 981.4 NA 0.0000 9999 2230 0 0 0
2019/10/31 21:45:00 BASE 7.56 137 12.35 124 3.2 87 1.3 46 0 981.4 NA 0.0000 9999 2200 0 0 0
2019/10/31 21:46:00 BASE 7.46 136 12.35 124 3.2 87 1.3 49 0 981.4 NA 0.0000 9999 2260 0 0 0
2019/10/31 21:47:00 BASE 9.92 141 14.15 151 3.1 87 1.2 50 0 981.3 NA 0.0000 9999 2360 0 0 0
2019/10/31 21:48:00 BASE 11.14 150 14.15 151 3.0 88 1.2 51 0 981.3 NA 0.0000 9999 2260 0 0 0
2019/10/31 21:49:00 BASE 10.10 154 14.15 151 3.0 88 1.2 51 0 981.2 NA 0.0000 9999 2330 0 0 0
2019/10/31 21:50:00 BASE 9.69 152 14.15 151 2.9 88 1.2 48 0 981.2 NA 0.0000 9999 2200 0 0 0
2019/10/31 21:51:00 BASE 10.20 143 14.15 151 2.9 89 1.2 47 0 981.2 NA 0.0000 9999 2330 0 0 0
2019/10/31 21:52:00 BASE 10.40 143 14.15 151 2.9 89 1.4 45 0 981.2 NA 0.0000 9999 2200 0 0 0
2019/10/31 21:53:00 BASE 9.12 145 14.15 151 3.0 89 1.4 42 0 981.4 NA 0.0000 9999 2330 0 0 0
2019/10/31 21:54:00 BASE 8.73 145 14.15 151 3.1 89 1.5 41 0 981.3 NA 0.0000 9999 2400 0 0 0
2019/10/31 21:55:00 BASE 8.26 151 14.15 151 3.2 89 1.6 40 0 981.2 NA 0.0000 9999 2430 0 0 0
2019/10/31 21:56:00 BASE 6.74 141 14.15 151 3.2 89 1.6 40 0 981.2 NA 0.0000 9999 2360 0 0 0
2019/10/31 21:57:00 BASE 5.04 108 13.07 135 3.2 89 1.6 37 0 981.2 NA 0.0000 9999 2530 0 0 0
2019/10/31 21:58:00 BASE 2.90 76 13.07 135 3.2 89 1.7 35 0 981.3 NA 0.0000 9999 2460 0 0 0
2019/10/31 21:59:00 BASE 2.42 92 13.07 135 3.3 90 1.7 33 0 981.2 NA 0.0000 9999 2590 0 0 0
2019/10/31 22:00:00 BASE 2.96 129 13.07 135 3.3 90 1.8 33 0 981.2 NA 0.0000 9999 2530 0 0 0
2019/10/31 22:01:00 BASE 2.47 139 11.78 142 3.3 90 1.8 32 0 981.2 NA 0.0000 9999 2460 0 0 0
2019/10/31 22:02:00 BASE 2.37 143 10.70 139 3.2 90 1.8 31 0 981.2 NA 0.0000 9999 2460 0 0 0
2019/10/31 22:03:00 BASE 2.92 148 10.70 139 3.2 90 1.7 32 0 981.2 NA 0.0000 9999 2430 0 0 0
2019/10/31 22:04:00 BASE 3.99 150 8.85 156 3.1 90 1.7 32 0 981.2 NA 0.0000 9999 2360 0 0 0
2019/10/31 22:05:00 BASE 4.87 149 7.15 150 3.0 91 1.6 33 0 981.2 NA 0.0000 9999 2260 0 0 0
2019/10/31 22:06:00 BASE 5.03 143 6.74 150 2.9 91 1.6 33 0 981.2 NA 0.0000 9999 2360 0 0 0
2019/10/31 22:07:00 BASE 4.89 139 6.74 150 2.9 91 1.6 35 0 981.2 NA 0.0000 9999 2430 0 0 0
2019/10/31 22:08:00 BASE 4.58 143 6.74 150 2.9 92 1.7 37 0 981.2 NA 0.0000 9999 2400 0 0 0
2019/10/31 22:09:00 BASE 5.13 149 6.74 150 2.9 92 1.7 36 0 981.1 NA 0.0000 9999 2560 0 0 0
2019/10/31 22:10:00 BASE 5.73 155 6.74 150 2.9 92 1.7 32 0 981.0 NA 0.0000 9999 2590 0 0 0
2019/10/31 22:11:00 BASE 6.22 154 7.20 150 2.9 92 1.8 31 0 981.0 NA 0.0000 9999 2460 0 0 0
2019/10/31 22:12:00 BASE 6.91 145 7.61 143 2.9 93 1.8 29 0 981.0 NA 0.0000 9999 2530 0 0 0
2019/10/31 22:13:00 BASE 7.15 142 7.92 146 2.8 93 1.8 27 0 981.0 NA 0.0000 9999 2530 0 0 0
2019/10/31 22:14:00 BASE 7.21 143 9.31 147 2.8 93 1.8 25 0 981.0 NA 0.0000 9999 2560 0 0 0
2019/10/31 22:15:00 BASE 7.90 145 9.88 146 2.8 93 1.9 24 0 981.0 NA 0.0000 9999 2690 0 0 0
2019/10/31 22:16:00 BASE 8.18 149 9.88 146 2.8 94 1.9 24 0 980.9 NA 0.0000 9999 2720 0 0 0
2019/10/31 22:17:00 BASE 8.37 152 9.88 146 2.8 94 1.9 25 0 980.9 NA 0.0000 9999 2760 0 0 0
2019/10/31 22:18:00 BASE 9.15 149 11.57 150 2.8 94 2.0 25 0 980.8 NA 0.0000 9999 2760 0 0 0
2019/10/31 22:19:00 BASE 9.15 144 11.57 150 2.9 95 2.1 24 0 980.8 NA 0.0000 9999 2820 0 0 0
2019/10/31 22:20:00 BASE 9.63 148 11.57 150 3.0 95 2.2 23 0 980.8 NA 0.0000 9999 2890 0 0 0
2019/10/31 22:21:00 BASE 9.76 153 11.57 150 3.1 95 2.3 22 0 980.8 NA 0.0000 9999 2990 0 0 0
2019/10/31 22:22:00 BASE 8.62 159 11.57 150 3.2 95 2.4 20 0 980.8 NA 0.0000 9999 3020 0 0 0
2019/10/31 22:23:00 BASE 9.45 165 11.68 163 3.3 95 2.5 19 0 980.7 NA 0.0000 9999 3120 0 0 0
2019/10/31 22:24:00 BASE 11.60 159 13.89 156 3.3 94 2.4 18 0 980.8 NA 0.0000 9999 2990 0 0 0
2019/10/31 22:25:00 BASE 12.37 148 13.89 151 3.2 93 2.2 18 0 980.8 NA 0.0000 9999 2990 0 0 0
2019/10/31 22:26:00 BASE 12.20 144 13.89 151 3.1 92 2.0 18 0 980.8 NA 0.0000 9999 2950 0 0 0
2019/10/31 22:27:00 BASE 11.32 146 13.89 151 3.1 92 1.9 18 0 980.7 NA 0.0000 9999 3120 0 0 0
2019/10/31 22:28:00 BASE 10.14 144 13.89 151 3.0 91 1.7 16 0 980.7 NA 0.0000 9999 3150 0 0 0
2019/10/31 22:29:00 BASE 10.60 140 13.89 151 3.0 91 1.6 15 0 980.7 NA 0.0000 9999 3020 0 0 0
2019/10/31 22:30:00 BASE 11.69 144 13.89 151 3.0 91 1.6 15 0 980.6 NA 0.0000 9999 3050 0 0 0
2019/10/31 22:31:00 BASE 11.56 148 13.89 151 3.0 90 1.6 15 0 980.7 NA 0.0000 9999 3080 0 0 0
2019/10/31 22:32:00 BASE 10.53 150 13.89 151 3.0 90 1.5 15 0 980.7 NA 0.0000 9999 3120 0 0 0
2019/10/31 22:33:00 BASE 9.58 147 13.89 151 2.9 90 1.5 16 0 980.7 NA 0.0000 9999 3410 0 0 0
2019/10/31 22:34:00 BASE 8.73 146 13.89 151 2.9 90 1.4 17 0 980.7 NA 0.0000 9999 3450 0 0 0
2019/10/31 22:35:00 BASE 8.49 147 12.81 146 2.8 90 1.4 17 0 980.7 NA 0.0000 9999 3480 0 0 0
2019/10/31 22:36:00 BASE 9.01 158 12.81 146 2.8 90 1.4 18 0 980.6 NA 0.0000 9999 3510 0 0 0
2019/10/31 22:37:00 BASE 8.10 164 12.81 146 2.7 91 1.4 19 0 980.6 NA 0.0000 9999 3480 0 0 0
2019/10/31 22:38:00 BASE 6.24 156 12.81 146 2.7 91 1.4 20 0 980.6 NA 0.0000 9999 3670 0 0 0
2019/10/31 22:39:00 BASE 6.87 149 12.81 146 2.8 91 1.5 20 0 980.6 NA 0.0000 9999 3580 4070 0 0
2019/10/31 22:40:00 BASE 8.30 145 12.35 146 2.9 92 1.7 21 0 980.6 NA 0.0000 9999 3510 0 0 0
2019/10/31 22:41:00 BASE 9.08 146 10.91 151 2.9 92 1.8 21 0 980.6 NA 0.0000 9999 3610 0 0 0
2019/10/31 22:42:00 BASE 10.24 148 11.11 149 3.0 92 1.8 21 0 980.6 NA 0.0000 9999 3580 0 0 0
2019/10/31 22:43:00 BASE 10.52 147 11.11 143 3.1 92 1.9 21 0 980.6 NA 0.0000 9999 3610 0 0 0
2019/10/31 22:44:00 BASE 11.47 142 15.02 132 3.1 92 2.0 22 0 980.5 NA 0.0000 9999 3540 0 0 0
2019/10/31 22:45:00 BASE 12.51 139 15.02 132 3.2 92 2.0 22 0 980.5 NA 0.0000 9999 3580 0 0 0
2019/10/31 22:46:00 BASE 12.04 136 15.02 132 3.2 92 2.1 21 0 980.6 NA 0.0000 9999 3710 0 0 0
2019/10/31 22:47:00 BASE 9.84 127 15.02 132 3.4 92 2.2 21 0 980.7 NA 0.0000 9999 3870 0 0 0
2019/10/31 22:48:00 BASE 8.02 125 15.02 132 3.5 91 2.2 21 0 980.6 NA 0.0000 9999 3810 0 0 0
2019/10/31 22:49:00 BASE 9.60 128 17.39 123 3.5 90 2.0 20 0 980.4 NA 0.0000 9999 3940 0 0 0
2019/10/31 22:50:00 BASE 13.62 127 20.78 127 3.5 89 1.8 20 0 980.3 NA 0.0000 9999 3020 0 0 0
2019/10/31 22:51:00 BASE 13.50 129 20.78 127 3.4 88 1.6 20 0 980.3 NA 0.0000 9999 3180 4040 0 0
2019/10/31 22:52:00 BASE 12.83 135 20.78 127 3.3 87 1.4 20 0 980.3 NA 0.0000 9999 3120 4200 0 0
2019/10/31 22:53:00 BASE 14.17 132 20.78 127 3.2 87 1.3 20 0 980.2 NA 0.0000 9999 4200 0 0 0
2019/10/31 22:54:00 BASE 14.92 123 20.78 127 3.2 87 1.2 20 0 980.1 NA 0.0000 9999 2300 3280 4000 0
2019/10/31 22:55:00 BASE 15.48 121 20.78 127 3.2 87 1.2 19 0 980.2 NA 0.0000 8000 3510 0 0 0
2019/10/31 22:56:00 BASE 13.27 118 20.78 127 3.1 87 1.2 19 0 980.3 NA 0.0000 9999 2260 4490 0 0
2019/10/31 22:57:00 BASE 11.50 116 20.78 127 3.1 87 1.2 19 0 980.3 NA 0.0000 9999 4170 0 0 0
2019/10/31 22:58:00 BASE 12.95 123 20.78 127 3.1 88 1.3 19 0 980.2 NA 0.0000 9999 3900 0 0 0
2019/10/31 22:59:00 BASE 13.60 126 20.78 127 3.1 88 1.3 18 0 980.3 NA 0.0000 9999 2990 0 0 0
2019/10/31 23:00:00 BASE 13.34 123 18.11 125 3.1 89 1.4 18 0 980.2 NA 0.0000 9999 5150 0 0 0
2019/10/31 23:01:00 BASE 13.67 126 18.11 125 3.1 89 1.5 17 0 980.1 NA 0.0000 9999 4820 0 0 0
2019/10/31 23:02:00 BASE 14.07 134 18.11 125 3.2 89 1.6 17 0 980.1 NA 0.0000 9999 4720 0 0 0
2019/10/31 23:03:00 BASE 13.39 135 18.11 125 3.3 89 1.6 16 0 980.1 NA 0.0000 9000 4630 0 0 0
2019/10/31 23:04:00 BASE 12.07 129 17.08 126 3.4 89 1.7 15 0 980.2 NA 0.0000 BR 8000 3180 0 0 0
2019/10/31 23:05:00 BASE 11.39 128 17.08 126 3.4 88 1.7 14 0 980.3 NA 0.0000 BR 7000 4630 0 0 0
2019/10/31 23:06:00 BASE 10.84 131 17.08 126 3.5 88 1.7 13 0 980.3 NA 0.0000 BR 7000 4040 0 0 0
2019/10/31 23:07:00 BASE 10.22 130 17.08 126 3.4 88 1.6 12 0 980.4 NA 0.0000 BR 6000 3610 0 0 0
2019/10/31 23:08:00 BASE 9.25 127 16.82 135 3.4 88 1.6 11 0 980.3 NA 0.0000 UP BR 5000 4400 0 0 0
2019/10/31 23:09:00 BASE 9.11 127 16.82 135 3.4 88 1.7 11 0 980.3 NA 0.0000 UP BR 5000 0 0 0 1900
2019/10/31 23:10:00 BASE 8.58 136 16.82 135 3.5 89 1.8 10 0 980.3 NA 0.0000 UP BR 4400 3350 0 0 0
2019/10/31 23:11:00 BASE 6.24 125 16.82 135 3.5 89 1.9 9 0 980.4 NA 0.0000 UP BR 3900 3480 4070 0 0
2019/10/31 23:12:00 BASE 4.60 51 13.89 133 3.6 90 2.1 9 0 980.3 NA 0.0000 UP BR 4200 3900 0 0 0
2019/10/31 23:13:00 BASE 3.35 21 13.89 133 3.8 90 2.4 9 0 980.4 NA 0.0000 UP BR 5000 0 0 0 4230
2019/10/31 23:14:00 BASE 3.07 33 12.45 134 4.0 91 2.6 9 0 980.5 NA 0.0000 UP BR 5000 0 0 0 4400
2019/10/31 23:15:00 BASE 4.47 63 12.45 134 4.2 91 2.8 8 0 980.4 NA 0.0000 UP BR 6000 2850 0 0 0
2019/10/31 23:16:00 BASE 6.46 70 13.63 63 4.3 91 3.0 8 0 980.3 NA 0.0000 UP BR 6000 0 0 0 4040
2019/10/31 23:17:00 BASE 10.70 54 15.07 55 4.4 91 3.1 8 0 980.2 NA 0.0000 UP BR 7000 0 0 0 4070
2019/10/31 23:18:00 BASE 13.54 53 16.10 59 4.5 91 3.1 8 0 980.1 NA 0.0000 UP BR 8000 0 0 0 3810
2019/10/31 23:19:00 BASE 14.77 54 16.77 57 4.5 91 3.2 8 0 980.1 NA 0.0000 -RA BR 8000 0 0 0 3810
2019/10/31 23:20:00 BASE 15.86 57 17.39 56 4.5 91 3.2 7 0 980.0 NA 0.0000 -RA BR 8000 0 0 0 3900
2019/10/31 23:21:00 BASE 16.24 59 18.01 53 4.5 92 3.2 7 0 980.0 NA 0.0000 -RA BR 8000 430 0 0 0
2019/10/31 23:22:00 BASE 17.69 60 20.37 60 4.4 92 3.2 7 0 979.9 NA 0.0000 -RA BR 9000 430 0 0 0
2019/10/31 23:23:00 BASE 20.35 57 23.20 58 4.3 93 3.2 6 0 979.8 NA 0.0000 -RA BR 7000 0 0 0 3770
2019/10/31 23:24:00 BASE 21.54 56 23.25 52 4.2 93 3.2 6 0 979.7 NA 0.0000 -RA BR 6000 390 0 0 0
2019/10/31 23:25:00 BASE 20.35 55 23.25 52 4.2 93 3.2 6 0 979.8 NA 0.0000 -RA BR 7000 430 2100 0 0
2019/10/31 23:26:00 BASE 20.14 53 23.25 52 4.2 94 3.2 6 0 979.7 NA 0.0000 -RA BR 7000 390 0 0 0
2019/10/31 23:27:00 BASE 20.88 54 23.25 52 4.2 94 3.3 6 0 979.7 NA 0.0000 -RA BR 6000 360 2330 0 0
2019/10/31 23:28:00 BASE 20.81 54 23.41 56 4.2 94 3.3 6 0 979.7 NA 0.0000 -RA BR 7000 390 2230 0 0
2019/10/31 23:29:00 BASE 21.58 54 23.72 53 4.2 94 3.3 6 0 979.7 NA 0.0000 -RA BR 6000 390 0 0 0
2019/10/31 23:30:00 BASE 21.66 57 23.72 53 4.1 94 3.3 6 0 979.7 NA 0.0000 -RA BR 6000 360 0 0 0
2019/10/31 23:31:00 BASE 20.64 61 23.72 53 4.1 94 3.2 6 0 979.8 NA 0.0000 -RA BR 7000 390 0 0 0
2019/10/31 23:32:00 BASE 20.62 65 23.72 53 4.0 94 3.1 5 0 979.8 NA 0.2540 -RA BR 7000 390 0 0 0
2019/10/31 23:33:00 BASE 21.04 67 23.72 53 3.9 95 3.1 5 0 979.8 NA 0.0000 -RA BR 8000 390 0 0 0
2019/10/31 23:34:00 BASE 21.10 69 23.72 53 3.9 95 3.1 5 0 979.8 NA 0.0000 -RA BR 6000 390 2330 0 0
2019/10/31 23:35:00 BASE 20.96 72 23.72 53 3.8 95 3.1 5 0 979.8 NA 0.0000 -RA BR 6000 390 2360 0 0
2019/10/31 23:36:00 BASE 20.03 75 23.72 53 3.7 96 3.1 5 0 979.9 NA 0.0000 -RA BR 5000 390 0 0 0
2019/10/31 23:37:00 BASE 19.22 77 23.72 53 3.7 96 3.1 5 0 979.9 NA 0.0000 -RA BR 4700 430 2360 0 0
2019/10/31 23:38:00 BASE 18.64 79 23.72 53 3.6 96 3.0 5 0 979.9 NA 0.0000 -RA BR 3500 430 0 0 0
2019/10/31 23:39:00 BASE 18.19 80 22.94 68 3.5 96 3.0 5 0 980.0 NA 0.0000 -RA BR 3500 430 0 0 0
2019/10/31 23:40:00 BASE 17.47 81 22.94 68 3.5 97 3.0 5 0 980.0 NA 0.0000 -RA BR 3500 430 0 0 0
2019/10/31 23:41:00 BASE 16.70 82 22.94 68 3.4 97 3.0 5 0 980.0 NA 0.0000 -RA BR 3500 430 2260 0 0
2019/10/31 23:42:00 BASE 16.14 83 22.94 68 3.5 97 3.1 5 0 980.0 NA 0.0000 -RA BR 3500 390 2230 0 0
2019/10/31 23:43:00 BASE 15.48 83 22.38 69 3.5 98 3.1 5 0 980.1 NA 0.0000 -RA BR 3500 390 2260 0 0
2019/10/31 23:44:00 BASE 15.27 80 22.17 70 3.5 98 3.2 5 0 980.1 NA 0.0000 -RA BR 3500 390 2260 0 0
2019/10/31 23:45:00 BASE 15.61 81 21.66 72 3.5 98 3.2 5 0 980.1 NA 0.0000 -RA BR 3500 390 2300 0 0
2019/10/31 23:46:00 BASE 15.19 81 21.40 83 3.5 98 3.2 4 0 980.2 NA 0.0000 -RA BR 3500 390 0 0 0
2019/10/31 23:47:00 BASE 14.57 82 20.27 76 3.5 98 3.2 4 0 980.1 NA 0.0000 BR 3500 390 2360 0 0
2019/10/31 23:48:00 BASE 14.88 84 20.11 79 3.5 98 3.2 4 0 980.2 NA 0.0000 BR 3500 390 0 0 0
2019/10/31 23:49:00 BASE 15.04 85 18.88 84 3.4 99 3.2 3 0 980.1 NA 0.0000 BR 3500 390 2400 0 0
2019/10/31 23:50:00 BASE 14.77 84 18.37 85 3.4 99 3.2 3 0 980.1 NA 0.2540 BR 3500 390 2430 0 0
2019/10/31 23:51:00 BASE 15.64 82 19.03 84 3.4 99 3.2 3 0 980.1 NA 0.0000 BR 3500 360 2460 0 0
2019/10/31 23:52:00 BASE 16.53 84 19.03 84 3.3 99 3.2 3 0 980.1 NA 0.0000 BR 3500 390 2490 0 0
2019/10/31 23:53:00 BASE 16.25 86 19.03 84 3.3 99 3.2 2 0 980.1 NA 0.0000 BR 3500 430 2490 0 0
2019/10/31 23:54:00 BASE 16.31 85 19.03 84 3.2 99 3.2 2 0 980.1 NA 0.0000 BR 3500 430 2230 0 0
2019/10/31 23:55:00 BASE 15.48 84 19.03 84 3.2 100 3.2 2 0 980.1 NA 0.0000 BR 3500 430 0 0 0
2019/10/31 23:56:00 BASE 14.89 83 19.03 84 3.2 100 3.2 2 0 980.2 NA 0.0000 BR 3500 430 0 0 0
2019/10/31 23:57:00 BASE 15.72 84 19.03 84 3.2 100 3.2 2 0 980.2 NA 0.0000 BR 3500 430 0 0 0
2019/10/31 23:58:00 BASE 16.08 86 19.03 84 3.2 100 3.2 2 0 980.1 NA 0.0000 BR 3500 430 2300 0 0
2019/10/31 23:59:00 BASE 15.02 87 19.03 84 3.2 100 3.2 2 0 980.2 NA 0.0000 BR 3500 390 0 0 0